[[{"header":{"parameterUnit":"m.s-1","parameterCategory":1,"la1":31.0,"la2":29.5877,"lo1":-88.7671,"lo2":-86.6584,"dy":0.0162,"dx":0.0185,"nx":115,"ny":88,"refTime":"2023-08-20T00:00:00:Z","depth":0,"parameterNumber":2,"parameterNumberName":"U-component_of_WINDS"},"data":[0.0,0.0,0.0,0.0,0.0,0.0,0.0,0.0,0.0,0.0,0.0,0.0,0.0,0.0,0.0,0.0,0.0,0.0,0.0,0.0,0.0,0.0,0.0,0.0,0.0,0.0,0.0,0.0,0.0,0.0,0.0,0.0,0.0,0.0,0.0,0.0,0.0,0.0,0.0,0.0,0.0,0.0,0.0,0.0,0.0,0.0,0.0,0.0,0.0,0.0,0.0,0.0,0.0,0.0,0.0,0.0,0.0,0.0,0.0,0.0,0.0,0.0,0.0,0.0,0.0,0.0,0.0,0.0,0.0,0.0,0.0,0.0,0.0,0.0,0.0,0.0,0.0,0.0,0.0,0.0,0.0,0.0,0.0,0.0,0.0,0.0,0.0,0.0,0.0,0.0,0.0,0.0,0.0,0.0,0.0,0.0,0.0,0.0,0.0,0.0,0.0,0.0,0.0,0.0,0.0,0.0,0.0,0.0,0.0,0.0,0.0,0.0,0.0,0.0,0.0,0.0,0.0,0.0,0.0,0.0,0.0,0.0,0.0,0.0,0.0,0.0,0.0,0.0,0.0,0.0,0.0,0.0,0.0,0.0,0.0,0.0,0.0,0.0,0.0,0.0,0.0,0.0,0.0,0.0,0.0,0.0,0.0,0.0,0.0,0.0,0.0,0.0,0.0,0.0,0.0,0.0,0.0,0.0,0.0,0.0,0.0,0.0,0.0,0.0,0.0,0.0,0.0,0.0,0.0,0.0,0.0,0.0,0.0,0.0,0.0,0.0,0.0,0.0,0.0,0.0,0.0,0.0,0.0,0.0,0.0,0.0,0.0,0.0,0.0,0.0,0.0,0.0,0.0,0.0,0.0,0.0,0.0,0.0,0.0,0.0,0.0,0.0,0.0,0.0,0.0,0.0,0.0,0.0,0.0,0.0,0.0,0.0,0.0,0.0,0.0,0.0,0.0,0.0,0.0,0.0,0.0,0.0,0.0,0.0,0.0,0.0,0.0,0.0,0.0,0.0,0.0,0.0,0.0,0.0,0.0,0.0,0.0,0.0,0.0,0.0,0.0,0.0,0.0,0.0,0.0,0.0,0.0,0.0,0.0,0.0,0.0,0.0,0.0,0.0,0.0,0.0,0.0,0.0,0.0,0.0,0.0,0.0,0.0,0.0,0.0,0.0,0.0,0.0,0.0,0.0,0.0,0.0,0.0,0.0,0.0,0.0,0.0,0.0,0.0,0.0,0.0,0.0,0.0,0.0,0.0,0.0,0.0,0.0,0.0,0.0,0.0,0.0,0.0,0.0,0.0,0.0,0.0,0.0,0.0,0.0,0.0,0.0,0.0,0.0,0.0,0.0,0.0,0.0,0.0,0.0,0.0,0.0,0.0,0.0,0.0,0.0,0.0,0.0,0.0,0.0,0.0,0.0,0.0,0.0,0.0,0.0,0.0,0.0,0.0,0.0,0.0,0.0,0.0,0.0,0.0,0.0,0.0,0.0,0.0,0.0,0.0,0.0,0.0,0.0,0.0,0.0,0.0,0.0,0.0,0.0,0.0,0.0,0.0,0.0,0.0,0.0,0.0,0.0,0.0,0.0,0.0,0.0,0.0,0.0,0.0,0.0,0.0,0.0,0.0,0.0,0.0,0.0,0.0,0.0,0.0,0.0,0.0,0.0,0.0,0.0,0.0,0.0,0.0,0.0,0.0,0.0,0.0,0.0,0.0,0.0,0.0,0.0,0.0,0.0,0.0,0.0,0.0,0.0,0.0,0.0,0.0,0.0,0.0,0.0,0.0,0.0,0.0,0.0,0.0,0.0,0.0,0.0,0.0,0.0,0.0,0.0,0.0,0.0,0.0,0.0,0.0,0.0,0.0,0.0,0.0,0.0,0.0,0.0,0.0,0.0,0.0,0.0,0.0,0.0,0.0,0.0,0.0,0.0,0.0,0.0,0.0,0.0,0.0,0.0,0.0,0.0,0.0,0.0,0.0,0.0,0.0,0.0,0.0,0.0,0.0,0.0,0.0,0.0,0.0,0.0,0.0,0.0,0.0,0.0,0.0,0.0,0.0,0.0,0.0,0.0,0.0,0.0,0.0,0.0,0.0,0.0,0.0,0.0,0.0,0.0,0.0,0.0,0.0,0.0,0.0,0.0,0.0,0.0,0.0,0.0,0.0,0.0,0.0,0.0,0.0,0.0,0.0,0.0,0.0,0.0,0.0,0.0,0.0,0.0,0.0,0.0,0.0,0.0,0.0,0.0,0.0,0.0,0.0,0.0,0.0,0.0,0.0,0.0,0.0,0.0,0.0,0.0,0.0,0.0,0.0,0.0,0.0,0.0,0.0,0.0,0.0,0.0,0.0,0.0,0.0,0.0,0.0,0.0,0.0,0.0,0.0,0.0,0.0,0.0,0.0,0.0,0.0,0.0,0.0,0.0,0.0,0.0,0.0,0.0,0.0,0.0,0.0,0.0,0.0,0.0,0.0,0.0,0.0,0.0,0.0,0.0,0.0,0.0,0.0,0.0,0.0,0.0,0.0,0.0,0.0,0.0,0.0,0.0,0.0,0.0,0.0,0.0,0.0,0.0,0.0,0.0,0.0,0.0,0.0,0.0,0.0,0.0,0.0,0.0,0.0,0.0,0.0,0.0,0.0,0.0,0.0,0.0,0.0,0.0,0.0,0.0,0.0,0.0,0.0,0.0,0.0,0.0,0.0,0.0,0.0,0.0,0.0,0.0,0.0,0.0,0.0,0.0,0.0,0.0,0.0,0.0,0.0,0.0,0.0,0.0,0.0,0.0,0.0,0.0,0.0,0.0,0.0,0.0,0.0,0.0,0.0,0.0,0.0,0.0,0.0,0.0,0.0,0.0,0.0,0.0,0.0,0.0,0.0,0.0,0.0,0.0,0.0,0.0,0.0,0.0,0.0,0.0,0.0,0.0,0.0,0.0,0.0,0.0,0.0,0.0,0.0,0.0,0.0,0.0,0.0,0.0,0.0,0.0,0.0,0.0,0.0,0.0,0.0,0.0,0.0,0.0,0.0,0.0,0.0,0.0,0.0,0.0,0.0,0.0,0.0,0.0,0.0,0.0,0.0,0.0,0.0,0.0,0.0,0.0,0.0,0.0,0.0,0.0,0.0,0.0,0.0,0.0,0.0,0.0,0.0,0.0,0.0,0.0,0.0,0.0,0.0,0.0,0.0,0.0,0.0,0.0,0.0,0.0,0.0,0.0,0.0,0.0,0.0,0.0,0.0,0.0,0.0,0.0,0.0,0.0,0.0,0.0,0.0,0.0,0.0,0.0,0.0,0.0,0.0,0.0,0.0,0.0,0.0,0.0,0.0,0.0,0.0,0.0,0.0,0.0,0.0,0.0,0.0,0.0,0.0,0.0,0.0,0.0,0.0,0.0,0.0,0.0,0.0,0.0,0.0,0.0,0.0,0.0,0.0,0.0,0.0,0.0,0.0,0.0,0.0,0.0,0.0,0.0,0.0,0.0,0.0,0.0,0.0,0.0,0.0,0.0,0.0,0.0,0.0,0.0,0.0,0.0,0.0,0.0,0.0,0.0,0.0,0.0,0.0,0.0,0.0,0.0,0.0,0.0,0.0,0.0,0.0,0.0,0.0,0.0,0.0,0.0,0.0,0.0,0.0,0.0,0.0,0.0,0.0,0.0,0.0,0.0,0.0,0.0,0.0,0.0,0.0,0.0,0.0,0.0,0.0,0.0,0.0,0.0,0.0,0.0,0.0,0.0,0.0,0.0,0.0,0.0,0.0,0.0,0.0,0.0,0.0,0.0,0.0,0.0,0.0,0.0,0.0,0.0,0.0,0.0,0.0,0.0,0.0,0.0,0.0,0.0,0.0,0.0,0.0,0.0,0.0,0.0,0.0,0.0,0.0,0.0,0.0,0.0,0.0,0.0,0.0,0.0,0.0,0.0,0.0,0.0,0.0,0.0,0.0,0.0,0.0,0.0,0.0,0.0,0.0,0.0,0.0,0.0,0.0,0.0,0.0,0.0,0.0,0.0,0.0,0.0,0.0,0.0,0.0,0.0,0.0,0.0,0.0,0.0,0.0,0.0,0.0,0.0,0.0,0.0,0.0,0.0,0.0,0.0,0.0,0.0,0.0,0.0,0.0,0.0,0.0,0.0,0.0,0.0,0.0,0.0,0.0,0.0,0.0,0.0,0.0,0.0,0.0,0.0,0.0,0.0,0.0,0.0,0.0,0.0,0.0,0.0,0.0,0.0,0.0,0.0,0.0,0.0,0.0,0.0,-3.7819,0.0,0.0,0.0,0.0,0.0,0.0,0.0,0.0,0.0,0.0,0.0,0.0,0.0,0.0,0.0,0.0,0.0,0.0,0.0,0.0,0.0,0.0,0.0,0.0,0.0,0.0,0.0,0.0,0.0,0.0,0.0,0.0,0.0,0.0,0.0,0.0,0.0,0.0,0.0,0.0,0.0,0.0,0.0,0.0,0.0,0.0,0.0,0.0,0.0,0.0,0.0,0.0,0.0,0.0,0.0,0.0,0.0,0.0,0.0,0.0,0.0,0.0,0.0,0.0,0.0,0.0,0.0,0.0,0.0,0.0,0.0,0.0,0.0,0.0,0.0,0.0,0.0,0.0,0.0,0.0,0.0,0.0,0.0,0.0,0.0,0.0,0.0,0.0,0.0,0.0,0.0,0.0,0.0,0.0,0.0,0.0,0.0,0.0,0.0,0.0,0.0,0.0,0.0,0.0,0.0,0.0,0.0,0.0,0.0,0.0,-4.0968,-4.1064,-4.0454,-3.9658,-3.8636,0.0,0.0,0.0,0.0,0.0,0.0,0.0,0.0,0.0,0.0,0.0,0.0,0.0,0.0,0.0,0.0,0.0,0.0,0.0,0.0,0.0,0.0,0.0,0.0,0.0,0.0,0.0,0.0,0.0,0.0,0.0,0.0,0.0,0.0,0.0,0.0,0.0,0.0,0.0,0.0,0.0,0.0,0.0,0.0,0.0,0.0,0.0,0.0,0.0,0.0,0.0,0.0,0.0,0.0,0.0,0.0,0.0,0.0,0.0,0.0,0.0,0.0,0.0,0.0,0.0,0.0,0.0,0.0,0.0,0.0,0.0,0.0,0.0,0.0,0.0,0.0,0.0,0.0,0.0,0.0,0.0,0.0,0.0,0.0,0.0,0.0,0.0,0.0,0.0,0.0,0.0,0.0,0.0,0.0,0.0,0.0,0.0,0.0,0.0,0.0,0.0,0.0,0.0,0.0,0.0,0.0,0.0,0.0,0.0,0.0,0.0,0.0,-4.2094,-4.1011,-3.9427,0.0,0.0,0.0,0.0,0.0,0.0,0.0,0.0,0.0,0.0,0.0,0.0,0.0,0.0,0.0,0.0,0.0,0.0,0.0,0.0,0.0,0.0,0.0,0.0,0.0,0.0,0.0,0.0,0.0,0.0,0.0,0.0,0.0,0.0,0.0,0.0,0.0,0.0,0.0,0.0,0.0,0.0,0.0,0.0,0.0,0.0,0.0,0.0,0.0,0.0,0.0,0.0,0.0,0.0,0.0,0.0,0.0,0.0,0.0,0.0,0.0,0.0,0.0,0.0,0.0,0.0,0.0,0.0,0.0,0.0,0.0,0.0,0.0,0.0,0.0,0.0,0.0,0.0,0.0,0.0,0.0,0.0,0.0,0.0,0.0,0.0,0.0,0.0,0.0,0.0,0.0,0.0,0.0,0.0,0.0,0.0,0.0,0.0,0.0,0.0,0.0,0.0,0.0,0.0,0.0,0.0,0.0,0.0,0.0,0.0,-4.3485,-4.509,-4.4142,0.0,-3.987,0.0,0.0,0.0,0.0,0.0,0.0,0.0,0.0,0.0,0.0,0.0,0.0,0.0,0.0,0.0,0.0,0.0,0.0,0.0,0.0,0.0,0.0,0.0,0.0,0.0,0.0,0.0,0.0,0.0,0.0,0.0,0.0,0.0,0.0,0.0,0.0,0.0,0.0,0.0,0.0,0.0,0.0,0.0,0.0,0.0,0.0,0.0,0.0,0.0,0.0,0.0,0.0,0.0,0.0,0.0,0.0,0.0,0.0,0.0,0.0,0.0,0.0,0.0,0.0,0.0,0.0,0.0,0.0,0.0,0.0,0.0,0.0,0.0,0.0,0.0,0.0,0.0,0.0,0.0,0.0,0.0,0.0,0.0,0.0,0.0,0.0,0.0,0.0,0.0,0.0,0.0,0.0,0.0,0.0,0.0,0.0,0.0,0.0,0.0,0.0,0.0,0.0,0.0,0.0,0.0,0.0,0.0,0.0,0.0,0.0,-4.4112,-4.4952,-4.3286,-4.1406,0.0,0.0,0.0,0.0,0.0,0.0,0.0,0.0,0.0,0.0,0.0,0.0,0.0,0.0,0.0,0.0,0.0,0.0,0.0,0.0,0.0,0.0,0.0,0.0,0.0,0.0,0.0,0.0,0.0,0.0,0.0,0.0,0.0,0.0,0.0,0.0,0.0,0.0,0.0,0.0,0.0,0.0,0.0,0.0,0.0,0.0,0.0,0.0,0.0,0.0,0.0,0.0,0.0,0.0,0.0,0.0,0.0,0.0,0.0,0.0,0.0,0.0,0.0,0.0,0.0,0.0,0.0,0.0,0.0,0.0,0.0,0.0,0.0,0.0,0.0,0.0,0.0,0.0,0.0,0.0,0.0,0.0,0.0,0.0,0.0,0.0,0.0,0.0,0.0,0.0,0.0,0.0,0.0,0.0,0.0,0.0,0.0,0.0,0.0,0.0,0.0,0.0,0.0,0.0,0.0,0.0,0.0,0.0,0.0,0.0,-4.3687,-4.432,-4.4577,-4.3232,-4.1332,-3.9093,0.0,0.0,0.0,0.0,0.0,0.0,0.0,0.0,0.0,0.0,0.0,0.0,0.0,0.0,0.0,0.0,0.0,0.0,0.0,0.0,0.0,0.0,0.0,0.0,0.0,0.0,0.0,0.0,0.0,0.0,0.0,0.0,0.0,0.0,0.0,0.0,0.0,0.0,0.0,0.0,0.0,0.0,0.0,0.0,0.0,0.0,0.0,0.0,0.0,0.0,0.0,0.0,0.0,0.0,0.0,0.0,0.0,0.0,0.0,0.0,0.0,0.0,0.0,0.0,0.0,0.0,0.0,0.0,0.0,0.0,0.0,0.0,0.0,0.0,0.0,0.0,0.0,0.0,0.0,0.0,0.0,0.0,0.0,0.0,0.0,0.0,0.0,0.0,0.0,0.0,0.0,0.0,0.0,0.0,0.0,0.0,0.0,0.0,0.0,0.0,0.0,0.0,0.0,0.0,0.0,0.0,0.0,0.0,-4.4898,-4.4276,-4.4186,-4.4898,-4.5008,-4.3143,0.0,0.0,0.0,0.0,0.0,0.0,0.0,0.0,0.0,0.0,0.0,0.0,0.0,0.0,0.0,0.0,0.0,0.0,0.0,0.0,0.0,0.0,0.0,0.0,0.0,0.0,0.0,0.0,0.0,0.0,0.0,0.0,0.0,0.0,0.0,0.0,0.0,0.0,0.0,0.0,0.0,0.0,0.0,0.0,0.0,0.0,0.0,0.0,0.0,0.0,0.0,0.0,0.0,0.0,0.0,0.0,0.0,0.0,0.0,0.0,0.0,0.0,0.0,0.0,0.0,0.0,0.0,0.0,0.0,0.0,0.0,0.0,0.0,0.0,0.0,0.0,0.0,0.0,0.0,0.0,0.0,0.0,0.0,0.0,0.0,0.0,0.0,0.0,0.0,0.0,0.0,0.0,0.0,0.0,0.0,0.0,0.0,0.0,0.0,0.0,0.0,0.0,0.0,0.0,0.0,0.0,0.0,0.0,0.0,-4.3062,-4.4182,-4.5179,-4.5937,-4.3931,-4.1737,0.0,0.0,0.0,0.0,0.0,0.0,0.0,0.0,0.0,0.0,0.0,0.0,0.0,0.0,0.0,0.0,0.0,0.0,0.0,0.0,0.0,0.0,0.0,0.0,0.0,0.0,0.0,0.0,0.0,0.0,0.0,0.0,0.0,0.0,0.0,0.0,0.0,0.0,0.0,0.0,0.0,0.0,0.0,0.0,0.0,0.0,0.0,0.0,0.0,0.0,0.0,0.0,0.0,0.0,0.0,0.0,0.0,0.0,0.0,0.0,0.0,0.0,0.0,0.0,0.0,0.0,0.0,0.0,0.0,0.0,0.0,0.0,0.0,0.0,0.0,0.0,0.0,0.0,0.0,0.0,0.0,0.0,0.0,0.0,0.0,0.0,0.0,0.0,0.0,0.0,0.0,0.0,0.0,0.0,0.0,0.0,0.0,0.0,0.0,0.0,0.0,0.0,0.0,0.0,0.0,0.0,0.0,0.0,0.0,-4.2456,0.0,-4.5919,-4.5946,-4.3452,-4.117,0.0,0.0,0.0,0.0,0.0,0.0,0.0,0.0,0.0,0.0,0.0,0.0,0.0,0.0,0.0,0.0,0.0,0.0,0.0,0.0,0.0,0.0,0.0,0.0,0.0,0.0,0.0,0.0,0.0,0.0,0.0,0.0,0.0,0.0,0.0,0.0,0.0,0.0,0.0,0.0,0.0,0.0,0.0,0.0,0.0,0.0,0.0,0.0,0.0,0.0,0.0,0.0,0.0,0.0,0.0,0.0,0.0,0.0,0.0,0.0,0.0,0.0,0.0,0.0,0.0,0.0,0.0,0.0,0.0,0.0,0.0,0.0,0.0,0.0,0.0,0.0,0.0,0.0,0.0,0.0,0.0,0.0,0.0,0.0,0.0,0.0,0.0,0.0,0.0,0.0,0.0,0.0,0.0,0.0,0.0,0.0,0.0,0.0,0.0,0.0,0.0,0.0,0.0,0.0,0.0,0.0,0.0,0.0,-4.0741,-4.3495,-4.568,-4.6175,-4.4818,-4.3956,-4.1758,0.0,0.0,0.0,0.0,0.0,0.0,0.0,0.0,0.0,0.0,0.0,0.0,0.0,0.0,0.0,0.0,0.0,0.0,0.0,0.0,0.0,0.0,0.0,0.0,0.0,0.0,0.0,0.0,0.0,0.0,0.0,0.0,0.0,0.0,0.0,0.0,0.0,0.0,0.0,0.0,0.0,0.0,0.0,0.0,0.0,0.0,0.0,0.0,0.0,0.0,0.0,0.0,0.0,0.0,0.0,0.0,0.0,0.0,0.0,0.0,0.0,0.0,0.0,0.0,0.0,0.0,0.0,0.0,0.0,0.0,0.0,0.0,0.0,0.0,0.0,0.0,0.0,0.0,0.0,0.0,0.0,0.0,0.0,0.0,0.0,0.0,0.0,0.0,0.0,0.0,0.0,0.0,0.0,0.0,0.0,0.0,0.0,0.0,0.0,0.0,0.0,0.0,0.0,0.0,0.0,0.0,0.0,0.0,0.0,-4.2837,-4.4986,-4.6179,-4.6113,-4.3529,-4.1465,0.0,0.0,0.0,0.0,0.0,0.0,0.0,0.0,0.0,0.0,0.0,0.0,0.0,0.0,0.0,0.0,0.0,0.0,0.0,0.0,0.0,0.0,0.0,0.0,0.0,0.0,0.0,0.0,0.0,0.0,0.0,0.0,0.0,0.0,0.0,0.0,0.0,0.0,0.0,0.0,0.0,0.0,0.0,0.0,0.0,0.0,0.0,0.0,0.0,0.0,0.0,0.0,0.0,0.0,0.0,0.0,0.0,0.0,0.0,0.0,0.0,0.0,0.0,0.0,0.0,0.0,0.0,0.0,0.0,0.0,0.0,0.0,0.0,0.0,0.0,0.0,0.0,0.0,0.0,0.0,0.0,0.0,0.0,0.0,0.0,0.0,0.0,0.0,0.0,0.0,0.0,0.0,0.0,0.0,0.0,0.0,0.0,0.0,0.0,0.0,0.0,0.0,0.0,0.0,0.0,0.0,0.0,0.0,0.0,-4.4591,-4.6444,-4.7504,-4.7703,-4.4892,-4.2657,-4.107,0.0,0.0,0.0,0.0,0.0,0.0,0.0,0.0,0.0,0.0,0.0,0.0,0.0,0.0,0.0,0.0,0.0,0.0,0.0,0.0,0.0,0.0,0.0,0.0,0.0,0.0,0.0,0.0,0.0,0.0,0.0,0.0,0.0,0.0,0.0,0.0,0.0,0.0,0.0,0.0,0.0,0.0,0.0,0.0,0.0,0.0,0.0,0.0,0.0,0.0,0.0,0.0,0.0,0.0,0.0,0.0,0.0,0.0,0.0,0.0,0.0,0.0,0.0,0.0,0.0,0.0,0.0,0.0,0.0,0.0,0.0,0.0,0.0,0.0,0.0,0.0,0.0,0.0,0.0,0.0,0.0,0.0,0.0,0.0,0.0,0.0,0.0,0.0,0.0,0.0,0.0,0.0,0.0,0.0,0.0,0.0,0.0,0.0,0.0,0.0,0.0,0.0,0.0,0.0,0.0,0.0,0.0,0.0,-4.8199,-4.9723,-5.0121,-4.9259,-4.7605,-4.5004,0.0,0.0,0.0,0.0,0.0,0.0,0.0,0.0,0.0,0.0,0.0,0.0,0.0,0.0,0.0,0.0,0.0,0.0,0.0,0.0,0.0,0.0,0.0,0.0,0.0,0.0,0.0,0.0,0.0,0.0,0.0,0.0,0.0,0.0,0.0,0.0,0.0,0.0,0.0,0.0,0.0,0.0,0.0,0.0,0.0,0.0,0.0,0.0,0.0,0.0,0.0,0.0,0.0,0.0,0.0,0.0,0.0,0.0,0.0,0.0,0.0,0.0,0.0,0.0,0.0,0.0,0.0,0.0,0.0,0.0,0.0,0.0,0.0,0.0,0.0,0.0,0.0,0.0,0.0,0.0,0.0,0.0,0.0,0.0,0.0,0.0,0.0,0.0,0.0,0.0,0.0,0.0,0.0,0.0,0.0,0.0,0.0,0.0,0.0,0.0,0.0,0.0,0.0,0.0,0.0,0.0,0.0,0.0,0.0,-5.1148,-5.3169,-5.3294,-5.1333,-4.8792,-4.5863,0.0,0.0,0.0,0.0,0.0,0.0,0.0,0.0,0.0,0.0,0.0,0.0,0.0,0.0,0.0,0.0,0.0,0.0,0.0,0.0,0.0,0.0,0.0,0.0,0.0,0.0,0.0,0.0,0.0,0.0,0.0,0.0,0.0,0.0,0.0,0.0,0.0,0.0,0.0,0.0,0.0,0.0,0.0,0.0,0.0,0.0,0.0,0.0,0.0,0.0,0.0,0.0,0.0,0.0,0.0,0.0,0.0,0.0,0.0,0.0,0.0,0.0,0.0,0.0,0.0,0.0,0.0,0.0,0.0,0.0,0.0,0.0,0.0,0.0,0.0,0.0,0.0,0.0,0.0,0.0,0.0,0.0,0.0,0.0,0.0,0.0,0.0,0.0,0.0,0.0,0.0,0.0,0.0,0.0,0.0,0.0,0.0,0.0,0.0,0.0,0.0,0.0,0.0,0.0,0.0,0.0,0.0,0.0,-4.8394,-5.1642,-5.437,-5.5021,-5.3431,-5.1116,-4.7963,0.0,0.0,0.0,0.0,0.0,0.0,0.0,0.0,0.0,0.0,0.0,0.0,0.0,0.0,0.0,0.0,0.0,0.0,0.0,0.0,0.0,0.0,0.0,0.0,0.0,0.0,0.0,0.0,0.0,0.0,0.0,0.0,0.0,0.0,0.0,0.0,0.0,0.0,0.0,0.0,0.0,0.0,0.0,0.0,0.0,0.0,0.0,0.0,0.0,0.0,0.0,0.0,0.0,0.0,0.0,0.0,0.0,0.0,0.0,0.0,0.0,0.0,0.0,0.0,0.0,0.0,0.0,0.0,0.0,0.0,0.0,0.0,0.0,0.0,0.0,0.0,0.0,0.0,0.0,0.0,0.0,0.0,0.0,0.0,0.0,0.0,0.0,0.0,0.0,0.0,0.0,0.0,0.0,0.0,0.0,0.0,0.0,0.0,0.0,0.0,0.0,0.0,0.0,0.0,0.0,0.0,0.0,0.0,-4.8218,-5.1092,-5.4324,-5.5826,-5.5405,-5.3664,-5.0363,0.0,0.0,0.0,0.0,0.0,0.0,0.0,0.0,0.0,0.0,0.0,0.0,0.0,0.0,0.0,0.0,0.0,0.0,0.0,0.0,0.0,0.0,0.0,0.0,0.0,0.0,0.0,0.0,0.0,0.0,0.0,0.0,0.0,0.0,0.0,0.0,0.0,0.0,0.0,0.0,0.0,0.0,0.0,0.0,0.0,0.0,0.0,0.0,0.0,0.0,0.0,0.0,0.0,0.0,0.0,0.0,0.0,0.0,0.0,0.0,0.0,0.0,0.0,0.0,0.0,0.0,0.0,0.0,0.0,0.0,0.0,0.0,0.0,0.0,0.0,0.0,0.0,0.0,0.0,0.0,0.0,0.0,0.0,0.0,0.0,0.0,0.0,0.0,0.0,0.0,0.0,0.0,0.0,0.0,0.0,0.0,0.0,0.0,0.0,0.0,0.0,0.0,0.0,0.0,0.0,0.0,0.0,0.0,-4.9387,-5.3165,-5.5039,-5.6266,-5.6825,-5.3412,-4.986,0.0,0.0,0.0,0.0,0.0,0.0,0.0,0.0,0.0,0.0,0.0,0.0,0.0,0.0,0.0,0.0,0.0,0.0,0.0,0.0,0.0,0.0,0.0,0.0,0.0,0.0,0.0,0.0,0.0,0.0,0.0,0.0,0.0,0.0,0.0,0.0,0.0,0.0,0.0,0.0,0.0,0.0,0.0,0.0,0.0,0.0,0.0,0.0,-4.0474,0.0,0.0,0.0,0.0,0.0,0.0,0.0,0.0,0.0,0.0,0.0,0.0,0.0,0.0,0.0,0.0,0.0,0.0,0.0,0.0,0.0,0.0,0.0,0.0,0.0,0.0,0.0,0.0,0.0,0.0,0.0,0.0,0.0,0.0,0.0,0.0,0.0,0.0,0.0,0.0,0.0,0.0,0.0,0.0,0.0,0.0,0.0,0.0,0.0,0.0,0.0,0.0,0.0,0.0,0.0,0.0,0.0,0.0,0.0,-4.92,-5.2513,-5.4283,-5.5402,-5.5773,-5.2929,-4.9984,0.0,0.0,0.0,0.0,0.0,0.0,0.0,0.0,0.0,0.0,0.0,0.0,0.0,0.0,0.0,0.0,0.0,0.0,0.0,0.0,0.0,0.0,0.0,0.0,0.0,0.0,0.0,0.0,0.0,0.0,0.0,0.0,0.0,0.0,0.0,0.0,0.0,0.0,0.0,0.0,0.0,0.0,0.0,0.0,0.0,0.0,0.0,0.0,0.0,0.0,0.0,0.0,0.0,0.0,0.0,0.0,0.0,0.0,0.0,0.0,0.0,0.0,0.0,0.0,0.0,0.0,0.0,0.0,0.0,0.0,0.0,0.0,0.0,0.0,0.0,0.0,0.0,0.0,0.0,0.0,0.0,0.0,0.0,0.0,0.0,0.0,0.0,0.0,0.0,0.0,0.0,0.0,0.0,0.0,0.0,0.0,0.0,0.0,0.0,0.0,0.0,0.0,0.0,0.0,0.0,0.0,0.0,-4.5563,-4.8476,-5.1439,-5.3125,-5.4101,-5.4296,-5.2446,-5.0154,-4.7356,0.0,0.0,0.0,0.0,0.0,0.0,0.0,0.0,0.0,0.0,0.0,0.0,0.0,0.0,0.0,0.0,0.0,0.0,0.0,0.0,0.0,0.0,0.0,0.0,0.0,0.0,0.0,0.0,0.0,0.0,0.0,0.0,0.0,0.0,0.0,0.0,0.0,0.0,-3.9549,-4.158,0.0,0.0,0.0,0.0,0.0,0.0,0.0,0.0,-4.2948,0.0,0.0,0.0,0.0,0.0,0.0,0.0,0.0,0.0,0.0,0.0,0.0,0.0,0.0,0.0,0.0,0.0,0.0,0.0,0.0,0.0,0.0,0.0,0.0,0.0,0.0,0.0,0.0,0.0,0.0,0.0,0.0,0.0,0.0,0.0,0.0,0.0,0.0,0.0,0.0,0.0,0.0,0.0,0.0,0.0,0.0,0.0,0.0,0.0,0.0,0.0,0.0,0.0,0.0,0.0,0.0,-4.4719,-4.5346,-4.7967,-5.2695,-5.2979,-5.3425,-5.4296,-5.2297,-4.9622,-4.6401,0.0,0.0,0.0,0.0,0.0,0.0,0.0,0.0,0.0,0.0,0.0,0.0,0.0,0.0,0.0,0.0,0.0,0.0,0.0,0.0,0.0,0.0,0.0,0.0,0.0,0.0,0.0,0.0,0.0,0.0,0.0,0.0,0.0,0.0,0.0,0.0,0.0,0.0,0.0,-4.2071,-4.3334,0.0,0.0,0.0,0.0,0.0,0.0,0.0,0.0,-4.3414,0.0,0.0,0.0,0.0,0.0,0.0,0.0,0.0,0.0,0.0,0.0,0.0,0.0,0.0,0.0,0.0,0.0,0.0,0.0,0.0,0.0,0.0,0.0,0.0,0.0,0.0,0.0,0.0,0.0,0.0,0.0,0.0,0.0,0.0,0.0,0.0,0.0,0.0,0.0,0.0,0.0,0.0,0.0,0.0,0.0,0.0,0.0,0.0,0.0,0.0,0.0,0.0,0.0,0.0,0.0,-4.3975,-4.5709,-4.858,-5.283,-5.2734,-5.2959,-5.3568,-5.1033,-4.8131,0.0,0.0,0.0,0.0,0.0,0.0,0.0,0.0,0.0,0.0,0.0,0.0,0.0,0.0,0.0,0.0,0.0,0.0,0.0,0.0,0.0,0.0,0.0,0.0,0.0,0.0,0.0,0.0,0.0,0.0,0.0,0.0,0.0,0.0,0.0,0.0,0.0,0.0,0.0,0.0,-4.2611,-4.3997,-4.4742,0.0,0.0,0.0,0.0,0.0,0.0,-4.3726,-4.3792,0.0,0.0,0.0,0.0,0.0,0.0,0.0,0.0,0.0,0.0,0.0,0.0,0.0,0.0,0.0,0.0,0.0,0.0,0.0,0.0,0.0,0.0,0.0,0.0,0.0,0.0,0.0,0.0,0.0,0.0,0.0,0.0,0.0,0.0,0.0,0.0,0.0,0.0,0.0,0.0,0.0,0.0,0.0,0.0,0.0,0.0,0.0,0.0,0.0,0.0,0.0,0.0,0.0,0.0,0.0,-4.3,-4.5795,-4.887,-5.2151,-5.2171,-5.2238,-5.2368,-4.9629,-4.6703,0.0,0.0,0.0,0.0,0.0,0.0,0.0,0.0,0.0,0.0,0.0,0.0,0.0,0.0,0.0,0.0,0.0,0.0,0.0,0.0,0.0,0.0,0.0,0.0,0.0,0.0,0.0,0.0,0.0,0.0,0.0,0.0,0.0,0.0,0.0,0.0,0.0,0.0,0.0,0.0,0.0,-4.4778,-4.5614,-4.5812,0.0,0.0,0.0,0.0,-4.453,-4.4671,0.0,0.0,0.0,0.0,0.0,0.0,0.0,0.0,0.0,0.0,0.0,0.0,0.0,0.0,0.0,0.0,0.0,0.0,0.0,0.0,0.0,0.0,0.0,0.0,0.0,0.0,0.0,0.0,0.0,0.0,0.0,0.0,0.0,0.0,0.0,0.0,0.0,0.0,0.0,0.0,0.0,0.0,0.0,0.0,0.0,0.0,0.0,0.0,0.0,0.0,0.0,0.0,0.0,0.0,0.0,0.0,-4.267,-4.4752,-4.7435,-5.0596,-5.0994,-5.0905,-5.0408,-4.8756,-4.6114,0.0,0.0,0.0,0.0,0.0,0.0,0.0,0.0,0.0,0.0,0.0,0.0,0.0,0.0,0.0,0.0,0.0,0.0,0.0,0.0,0.0,0.0,0.0,0.0,0.0,0.0,0.0,0.0,0.0,0.0,0.0,0.0,0.0,0.0,0.0,0.0,0.0,0.0,0.0,0.0,0.0,-4.5387,-4.4834,-4.5264,-4.5623,0.0,0.0,-4.4804,-4.5391,-4.6122,0.0,0.0,0.0,0.0,0.0,0.0,0.0,0.0,0.0,0.0,0.0,0.0,0.0,0.0,0.0,0.0,0.0,0.0,0.0,0.0,0.0,0.0,0.0,0.0,0.0,0.0,0.0,0.0,0.0,0.0,0.0,0.0,0.0,0.0,0.0,0.0,0.0,0.0,0.0,0.0,0.0,0.0,0.0,0.0,0.0,0.0,0.0,0.0,0.0,0.0,0.0,0.0,0.0,0.0,0.0,-3.8445,-4.1056,-4.3,-4.559,-4.8731,-4.8813,-4.894,-4.9291,-4.6408,-4.3772,0.0,0.0,0.0,0.0,0.0,0.0,0.0,0.0,0.0,0.0,0.0,0.0,0.0,0.0,0.0,0.0,0.0,0.0,0.0,0.0,0.0,0.0,0.0,0.0,0.0,0.0,0.0,0.0,0.0,0.0,0.0,0.0,0.0,0.0,0.0,0.0,0.0,0.0,0.0,0.0,0.0,0.0,-4.6477,-4.7481,0.0,0.0,0.0,-4.6555,-4.6365,0.0,0.0,0.0,0.0,0.0,0.0,0.0,0.0,0.0,0.0,0.0,0.0,0.0,0.0,0.0,0.0,0.0,0.0,0.0,0.0,0.0,0.0,0.0,0.0,0.0,0.0,0.0,0.0,0.0,0.0,0.0,0.0,0.0,0.0,0.0,0.0,0.0,0.0,0.0,0.0,0.0,0.0,0.0,0.0,0.0,0.0,0.0,0.0,0.0,0.0,0.0,0.0,0.0,0.0,0.0,0.0,0.0,-3.9243,-4.1608,-4.4035,-4.6483,-4.6678,-4.6954,-4.7347,-4.4011,0.0,0.0,0.0,0.0,0.0,0.0,0.0,0.0,0.0,0.0,0.0,0.0,0.0,0.0,0.0,0.0,0.0,0.0,0.0,0.0,0.0,0.0,0.0,0.0,0.0,0.0,0.0,-2.9,0.0,0.0,0.0,0.0,0.0,0.0,0.0,0.0,0.0,0.0,0.0,0.0,0.0,0.0,-4.6974,-4.7868,-4.9425,-5.0056,0.0,0.0,-4.7963,-4.7049,-4.6511,-4.5621,0.0,0.0,0.0,0.0,0.0,0.0,0.0,0.0,0.0,0.0,0.0,0.0,0.0,0.0,0.0,0.0,0.0,0.0,0.0,0.0,0.0,0.0,0.0,0.0,0.0,0.0,0.0,0.0,0.0,0.0,0.0,0.0,0.0,0.0,0.0,0.0,0.0,0.0,0.0,0.0,0.0,0.0,0.0,0.0,0.0,0.0,0.0,0.0,0.0,0.0,0.0,0.0,0.0,0.0,0.0,-3.764,-4.1047,-4.3166,-4.3944,-4.5033,-4.5111,-4.4043,-4.2214,-4.0113,0.0,0.0,0.0,0.0,0.0,0.0,0.0,0.0,0.0,0.0,0.0,0.0,0.0,0.0,0.0,0.0,0.0,0.0,0.0,0.0,0.0,0.0,0.0,0.0,0.0,0.0,0.0,0.0,0.0,0.0,0.0,0.0,0.0,0.0,0.0,0.0,0.0,0.0,0.0,0.0,0.0,-4.863,-4.81,-4.9823,-5.0916,0.0,0.0,-4.8531,-4.7104,-4.7403,-4.664,-4.3215,0.0,0.0,0.0,0.0,0.0,0.0,0.0,0.0,0.0,0.0,0.0,0.0,0.0,0.0,0.0,0.0,0.0,0.0,0.0,0.0,0.0,0.0,0.0,0.0,0.0,0.0,0.0,0.0,0.0,0.0,0.0,0.0,0.0,0.0,0.0,0.0,0.0,0.0,0.0,0.0,0.0,0.0,0.0,0.0,0.0,0.0,0.0,0.0,0.0,0.0,0.0,0.0,0.0,-3.5373,-3.6946,-3.9216,-4.0934,-4.2133,-4.3006,-4.3336,-4.3145,-4.1042,-3.9249,0.0,0.0,0.0,0.0,0.0,0.0,0.0,0.0,0.0,0.0,0.0,0.0,0.0,0.0,0.0,0.0,0.0,0.0,0.0,0.0,0.0,0.0,0.0,0.0,0.0,0.0,0.0,0.0,-3.1301,-3.1981,-3.2658,0.0,0.0,0.0,0.0,0.0,0.0,0.0,0.0,0.0,0.0,-4.6865,-4.7887,-4.9655,0.0,0.0,-4.9183,-4.8763,-4.7736,-4.6676,-4.5483,-4.4059,-4.2641,0.0,0.0,0.0,0.0,0.0,0.0,0.0,0.0,0.0,0.0,0.0,0.0,0.0,0.0,0.0,0.0,0.0,0.0,0.0,0.0,0.0,0.0,0.0,0.0,0.0,0.0,0.0,0.0,0.0,0.0,0.0,0.0,0.0,0.0,0.0,0.0,0.0,0.0,0.0,0.0,0.0,0.0,0.0,0.0,0.0,0.0,0.0,0.0,0.0,0.0,0.0,0.0,-3.427,-3.5865,-3.756,-3.907,-4.0385,-4.1106,-4.1489,-4.1452,-3.9544,-3.7985,0.0,0.0,0.0,0.0,0.0,0.0,0.0,0.0,0.0,0.0,0.0,0.0,0.0,0.0,0.0,0.0,0.0,0.0,0.0,0.0,0.0,0.0,0.0,0.0,0.0,0.0,0.0,0.0,-3.2384,-3.2883,-3.3347,0.0,0.0,0.0,0.0,0.0,0.0,0.0,0.0,0.0,0.0,-4.6375,-4.7856,-4.9494,-5.0203,-4.9126,-4.8971,-4.8762,-4.8133,-4.6478,-4.4991,-4.4158,0.0,0.0,0.0,0.0,0.0,0.0,0.0,0.0,0.0,0.0,0.0,0.0,0.0,0.0,0.0,0.0,0.0,0.0,0.0,0.0,0.0,0.0,0.0,0.0,0.0,0.0,0.0,0.0,0.0,0.0,-2.9471,0.0,0.0,0.0,0.0,0.0,0.0,0.0,0.0,0.0,0.0,0.0,0.0,0.0,0.0,0.0,0.0,0.0,0.0,0.0,0.0,0.0,0.0,-3.2985,-3.4093,-3.6234,-3.7741,-3.8564,-3.9559,-3.9688,-3.8691,-3.7493,-3.6253,-3.4903,0.0,0.0,0.0,0.0,0.0,0.0,0.0,0.0,0.0,0.0,0.0,0.0,0.0,0.0,0.0,0.0,0.0,0.0,0.0,0.0,0.0,0.0,0.0,0.0,0.0,0.0,-3.2854,-3.3049,-3.3177,0.0,0.0,0.0,0.0,0.0,0.0,0.0,0.0,0.0,0.0,-4.5777,-4.7972,-4.8145,-4.948,-5.0211,-4.9737,-4.9159,-4.8562,-4.8001,-4.7143,-4.5659,0.0,0.0,0.0,0.0,0.0,0.0,0.0,0.0,0.0,0.0,0.0,0.0,0.0,0.0,0.0,0.0,0.0,0.0,0.0,0.0,0.0,0.0,0.0,0.0,0.0,0.0,0.0,-3.1285,-3.0487,0.0,0.0,0.0,0.0,0.0,0.0,0.0,0.0,0.0,0.0,0.0,-3.0587,-3.1398,0.0,0.0,0.0,0.0,0.0,0.0,0.0,0.0,0.0,0.0,0.0,0.0,-3.2955,-3.4514,-3.5644,-3.6678,-3.769,-3.8432,-3.8603,-3.8232,-3.7291,-3.5697,-3.3368,0.0,0.0,0.0,0.0,0.0,0.0,0.0,0.0,0.0,0.0,0.0,0.0,0.0,0.0,0.0,0.0,0.0,0.0,0.0,0.0,0.0,0.0,0.0,0.0,0.0,-3.3568,0.0,0.0,0.0,0.0,0.0,0.0,0.0,0.0,0.0,0.0,0.0,-4.0904,-4.3361,-4.4986,-4.596,-4.6003,-4.7388,-4.8081,0.0,0.0,0.0,0.0,0.0,0.0,0.0,0.0,0.0,0.0,0.0,0.0,0.0,0.0,-4.4193,-4.1399,-4.0858,-4.0993,-4.1332,0.0,0.0,0.0,0.0,0.0,0.0,0.0,0.0,0.0,0.0,0.0,0.0,0.0,0.0,-3.1293,0.0,-3.0241,0.0,0.0,0.0,0.0,0.0,0.0,0.0,0.0,-3.0586,-3.0872,-3.1216,-3.1569,-3.1793,0.0,-3.2123,-3.2339,0.0,0.0,0.0,0.0,0.0,0.0,0.0,0.0,-3.2998,-3.4478,-3.5039,-3.5819,-3.6824,-3.7388,-3.7584,-3.7412,-3.6743,-3.5404,-3.338,-3.2442,-3.1408,0.0,0.0,0.0,0.0,0.0,0.0,0.0,0.0,0.0,0.0,0.0,0.0,0.0,0.0,0.0,0.0,0.0,0.0,0.0,0.0,0.0,0.0,0.0,-3.3269,0.0,0.0,0.0,0.0,0.0,0.0,0.0,0.0,0.0,-4.0132,-4.0607,-4.1744,-4.4057,-4.4674,-4.4879,-4.4879,0.0,0.0,0.0,0.0,0.0,0.0,0.0,-4.4917,-4.4569,-4.4324,-4.4421,-4.5119,-4.5521,-4.5848,-4.6025,0.0,0.0,-4.274,-4.2283,-4.2393,-4.2739,-4.3246,-4.3844,-4.4627,-4.5192,-4.5467,0.0,0.0,0.0,0.0,0.0,0.0,0.0,0.0,-3.02,-3.0879,0.0,-3.0222,0.0,0.0,0.0,0.0,0.0,-3.0464,0.0,0.0,-3.0623,-3.094,-3.1683,-3.2055,-3.2675,-3.3496,-3.4868,-3.4454,-3.2446,-3.1548,0.0,0.0,0.0,0.0,0.0,0.0,-3.302,-3.3982,-3.4535,-3.521,-3.6013,-3.6524,-3.6548,-3.616,-3.579,-3.5376,-3.4823,-3.4222,-3.3308,-3.1813,-3.0206,0.0,0.0,0.0,0.0,0.0,0.0,0.0,0.0,0.0,0.0,0.0,0.0,0.0,0.0,0.0,0.0,0.0,0.0,0.0,0.0,-3.1626,0.0,0.0,0.0,0.0,0.0,0.0,0.0,0.0,0.0,0.0,-4.0191,-4.2341,-4.4211,-4.4792,0.0,0.0,0.0,0.0,-4.4545,-4.5289,-4.5532,-4.5688,-4.5818,-4.623,-4.5905,-4.4093,0.0,0.0,-4.3753,-4.3226,-4.3501,-4.477,-4.4731,-4.4397,-4.4574,-4.4558,-4.4683,-4.4683,-4.4713,-4.5017,-4.5647,-4.5903,-4.5954,-3.4741,0.0,0.0,0.0,0.0,-3.2873,-3.3132,-3.328,-3.3169,-3.2726,-3.2041,-3.1191,0.0,0.0,0.0,0.0,0.0,0.0,-3.073,-3.1058,-3.1015,-3.1158,-3.1514,-3.1589,-3.1628,-3.1615,-3.1761,-3.1442,-3.0741,-3.0701,-3.0714,-3.0956,0.0,0.0,0.0,0.0,-3.338,-3.3958,-3.415,-3.4535,-3.5137,-3.5668,-3.5861,-3.574,-3.5667,-3.5376,-3.4799,-3.427,-3.3669,-3.2851,-3.1693,0.0,0.0,0.0,0.0,0.0,0.0,0.0,0.0,0.0,0.0,0.0,0.0,0.0,0.0,0.0,0.0,0.0,0.0,0.0,-3.1406,-3.1724,-3.2181,0.0,0.0,0.0,0.0,0.0,0.0,0.0,0.0,0.0,-4.173,-4.2936,-4.395,0.0,0.0,-4.543,-4.4966,-4.5186,-4.5332,-4.5096,-4.4722,0.0,-4.3908,-4.4098,-4.4018,-4.3326,-4.4227,-4.4871,-4.4216,-4.4488,-4.496,-4.5491,-4.507,-4.4562,-4.4256,-4.4887,-4.5421,-4.5516,-4.5881,-4.6311,-4.6543,-4.6974,-4.7204,-3.7429,-3.587,-3.4752,-3.4422,-3.4678,-3.4917,-3.5045,-3.51,-3.4788,-3.4458,-3.4073,-3.29,-3.1828,-3.0951,-2.9989,0.0,0.0,0.0,-3.1176,-3.1764,-3.1598,-3.1782,-3.2294,-3.2019,-3.1744,-3.157,-3.1657,-3.1215,-3.0346,-3.1028,-3.12,-3.0998,0.0,0.0,-3.1476,-3.2436,-3.3096,-3.3523,-3.4148,-3.4581,-3.4775,-3.5136,-3.54,-3.5617,-3.5617,-3.5569,-3.5449,-3.4895,-3.4438,-3.3909,-3.2683,-3.1601,0.0,0.0,0.0,0.0,0.0,0.0,0.0,0.0,0.0,0.0,0.0,-2.7873,-2.8667,0.0,0.0,0.0,-3.034,-3.082,-3.1352,-3.1888,0.0,0.0,0.0,0.0,0.0,0.0,0.0,-3.6985,-3.9043,-4.0729,-4.1599,-4.275,-4.3879,-4.5035,-4.5306,-4.5296,-4.5152,0.0,-4.5082,-4.4908,-4.4385,-4.3747,-4.3108,-4.3336,-4.3443,-4.3047,-4.3747,-4.4241,-4.3897,-4.4077,-4.4427,-4.4913,-4.468,-4.4288,-4.4266,-4.4938,-4.5536,-4.5669,-4.632,-4.6974,-4.7239,-4.7669,-4.7802,-3.974,-3.9245,-3.7778,-3.7099,-3.6895,-3.6971,-3.6787,-3.6402,-3.5687,-3.6127,-3.7228,-3.5064,-3.4165,-3.4202,-3.2038,0.0,-3.1047,-3.1396,-3.1983,-3.2716,-3.2313,-3.2698,-3.3707,-3.2955,-3.2606,-3.2655,-3.3459,-3.2848,-3.1027,-3.2047,-3.2007,-3.084,-3.0533,-3.0265,-3.013,-3.1534,-3.2437,-3.2718,-3.4133,-3.471,-3.441,-3.441,-3.4674,-3.5079,-3.5103,-3.5342,-3.5842,-3.5365,-3.4912,-3.4435,-3.3028,-3.2001,-3.1383,0.0,0.0,0.0,0.0,0.0,0.0,0.0,0.0,0.0,0.0,0.0,0.0,0.0,0.0,0.0,-2.9629,0.0,-3.0951,-3.2241,0.0,0.0,0.0,-3.483,-3.5742,-3.6399,-3.7195,-3.8161,0.0,0.0,-4.0239,-4.186,-4.3732,-4.5487,-4.5115,-4.4841,-4.5417,-4.4687,-4.4284,-4.4733,-4.4342,-4.3733,-4.3211,-4.3499,-4.36,-4.3005,-4.2905,-4.2947,-4.2889,-4.2582,-4.2726,-4.3764,-4.3698,-4.3572,-4.4387,-4.4533,-4.4851,-4.4944,-4.5993,-4.7043,-4.7605,-4.7869,-4.7802,-4.1005,-4.0602,-4.0217,-3.9336,-3.8139,-3.8139,-3.8328,-3.8493,-3.831,-3.7943,-3.7356,-3.6494,-3.532,-3.3908,-3.3358,-3.3101,-3.3101,-3.3193,-3.3505,-3.3908,-3.3248,-3.3083,-3.334,-3.2845,-3.2606,-3.257,-3.2514,-3.2218,-3.1689,-3.1402,-3.0978,-3.0363,-2.9691,-2.9973,-3.1284,-3.1721,-3.2051,-3.2114,-3.2193,-3.1877,-3.1246,-3.1224,-3.1142,-3.0948,-3.0948,-3.1191,-3.1705,-3.1412,-3.1278,-3.1329,-3.0426,-2.9581,-2.8866,-2.8409,0.0,0.0,0.0,0.0,0.0,0.0,0.0,0.0,0.0,-2.945,-2.8862,0.0,-3.0241,0.0,-3.0817,-3.1573,-3.2082,-3.335,0.0,0.0,-3.616,-3.7066,-3.6333,-3.7044,-3.7589,-3.7463,-3.8467,-3.9297,-3.9702,-4.0865,-4.1868,-4.2346,-4.389,-4.5058,-4.5173,-4.5001,-4.4703,-4.4375,-4.3962,-4.3661,-4.3401,-4.3313,-4.3021,-4.2411,-4.2324,-4.2324,-4.2295,-4.2208,-4.2233,-4.2556,-4.2509,-4.235,-4.209,-4.2608,-4.2917,-4.2806,-4.4658,-4.6635,-4.683,-4.7438,-4.7934,-3.8234,-3.7981,-3.887,-3.8653,-3.793,-3.8833,-3.93,-3.9483,-3.9318,-3.875,-3.7924,-3.7356,-3.6384,-3.5155,-3.4788,-3.4623,-3.4605,-3.444,-3.4367,-3.4367,-3.3945,-3.3651,-3.3468,-3.3248,-3.3046,-3.2863,-3.2643,-3.2368,-3.2001,-3.1543,-3.1121,-3.0717,-2.9929,-3.0046,-3.0991,-3.1095,-3.1031,-3.0709,-3.0895,-3.0849,-3.0368,-3.0205,-2.9999,-2.9764,-2.9599,-2.9621,-2.9927,-2.9667,-2.9732,-3.0241,-2.9657,-2.9105,-2.8634,-2.8095,-2.7656,0.0,0.0,0.0,0.0,0.0,0.0,0.0,0.0,0.0,0.0,0.0,-3.0775,-3.1284,-3.1964,-3.2673,-3.3458,-3.4534,-3.526,-3.5324,-3.6653,-3.732,-3.6802,-3.7258,-3.7606,-3.7573,-3.809,-3.8551,-3.8871,-3.9827,-4.0516,-4.0516,-4.2133,-4.3606,-4.4172,-4.4514,-4.4567,-4.4224,-4.3786,-4.3242,-4.2754,-4.2437,-4.2218,-4.1984,-4.1939,-4.1939,-4.2092,-4.2092,-4.2005,-4.1744,-4.1657,-4.1424,-4.0826,-4.1087,-4.1338,-4.139,-4.2744,-4.4409,-4.5312,-4.5989,-4.6487,-3.4238,-3.4211,-3.6086,-3.6896,-3.7003,-3.8974,-3.9759,-3.9805,-3.9402,-3.9098,-3.8676,-3.7906,-3.7356,-3.6934,-3.6237,-3.587,-3.576,-3.5357,-3.4954,-3.4568,-3.444,-3.422,-3.389,-3.3835,-3.3633,-3.3303,-3.3248,-3.2863,-3.2166,-3.2056,-3.1818,-3.1433,-3.0626,-3.0204,-3.0211,-3.0117,-2.9731,-2.9098,-2.9872,-3.0224,-3.0099,-2.9752,-2.953,-2.9404,-2.9076,-2.8894,-2.8831,-2.8564,-2.8785,-2.9456,-2.9198,-2.8978,-2.8819,-2.7736,-2.721,0.0,-2.6384,0.0,0.0,0.0,0.0,0.0,0.0,0.0,0.0,-3.0384,-3.1199,-3.2676,-3.3263,-3.3897,-3.4812,-3.5608,-3.6046,-3.6046,-3.6323,-3.6692,-3.72,-3.7248,-3.7416,-3.7926,-3.7974,-3.7974,-3.808,-3.8844,-3.9415,-3.9494,-4.0261,-4.1337,-4.2517,-4.3426,-4.3902,-4.384,-4.3535,-4.2853,-4.1724,-4.1495,-4.1537,-4.1475,-4.1472,-4.1641,-4.1691,-4.1732,-4.1628,-4.1105,-4.0989,-4.0757,-4.0118,-4.0002,-3.9983,-3.9916,-4.0618,-4.1797,-4.3406,-4.4186,-4.4525,-3.4326,-3.4211,-3.6086,-3.6896,-3.7019,-3.8586,-3.9265,-3.9313,-3.9577,-3.9502,-3.9098,-3.8621,-3.8181,-3.7778,-3.7631,-3.7209,-3.6586,-3.6182,-3.576,-3.5375,-3.4715,-3.4367,-3.4275,-3.3963,-3.378,-3.3688,-3.3376,-3.3138,-3.2991,-3.2331,-3.1964,-3.1854,-3.0754,-3.0204,-3.0149,0.0,0.0,0.0,-2.807,-2.7538,-2.693,-2.6816,-2.6456,-2.5812,-2.5718,0.0,-2.5218,-2.5576,-2.5657,-2.5399,-2.5739,0.0,0.0,0.0,0.0,0.0,0.0,0.0,0.0,0.0,0.0,0.0,-2.8606,-2.9316,-2.9724,-3.1727,-3.356,-3.4859,-3.5071,-3.5211,-3.5423,-3.5996,-3.6355,-3.6355,-3.6708,-3.7098,-3.7482,-3.7536,-3.7636,-3.7974,-3.7974,-3.7974,-3.8027,-3.8185,-3.8344,-3.8425,-3.8811,-3.9449,-4.016,-4.1848,-4.2677,-4.1966,-4.2317,-4.2306,-4.091,-4.1411,-4.1481,-4.0478,-4.0514,-4.0752,-4.0389,-4.0434,-4.0495,-4.0263,-4.0292,-4.0089,-3.945,-3.9363,-3.916,-3.8667,-3.8768,-3.949,-4.1626,-4.2745,-4.3378,-3.0944,0.0,-3.2661,-3.3453,0.0,-3.5285,-3.5824,-3.5792,-3.8163,-3.896,-3.8581,-3.8184,-3.7878,-3.7661,-3.7517,-3.7195,-3.6794,-3.6419,-3.5889,-3.5302,-3.4697,-3.4202,-3.3817,-3.3413,-3.3211,-3.3211,-3.301,-3.2918,-3.29,-3.2496,-3.2203,-3.2001,-3.1176,-3.0681,-3.0461,-2.9489,-2.8792,-2.8407,-2.7783,-2.7178,-2.6627,-2.6223,-2.5819,-2.5381,-2.5179,0.0,0.0,0.0,0.0,0.0,0.0,0.0,0.0,0.0,0.0,-2.6385,-2.6904,-2.7162,-2.7059,-2.6865,-2.6846,-2.7111,-2.8137,-2.9529,-3.1251,-3.317,-3.4606,-3.5428,-3.5573,-3.5666,-3.5922,-3.6284,-3.6554,-3.6554,-3.6871,-3.7197,-3.7304,-3.7489,-3.7649,-3.7785,-3.7945,-3.7974,-3.7974,-3.7974,-3.7974,-3.8027,-3.8206,-3.8275,-3.8234,-3.9816,-4.0787,-4.0101,-4.0841,-4.113,-4.0247,-4.076,-4.1156,-4.0146,-4.0171,-4.0208,-3.9757,-3.9801,-3.9787,-3.9208,-3.9083,-3.8899,-3.8028,-3.8028,-3.8144,-3.7883,-3.7999,-3.8498,-3.9772,-4.0716,-4.1507,-2.7461,-2.7208,-2.9066,-2.9949,-3.0012,-3.1945,-3.2498,-3.2337,0.0,0.0,0.0,-3.7409,-3.7365,-3.7374,-3.7012,-3.679,-3.6682,-3.6192,-3.5631,-3.5012,-3.4447,-3.3845,-3.3207,-3.2733,-3.246,-3.2387,-3.2405,-3.2405,-3.2405,-3.2399,-3.2265,-3.1935,-3.1524,-3.1084,-3.0644,-2.9764,-2.9067,-2.8608,-2.804,-2.762,-2.7178,-2.6591,-2.6168,-2.6021,-2.569,-2.5488,-2.5414,-2.5124,-2.5149,-2.5484,-2.6056,-2.6287,-2.6129,-2.6968,-2.7343,-2.7124,-2.7141,-2.7141,-2.7068,-2.6774,-2.6719,-2.6956,-2.7841,-2.9509,-3.2352,-3.3718,-3.4728,-3.5207,-3.539,-3.5726,-3.6263,-3.6402,-3.6541,-3.6634,-3.682,-3.6958,-3.7012,-3.7251,-3.7435,-3.7596,-3.7785,-3.7921,-3.7974,-3.7974,-3.7974,-3.795,-3.7882,-3.7469,-3.6785,-3.7962,-3.9116,-3.895,-3.9593,-3.9708,-3.9104,-3.9492,-3.9938,-3.9354,-3.9451,-3.9545,-3.9275,-3.9287,-3.8974,-3.8141,-3.8005,-3.7647,-3.6794,-3.7084,-3.7353,-3.7331,-3.7796,-3.8202,-3.8277,-3.8841,-3.9565,-2.7304,-2.7208,-2.9053,-2.9949,-3.0025,-3.1926,-3.2456,-3.2236,-3.4203,-3.5048,-3.5271,-3.6724,-3.7365,-3.741,-3.6983,-3.6592,-3.6201,-3.5606,-3.5178,-3.4925,-3.391,-3.3429,-3.3215,-3.2503,-3.2055,-3.1769,-3.1751,-3.1751,-3.1698,-3.1709,-3.1661,-3.1534,-3.1121,-3.0699,-3.0332,-3.0442,-3.0167,-2.9397,-2.8315,-2.7581,-2.7196,-2.7068,-2.6719,-2.6058,-2.5966,-2.5764,-2.5451,-2.5708,-2.5706,-2.5441,-2.6125,-2.6437,-2.6051,-2.6826,-2.7068,-2.6701,-2.6976,-2.7031,-2.6719,-2.6628,-2.7157,-2.8334,-2.8754,-2.9134,-2.9621,-3.1902,-3.3546,-3.4117,-3.4885,-3.5726,-3.6217,-3.5887,-3.5872,-3.6317,-3.6363,-3.6495,-3.6688,-3.682,-3.7036,-3.7489,-3.7649,-3.7732,-3.7921,-3.7974,-3.7974,-3.7902,-3.7493,-3.6916,-3.6201,-3.6726,-3.7789,-3.8491,-3.8792,-3.8392,-3.7637,-3.7708,-3.7989,-3.7135,-3.7646,-3.7938,-3.7726,-3.7831,-3.7872,-3.7691,-3.7644,-3.7404,-3.6893,-3.7391,-3.7486,-3.7345,-3.7701,-3.8173,-3.8115,-3.8273,-3.845,-2.7558,-2.7505,-2.8123,-2.8435,-2.8562,-2.9311,-2.9432,-2.9317,-3.0936,-3.2174,-3.3119,-3.4768,-3.544,-3.5472,-3.6154,-3.6254,-3.585,-3.5303,-3.49,-3.4617,-3.3499,-3.2967,-3.2879,-3.1939,-3.1371,-3.1194,-3.0999,-3.1083,-3.1243,-3.1216,-3.1318,-3.1497,-3.1486,-3.1037,-3.0356,-3.0856,-3.0607,-2.9659,-2.925,-2.8682,-2.7856,-2.7618,-2.727,-2.6628,-2.6682,-2.6591,-2.6371,-2.6793,-2.6811,-2.6425,-2.6921,-2.7141,-2.7032,-2.7508,-2.7856,-2.7875,-2.7856,-2.7765,-2.7581,-2.716,-2.7105,-2.7561,-2.7859,-2.8047,-2.8047,-3.0595,-3.2286,-3.2553,-3.3009,-3.3768,-3.4853,-3.4751,-3.5034,-3.6231,-3.6254,-3.6332,-3.6495,-3.6603,-3.6796,-3.7089,-3.7251,-3.7465,-3.7732,-3.7809,-3.7695,-3.7565,-3.6892,-3.6146,-3.5689,-3.5746,-3.6085,-3.6541,-3.7039,-3.7143,-3.6657,-3.6981,-3.6988,-3.6396,-3.6353,-3.6439,-3.6408,-3.6626,-3.676,-3.6902,-3.7063,-3.6853,-3.6421,-3.6794,-3.6962,-3.6822,-3.7407,-3.7763,-3.744,-3.7447,-3.7709,-2.7775,-2.7679,-2.7292,-2.7232,-2.7389,-2.7148,-2.6918,-2.6815,-2.8207,-2.948,-3.0705,-3.2393,-3.3187,-3.3359,-3.4598,-3.5128,-3.4847,-3.458,-3.4338,-3.4039,-3.2966,-3.2491,-3.2333,-3.1384,-3.0874,-3.0751,-3.0417,-3.0465,-3.0712,-3.0725,-3.0933,-3.1371,-3.1747,-3.1414,-3.0445,-3.0972,-3.0765,-2.9763,-3.0043,-2.9648,-2.8443,-2.8077,-2.7767,-2.7399,-2.7398,-2.7416,-2.7399,-2.7748,-2.7728,-2.7361,-2.7691,-2.7969,-2.793,-2.8297,-2.8572,-2.8682,-2.8425,-2.8205,-2.8077,-2.7453,-2.6995,-2.6885,-2.705,-2.7215,-2.7493,-2.928,-3.0791,-3.1072,-3.1464,-3.2201,-3.3353,-3.3661,-3.4304,-3.5649,-3.6054,-3.6194,-3.6309,-3.6495,-3.6634,-3.6688,-3.685,-3.7143,-3.7358,-3.7394,-3.7191,-3.6857,-3.6093,-3.5565,-3.5519,-3.5111,-3.4799,-3.492,-3.5475,-3.5831,-3.5852,-3.6012,-3.6019,-3.5624,-3.5392,-3.5362,-3.5541,-3.5791,-3.5926,-3.6168,-3.6441,-3.6314,-3.578,-3.6324,-3.6653,-3.6495,-3.7172,-3.765,-3.7179,-3.6954,-3.7273,-2.7679,-2.7473,-2.7401,-2.7401,-2.7389,-2.7148,-2.7027,-2.7003,-2.7172,-2.725,-2.7823,-3.0207,-3.144,-3.1559,-3.2323,-3.2666,-3.2664,-3.2826,-3.3054,-3.3266,-3.2234,-3.1718,-3.17,-3.1253,-3.0789,-3.0496,-3.0152,-3.0047,-3.0064,-3.0035,-3.0281,-3.0915,-3.1354,-3.13,-3.0857,-3.0905,-3.0597,-2.9796,-3.0085,-2.9676,-2.8517,-2.837,-2.8132,-2.7785,-2.8095,-2.8095,-2.7783,-2.8113,-2.815,-2.7783,-2.8113,-2.8333,-2.837,-2.87,-2.8627,-2.7985,-2.7914,-2.7673,-2.7325,-2.6885,-2.694,-2.7601,-2.7343,-2.7361,-2.773,-2.8031,-2.8823,-3.0037,-3.1228,-3.1911,-3.2663,-3.2831,-3.3432,-3.4604,-3.5224,-3.5772,-3.6171,-3.6332,-3.644,-3.6712,-3.6665,-3.682,-3.7042,-3.6844,-3.6454,-3.6216,-3.5673,-3.532,-3.5397,-3.5111,-3.4727,-3.4751,-3.492,-3.4752,-3.4509,-3.422,-3.4315,-3.4109,-3.4413,-3.4659,-3.5003,-3.546,-3.5834,-3.5698,-3.6004,-3.6089,-3.5762,-3.6119,-3.6977,-3.6504,-3.7005,-3.7852,-3.7808,-3.7208,-3.6976,-2.7944,-2.8065,-2.7449,-2.728,-2.7413,-2.7461,-2.7401,-2.7268,-2.7268,-2.7172,-2.7045,-2.79,-2.8804,-2.9882,-3.0963,-3.1214,-3.0885,-3.1708,-3.1972,-3.1844,-3.2081,-3.2107,-3.1867,-3.1508,-3.1148,-3.0772,-3.0395,-3.0104,-2.9932,-3.0083,-3.0217,-3.0418,-3.116,-3.1228,-3.0649,-3.0862,-3.0603,-2.9875,-2.9966,-2.9601,-2.8936,-2.9034,-2.9012,-2.8924,-2.8993,-2.9071,-2.8865,-2.9012,-2.9012,-2.8888,-2.8773,-2.8737,-2.8737,-2.8902,-2.8828,-2.848,-2.8079,-2.7656,-2.7196,-2.6811,-2.694,-2.7767,-2.7618,-2.7691,-2.8095,-2.8352,-2.8787,-2.931,-2.947,-2.9904,-3.1034,-3.165,-3.2532,-3.3781,-3.4665,-3.5145,-3.5359,-3.5657,-3.5872,-3.6002,-3.631,-3.6549,-3.675,-3.659,-3.6232,-3.5868,-3.5399,-3.5146,-3.4986,-3.4797,-3.4655,-3.439,-3.4318,-3.4246,-3.3958,-3.3477,-3.3179,-3.3088,-3.3179,-3.3538,-3.4243,-3.4787,-3.5175,-3.5426,-3.5808,-3.5817,-3.5228,-3.5859,-3.6626,-3.622,-3.6164,-3.6822,-3.7652,-3.7247,-3.7234,-2.8029,-2.8222,-2.7401,-2.7184,-2.7437,-2.763,-2.7546,-2.7341,-2.7389,-2.7268,-2.6991,-2.646,-2.6909,-2.8191,-2.9285,-2.9482,-2.9215,-3.0227,-3.0515,-3.0262,-3.1425,-3.1862,-3.161,-3.1861,-3.1679,-3.1319,-3.0943,-3.0498,-3.0155,-3.0532,-3.0515,-3.0291,-3.0977,-3.1045,-3.0368,-3.0548,-3.0417,-2.9889,-2.9795,-2.9754,-2.9648,-2.9708,-2.9665,-2.9392,-2.9617,-2.9696,-2.9477,-2.98,-2.98,-2.958,-2.9287,-2.9085,-2.8975,-2.8975,-2.8938,-2.8773,-2.8226,-2.7748,-2.7508,-2.7141,-2.7196,-2.7838,-2.793,-2.8058,-2.8388,-2.8755,-2.8975,-2.8979,-2.8352,-2.8631,-2.9661,-3.0561,-3.154,-3.2746,-3.3584,-3.4115,-3.4637,-3.5038,-3.5372,-3.5642,-3.6125,-3.6317,-3.6318,-3.6231,-3.5964,-3.577,-3.529,-3.5044,-3.4811,-3.4818,-3.4534,-3.4246,-3.4006,-3.3765,-3.3574,-3.3092,-3.2515,-3.2394,-3.2533,-3.305,-3.3444,-3.3954,-3.4193,-3.4374,-3.5086,-3.5329,-3.4813,-3.5305,-3.595,-3.5276,-3.5168,-3.5789,-3.6908,-3.6732,-3.6958,-2.7824,-2.7775,-2.7268,-2.7232,-2.7437,-2.7473,-2.7317,-2.7148,-2.7329,-2.7268,-2.6954,-2.646,-2.6218,-2.6472,-2.7077,-2.7255,-2.7351,-2.8133,-2.8567,-2.8588,-2.9725,-3.0299,-3.0431,-3.1889,-3.2415,-3.1936,-3.1679,-3.1148,-3.0515,-3.1114,-3.1131,-3.0463,-3.0789,-3.0635,-3.0051,-2.9997,-2.9931,-2.9877,-2.9848,-3.0118,-3.0641,-3.0412,-2.9722,-2.8933,-2.9708,-2.9914,-2.939,-3.0145,-3.0369,-2.9599,-2.9562,-2.9379,-2.903,-2.8975,-2.8769,-2.8385,-2.8022,-2.7948,-2.8129,-2.7875,-2.7875,-2.8278,-2.8333,-2.837,-2.8462,-2.8773,-2.8975,-2.8975,-2.8608,-2.8634,-2.9031,-2.9738,-3.0307,-3.0891,-3.1676,-3.2767,-3.4207,-3.4384,-3.509,-3.5813,-3.6185,-3.6171,-3.5734,-3.5543,-3.5756,-3.5683,-3.5114,-3.4778,-3.5372,-3.5001,-3.4626,-3.4438,-3.3911,-3.3188,-3.2661,-3.2466,-3.2202,-3.213,-3.2442,-3.3042,-3.3068,-3.3138,-3.3228,-3.3363,-3.4123,-3.4449,-3.4155,-3.4331,-3.4826,-3.4665,-3.4299,-3.4901,-3.5946,-3.5703,-3.5975,-2.7956,-2.7836,-2.798,-2.8005,-2.792,-2.792,-2.7775,-2.7534,-2.7449,-2.7172,-2.6761,-2.6387,-2.6134,-2.5928,-2.5796,-2.5795,-2.5911,-2.6961,-2.7327,-2.719,-2.8406,-2.9333,-2.9923,-3.0852,-3.1459,-3.1813,-3.2107,-3.1885,-3.1217,-3.1217,-3.0943,-3.0532,-3.0566,-3.0378,-2.9932,-2.9641,-2.9641,-2.9864,-2.9877,-3.003,-3.0271,-3.0163,-2.9574,-2.8824,-2.957,-2.9966,-2.9931,-2.9861,-2.9636,-2.9349,-2.9349,-2.8982,-2.8469,-2.8379,-2.8199,-2.7781,-2.7602,-2.7584,-2.7732,-2.76,-2.7788,-2.8387,-2.8418,-2.8517,-2.8737,-2.8902,-2.8975,-2.8957,-2.8865,-2.8773,-2.8695,-2.9013,-2.9303,-2.9587,-3.0394,-3.1112,-3.1761,-3.2944,-3.4098,-3.4432,-3.531,-3.6185,-3.5894,-3.5979,-3.5918,-3.5726,-3.5439,-3.537,-3.5343,-3.4957,-3.4565,-3.4286,-3.3766,-3.3007,-3.206,-3.1974,-3.1913,-3.1985,-3.2247,-3.2539,-3.2731,-3.3044,-3.316,-3.3085,-3.3594,-3.3759,-3.3642,-3.377,-3.4168,-3.426,-3.3934,-3.3897,-3.4885,-3.4754,-3.533,-2.8053,-2.7884,-2.821,-2.8198,-2.798,-2.8041,-2.7872,-2.757,-2.7461,-2.7172,-2.6773,-2.6484,-2.6206,-2.5916,-2.5494,-2.524,-2.5216,-2.5931,-2.5976,-2.5698,-2.7033,-2.798,-2.8672,-2.9837,-3.0713,-3.1415,-3.2385,-3.2484,-3.1816,-3.1628,-3.1234,-3.0669,-3.0498,-3.0241,-2.9898,-2.9504,-2.9504,-2.983,-2.9898,-2.995,-3.0035,-3.0069,-2.983,-2.945,-2.9635,-2.9872,-3.0054,-2.9729,-2.9509,-2.9403,-2.9367,-2.9004,-2.842,-2.8225,-2.8108,-2.78,-2.77,-2.757,-2.7612,-2.7674,-2.7957,-2.8444,-2.8578,-2.8718,-2.8957,-2.8975,-2.8975,-2.8975,-2.8847,-2.8663,-2.8526,-2.8446,-2.8458,-2.8569,-2.9274,-2.9893,-3.0086,-3.1657,-3.2683,-3.3157,-3.3978,-3.4845,-3.5382,-3.5278,-3.5213,-3.5184,-3.531,-3.5115,-3.4969,-3.482,-3.4527,-3.4085,-3.3781,-3.3148,-3.2347,-3.1988,-3.1738,-3.1759,-3.2037,-3.2322,-3.2418,-3.2779,-3.2947,-3.2875,-3.2947,-3.3092,-3.325,-3.3322,-3.3507,-3.3725,-3.336,-3.3038,-3.3649,-3.4001,-3.4568,-2.8065,-2.7872,-2.7836,-2.7787,-2.7642,-2.7775,-2.7534,-2.7232,-2.7304,-2.7172,-2.6846,-2.6689,-2.6387,-2.6158,-2.5844,-2.5651,-2.5385,-2.5106,-2.4812,-2.467,-2.5711,-2.6398,-2.6748,-2.8897,-3.0269,-3.0743,-3.2417,-3.2748,-3.1989,-3.236,-3.2073,-3.1131,-3.0686,-3.0395,-2.995,-2.9624,-2.9556,-2.9898,-2.9967,-3.0069,-3.031,-3.0395,-3.0276,-3.0292,-3.0085,-2.9754,-2.9439,-2.9989,-3.0083,-2.9765,-2.9729,-2.9535,-2.9047,-2.8659,-2.8526,-2.8359,-2.8154,-2.796,-2.7942,-2.8146,-2.8289,-2.8571,-2.8815,-2.8957,-2.9048,-2.9012,-2.8975,-2.8938,-2.87,-2.8443,-2.837,-2.8136,-2.788,-2.784,-2.8349,-2.9031,-2.9792,-3.0507,-3.1303,-3.2308,-3.2706,-3.2614,-3.3333,-3.353,-3.3634,-3.417,-3.4184,-3.409,-3.4228,-3.4267,-3.4249,-3.4176,-3.3822,-3.3233,-3.2676,-3.2089,-3.1709,-3.1466,-3.1926,-3.2229,-3.2082,-3.225,-3.2343,-3.2319,-3.2587,-3.2755,-3.2731,-3.2852,-3.2713,-3.2793,-3.2377,-3.2356,-3.2847,-3.3348,-3.3649,-2.8439,-2.8367,-2.8367,-2.8331,-2.821,-2.7944,-2.7703,-2.751,-2.7111,-2.6725,-2.6484,-2.6387,-2.6206,-2.5989,-2.5856,-2.5784,-2.5675,-2.5337,-2.5035,-2.4829,-2.4881,-2.535,-2.6267,-2.7162,-2.8322,-2.9709,-3.1191,-3.1761,-3.1684,-3.2541,-3.2518,-3.1559,-3.1285,-3.1028,-3.0652,-3.0069,-3.0018,-3.0532,-3.0155,-3.0069,-3.0395,-3.0361,-3.0361,-3.0344,-3.0326,-3.0188,-3.0049,-3.0062,-2.9868,-2.9488,-2.9713,-2.9574,-2.8933,-2.8276,-2.7947,-2.7895,-2.7583,-2.7375,-2.7435,-2.7677,-2.8084,-2.8485,-2.8601,-2.8919,-2.9305,-2.914,-2.8993,-2.8975,-2.8847,-2.8718,-2.8443,-2.8297,-2.7985,-2.7435,-2.7967,-2.8284,-2.854,-2.9545,-3.1003,-3.2276,-3.2478,-3.2517,-3.2448,-3.234,-3.2305,-3.2491,-3.2545,-3.2781,-3.3307,-3.3384,-3.3607,-3.3866,-3.3623,-3.3185,-3.2425,-3.2014,-3.1855,-3.1573,-3.1774,-3.1929,-3.1779,-3.1749,-3.1793,-3.1934,-3.2202,-3.2418,-3.244,-3.2343,-3.225,-3.213,-3.2063,-3.222,-3.2483,-3.2769,-3.3102,-2.8717,-2.8632,-2.862,-2.856,-2.8427,-2.7993,-2.7811,-2.7715,-2.7087,-2.6689,-2.6532,-2.6423,-2.617,-2.588,-2.5832,-2.5771,-2.5675,-2.5506,-2.5349,-2.5132,-2.4637,-2.4844,-2.5718,-2.6347,-2.7464,-2.9058,-3.0182,-3.0545,-3.05,-3.1896,-3.2185,-3.137,-3.1769,-3.1799,-3.1422,-3.0857,-3.0737,-3.0909,-3.0412,-3.0206,-3.031,-3.0361,-3.0498,-3.0635,-3.0772,-3.084,-3.084,-3.0617,-3.0206,-2.9676,-2.9641,-2.9419,-2.8956,-2.8408,-2.8049,-2.798,-2.7706,-2.745,-2.7374,-2.76,-2.7896,-2.8298,-2.8492,-2.8757,-2.9216,-2.9154,-2.8993,-2.8975,-2.8975,-2.8883,-2.8663,-2.8608,-2.8315,-2.7728,-2.8077,-2.8223,-2.812,-2.8934,-3.0007,-3.0857,-3.0891,-3.0897,-3.0994,-3.0695,-3.0751,-3.0776,-3.1063,-3.1316,-3.1838,-3.2126,-3.2463,-3.2699,-3.2419,-3.2075,-3.1937,-3.1844,-3.1905,-3.1785,-3.1666,-3.1565,-3.1416,-3.1523,-3.152,-3.1745,-3.1961,-3.2466,-3.2536,-3.2223,-3.2078,-3.191,-3.1958,-3.195,-3.216,-3.2333,-3.2572,-2.8837,-2.8632,-2.862,-2.8463,-2.821,-2.7932,-2.7787,-2.7691,-2.7196,-2.6918,-2.6858,-2.6629,-2.6315,-2.5928,-2.5892,-2.5808,-2.5566,-2.5566,-2.5518,-2.5361,-2.5023,-2.4924,-2.5025,-2.6095,-2.731,-2.841,-2.9238,-2.9355,-2.9203,-3.0821,-3.1244,-3.0644,-3.1523,-3.2312,-3.1722,-3.1602,-3.1177,-3.1079,-3.0669,-3.0344,-3.0361,-3.0361,-3.0566,-3.0909,-3.1217,-3.1388,-3.1354,-3.1302,-3.0909,-3.0035,-2.9573,-2.9333,-2.923,-2.8974,-2.87,-2.8648,-2.8391,-2.7963,-2.7751,-2.7798,-2.8035,-2.8228,-2.8435,-2.8715,-2.9118,-2.9161,-2.9048,-2.8993,-2.8975,-2.8975,-2.8938,-2.8938,-2.8737,-2.8498,-2.8388,-2.8498,-2.8883,-2.8979,-2.9294,-2.9124,-2.8431,-2.8238,-2.931,-2.8836,-2.8912,-2.9306,-2.9652,-2.9835,-3.0146,-3.0488,-3.0665,-3.0891,-3.1212,-3.1177,-3.1106,-3.1606,-3.1654,-3.1573,-3.1597,-3.1739,-3.1614,-3.1677,-3.1765,-3.1875,-3.1985,-3.2442,-3.2635,-3.2442,-3.2346,-3.2442,-3.2274,-3.191,-3.2006,-3.2346,-3.2512,-2.8693,-2.862,-2.862,-2.8463,-2.8186,-2.792,-2.7703,-2.7473,-2.6979,-2.6677,-2.6472,-2.6363,-2.6266,-2.6122,-2.6109,-2.6182,-2.6194,-2.6073,-2.5892,-2.5759,-2.582,-2.5433,-2.5083,-2.5541,-2.5995,-2.6377,-2.7765,-2.8289,-2.8112,-2.9688,-3.0171,-2.9498,-2.9987,-3.0623,-3.1173,-3.0534,-3.0805,-3.1483,-3.0805,-3.0395,-3.0378,-3.0361,-3.0463,-3.0583,-3.096,-3.1148,-3.1165,-3.1165,-3.0926,-3.0326,-2.9641,-2.9316,-2.9282,-2.8991,-2.8819,-2.8751,-2.8443,-2.8049,-2.7723,-2.7683,-2.7989,-2.8462,-2.8518,-2.8867,-2.9454,-2.9453,-2.9305,-2.9085,-2.8975,-2.8975,-2.8975,-2.8975,-2.8902,-2.8828,-2.859,-2.8572,-2.8883,-2.8975,-2.8975,-2.892,-2.8517,-2.8344,-2.8182,-2.7921,-2.758,-2.7701,-2.8109,-2.8523,-2.8908,-2.952,-2.9952,-3.0212,-3.0369,-3.0338,-3.0516,-3.109,-3.1337,-3.1263,-3.1566,-3.2177,-3.216,-3.2298,-3.2461,-3.2647,-3.25,-3.2809,-3.3021,-3.302,-3.3068,-3.2949,-3.2851,-3.2587,-3.2755,-3.3044,-3.302,-2.8717,-2.862,-2.862,-2.8524,-2.8331,-2.7968,-2.7787,-2.763,-2.7075,-2.6725,-2.6532,-2.6303,-2.6218,-2.6206,-2.6109,-2.6206,-2.6411,-2.6291,-2.6134,-2.6073,-2.6254,-2.6049,-2.5675,-2.5627,-2.5566,-2.5616,-2.6456,-2.683,-2.7091,-2.8494,-2.8893,-2.8787,-2.9172,-2.9898,-3.0173,-2.9854,-2.9931,-3.0916,-3.0518,-3.0246,-3.0634,-3.0498,-3.0549,-3.06,-3.0789,-3.0823,-3.096,-3.0874,-3.0532,-3.0035,-2.9676,-2.9487,-2.9316,-2.9128,-2.9008,-2.8991,-2.8785,-2.8511,-2.8152,-2.7963,-2.8157,-2.8535,-2.8587,-2.888,-2.9422,-2.956,-2.9252,-2.9287,-2.9104,-2.8993,-2.8975,-2.8975,-2.8975,-2.8938,-2.8773,-2.8737,-2.8975,-2.8975,-2.8975,-2.8883,-2.8627,-2.8242,-2.782,-2.7491,-2.7031,-2.6866,-2.7271,-2.7566,-2.7895,-2.8671,-2.9182,-2.9282,-2.9246,-2.9172,-2.928,-2.9837,-3.0575,-3.0592,-3.0917,-3.1681,-3.2167,-3.2369,-3.263,-3.27,-3.2888,-3.3076,-3.3266,-3.3361,-3.3194,-3.3146,-3.3239,-3.3308,-3.3332,-3.3477,-3.3477,-2.8837,-2.862,-2.862,-2.8608,-2.8487,-2.8065,-2.792,-2.7932,-2.7353,-2.7015,-2.6846,-2.646,-2.6315,-2.6254,-2.6073,-2.6037,-2.6291,-2.6315,-2.6339,-2.6387,-2.6544,-2.6484,-2.6194,-2.6025,-2.6013,-2.6037,-2.5699,-2.5785,-2.6339,-2.7375,-2.7635,-2.7662,-2.8827,-2.9334,-2.8979,-2.8842,-2.9264,-2.9769,-2.9566,-2.972,-3.0326,-3.0321,-3.0459,-3.0874,-3.084,-3.0823,-3.0909,-3.0754,-3.0309,-2.9487,-2.9744,-2.9676,-2.9419,-2.9367,-2.9299,-2.9265,-2.9196,-2.9042,-2.8785,-2.8408,-2.8374,-2.869,-2.8431,-2.8622,-2.9438,-2.9493,-2.9349,-2.9507,-2.9195,-2.9012,-2.8975,-2.8975,-2.8975,-2.8975,-2.8957,-2.8975,-2.8975,-2.8975,-2.8975,-2.8957,-2.8645,-2.8242,-2.7875,-2.749,-2.7141,-2.7141,-2.7361,-2.7622,-2.7846,-2.8369,-2.8406,-2.8089,-2.7994,-2.7826,-2.8093,-2.8437,-2.9258,-2.9808,-3.0078,-3.07,-3.1461,-3.1802,-3.2268,-3.2627,-3.3172,-3.3433,-3.3456,-3.3481,-3.3291,-3.3363,-3.3505,-3.348,-3.343,-3.367,-3.3766,-2.8681,-2.862,-2.862,-2.8487,-2.8294,-2.8162,-2.792,-2.7606,-2.7425,-2.7111,-2.6773,-2.6592,-2.6544,-2.6544,-2.6291,-2.6291,-2.6544,-2.6568,-2.6653,-2.6858,-2.6894,-2.6798,-2.658,-2.646,-2.6375,-2.6254,-2.6122,-2.6085,-2.626,-2.6449,-2.65,-2.6437,-2.6774,-2.7026,-2.7541,-2.7418,-2.7667,-2.8391,-2.8326,-2.8575,-2.9385,-2.9783,-3.0206,-3.0888,-3.1165,-3.1183,-3.1097,-3.1217,-3.0943,-3.0361,-3.0018,-2.9932,-2.9761,-2.9504,-2.9384,-2.935,-2.9333,-2.9162,-2.8854,-2.8717,-2.8682,-2.885,-2.8985,-2.9281,-2.9669,-2.9699,-2.956,-2.9556,-2.9232,-2.9085,-2.903,-2.8993,-2.8975,-2.8975,-2.8975,-2.8975,-2.8975,-2.8975,-2.8975,-2.8902,-2.8663,-2.8352,-2.826,-2.7875,-2.7636,-2.7581,-2.7691,-2.7893,-2.8058,-2.8281,-2.8095,-2.782,-2.7566,-2.7567,-2.7604,-2.7869,-2.8267,-2.8774,-2.9039,-2.9545,-3.0338,-3.1018,-3.1401,-3.245,-3.3684,-3.3632,-3.2876,-3.3366,-3.3154,-3.3449,-3.3646,-3.3553,-3.3553,-3.3839,-3.3791,-2.862,-2.862,-2.862,-2.8536,-2.8391,-2.8258,-2.8041,-2.7763,-2.751,-2.7268,-2.6991,-2.6773,-2.6773,-2.6966,-2.6629,-2.6629,-2.6894,-2.687,-2.6894,-2.7003,-2.7015,-2.6954,-2.6858,-2.6798,-2.6677,-2.6435,-2.6266,-2.6278,-2.6339,-2.6194,-2.6076,-2.5977,-2.5796,-2.5933,-2.6184,-2.6033,-2.6425,-2.7089,-2.7108,-2.7344,-2.8129,-2.9195,-3.0017,-3.0884,-3.1337,-3.1388,-3.108,-3.1183,-3.1165,-3.0926,-3.0617,-3.0326,-3.0155,-2.995,-2.9778,-2.9607,-2.959,-2.9402,-2.9128,-2.8905,-2.8922,-2.9282,-2.934,-2.96,-2.9907,-3.0017,-2.9942,-2.9875,-2.9696,-2.9507,-2.9287,-2.9048,-2.9012,-2.8975,-2.8993,-2.8993,-2.8993,-2.8993,-2.8975,-2.8957,-2.881,-2.859,-2.837,-2.8168,-2.7948,-2.7801,-2.8022,-2.8205,-2.8205,-2.8352,-2.8443,-2.8187,-2.7748,-2.7492,-2.7382,-2.7381,-2.7425,-2.7691,-2.7799,-2.8349,-2.9036,-2.9715,-3.0399,-3.144,-3.2404,-3.1971,-3.1476,-3.2174,-3.2705,-3.2742,-3.2853,-3.3226,-3.3499,-3.3432,-3.3339,-2.8681,-2.8669,-2.8644,-2.862,-2.8572,-2.8318,-2.8162,-2.8041,-2.763,-2.7401,-2.7353,-2.693,-2.7063,-2.7292,-2.6991,-2.7027,-2.7087,-2.6991,-2.6834,-2.7015,-2.7111,-2.7111,-2.7087,-2.7063,-2.6954,-2.6689,-2.652,-2.6532,-2.6532,-2.6291,-2.6254,-2.6206,-2.5805,-2.5701,-2.5519,-2.5277,-2.5455,-2.5974,-2.6003,-2.6394,-2.716,-2.8387,-2.9408,-3.0346,-3.0568,-3.0568,-3.0201,-3.0244,-3.0563,-3.124,-3.0935,-3.0735,-3.0617,-3.0429,-3.0326,-2.9984,-2.9967,-2.983,-2.959,-2.9333,-2.9384,-2.995,-2.9624,-2.9754,-3.0205,-3.0135,-3.0052,-3.0158,-3.0072,-2.9855,-2.9654,-2.936,-2.9177,-2.9177,-2.9159,-2.9104,-2.914,-2.9085,-2.8993,-2.8975,-2.892,-2.8792,-2.8663,-2.848,-2.8242,-2.8095,-2.8333,-2.848,-2.8462,-2.8443,-2.8535,-2.8443,-2.793,-2.7528,-2.7381,-2.7271,-2.725,-2.7212,-2.7084,-2.7463,-2.8018,-2.8262,-2.8953,-2.9859,-3.038,-3.0224,-3.0223,-3.0589,-3.1099,-3.1484,-3.1661,-3.1605,-3.2153,-3.2833,-3.2651,-2.8946,-2.8934,-2.8717,-2.862,-2.8584,-2.8331,-2.8101,-2.7848,-2.7582,-2.7425,-2.7401,-2.7329,-2.7413,-2.7582,-2.7449,-2.7148,-2.6906,-2.6689,-2.6701,-2.7027,-2.7208,-2.7292,-2.7304,-2.7256,-2.7172,-2.7027,-2.687,-2.687,-2.6918,-2.687,-2.6616,-2.6556,-2.6411,-2.6097,-2.5615,-2.5349,-2.5168,-2.5104,-2.5087,-2.566,-2.6507,-2.7351,-2.8325,-2.92,-2.9411,-2.9001,-2.8505,-2.8248,-2.8508,-2.9704,-2.9633,-3.0168,-3.0761,-3.0599,-3.0378,-3.0378,-3.0343,-3.0275,-3.0121,-3.0138,-3.0172,-3.0241,-3.0035,-2.9963,-3.0143,-2.9922,-2.9983,-3.0103,-3.0028,-2.9819,-3.0075,-2.969,-2.969,-2.9764,-2.9593,-2.9501,-2.9629,-2.9373,-2.8971,-2.8934,-2.8916,-2.8975,-2.8847,-2.8755,-2.8645,-2.8535,-2.8645,-2.8755,-2.8755,-2.8663,-2.8608,-2.8425,-2.8132,-2.771,-2.7381,-2.7307,-2.7253,-2.7234,-2.7142,-2.7068,-2.7324,-2.7011,-2.7479,-2.87,-2.9323,-2.9443,-2.9404,-2.9312,-2.9549,-3.0055,-2.9973,-2.9892,-3.0597,-3.1256,-3.0935,-2.9006,-2.8982,-2.8729,-2.862,-2.8596,-2.8487,-2.827,-2.7993,-2.7739,-2.7546,-2.7449,-2.7437,-2.7486,-2.7594,-2.7655,-2.7389,-2.7039,-2.6773,-2.6882,-2.7208,-2.7232,-2.7304,-2.7377,-2.7304,-2.7256,-2.7172,-2.7111,-2.7027,-2.7015,-2.687,-2.6846,-2.6785,-2.6592,-2.6206,-2.5904,-2.5711,-2.5361,-2.4975,-2.4842,-2.5053,-2.5684,-2.6453,-2.7673,-2.8468,-2.8681,-2.8468,-2.7955,-2.7781,-2.7953,-2.8476,-2.8473,-2.9258,-2.9977,-3.0288,-3.019,-3.0478,-3.0669,-3.0635,-3.048,-3.0378,-3.0498,-3.0686,-3.0549,-3.0446,-3.0442,-3.0331,-3.0188,-3.0345,-3.0284,-3.0091,-3.0479,-2.9842,-2.9592,-2.9774,-2.9487,-2.9274,-2.9274,-2.9022,-2.8944,-2.8864,-2.8989,-2.9048,-2.8975,-2.8938,-2.8975,-2.8975,-2.8993,-2.8975,-2.8975,-2.8883,-2.8737,-2.8608,-2.8352,-2.7911,-2.7581,-2.7526,-2.7471,-2.7398,-2.7307,-2.7196,-2.7123,-2.7068,-2.7197,-2.7891,-2.8276,-2.8522,-2.8072,-2.7748,-2.818,-2.8585,-2.8692,-2.888,-2.9268,-2.9484,-2.9303,-2.9055,-2.8994,-2.8729,-2.862,-2.8608,-2.8487,-2.8318,-2.8089,-2.7763,-2.7546,-2.7437,-2.7425,-2.7461,-2.751,-2.7558,-2.7498,-2.7317,-2.7039,-2.7051,-2.7208,-2.7148,-2.7184,-2.7365,-2.7232,-2.7148,-2.7329,-2.7148,-2.7063,-2.7087,-2.6906,-2.6882,-2.687,-2.6544,-2.6339,-2.6266,-2.6109,-2.5589,-2.5385,-2.5264,-2.5132,-2.5249,-2.6058,-2.7133,-2.8089,-2.8179,-2.7741,-2.7144,-2.69,-2.715,-2.7339,-2.7521,-2.7922,-2.9038,-2.9163,-2.9504,-3.0194,-3.0746,-3.0874,-3.0789,-3.0703,-3.0891,-3.1097,-3.1046,-3.0789,-3.0497,-3.044,-3.0579,-3.0627,-3.0501,-3.0366,-3.0474,-2.9922,-2.9653,-2.9654,-2.936,-2.8889,-2.9048,-2.902,-2.9044,-2.9028,-2.907,-2.9154,-2.925,-2.9012,-2.903,-2.9122,-2.914,-2.8993,-2.8975,-2.8975,-2.8883,-2.881,-2.8572,-2.8132,-2.7893,-2.7932,-2.7875,-2.7875,-2.7655,-2.7546,-2.7435,-2.738,-2.7549,-2.766,-2.7399,-2.7521,-2.6847,-2.6535,-2.6993,-2.741,-2.7579,-2.7732,-2.7897,-2.8101,-2.8086,-2.9224,-2.8994,-2.8729,-2.862,-2.8548,-2.8125,-2.7908,-2.7824,-2.7389,-2.7256,-2.7389,-2.7437,-2.7546,-2.7642,-2.7292,-2.7148,-2.7063,-2.6906,-2.6918,-2.7135,-2.7087,-2.7268,-2.7606,-2.7244,-2.7256,-2.7389,-2.7196,-2.7196,-2.7244,-2.7099,-2.6979,-2.6979,-2.693,-2.681,-2.6532,-2.646,-2.6266,-2.5868,-2.594,-2.5904,-2.5615,-2.5482,-2.5598,-2.5641,-2.5632,-2.5527,-2.5514,-2.543,-2.5519,-2.6547,-2.6262,-2.6779,-2.785,-2.782,-2.7644,-2.8447,-2.9808,-3.1474,-3.116,-3.1232,-3.1302,-3.1354,-3.1234,-3.0857,-3.0566,-3.0252,-3.0153,-2.9922,-3.0106,-3.0345,-3.0506,-3.0247,-3.0201,-2.9974,-2.9658,-2.9499,-2.9446,-2.9145,-2.9173,-2.9339,-2.9422,-2.955,-2.9654,-2.9324,-2.9085,-2.9195,-2.925,-2.9085,-2.8975,-2.8975,-2.8865,-2.8755,-2.8773,-2.8388,-2.8205,-2.8187,-2.826,-2.8315,-2.8058,-2.7895,-2.7875,-2.782,-2.7526,-2.7492,-2.7196,-2.6976,-2.6756,-2.6572,-2.6295,-2.6472,-2.6943,-2.6651,-2.6268,-2.6511,-2.7165,-2.9031,-2.8765,-2.85,-2.8391,-2.8331,-2.7968,-2.7811,-2.7739,-2.7425,-2.722,-2.7244,-2.7377,-2.7642,-2.7787,-2.7353,-2.7304,-2.7473,-2.7099,-2.7003,-2.7135,-2.7135,-2.7232,-2.7449,-2.7389,-2.7401,-2.7473,-2.7425,-2.7425,-2.7449,-2.7244,-2.7027,-2.7039,-2.7027,-2.687,-2.6689,-2.6653,-2.6399,-2.617,-2.6134,-2.6146,-2.5977,-2.5699,-2.5396,-2.5396,-2.5216,-2.5035,-2.4866,-2.4782,-2.4848,-2.5414,-2.5092,-2.5608,-2.6575,-2.6732,-2.6687,-2.7452,-2.8501,-2.9575,-3.0101,-3.101,-3.1435,-3.1542,-3.1388,-3.1183,-3.0754,-3.0393,-3.0249,-3.0502,-3.0417,-3.0425,-3.0437,-3.0048,-2.9983,-2.9854,-2.9742,-2.9485,-2.9427,-2.9478,-2.9393,-2.9583,-2.9787,-3.0,-3.0094,-2.9745,-2.9489,-2.9489,-2.936,-2.9085,-2.9012,-2.8975,-2.881,-2.8608,-2.8663,-2.8663,-2.8553,-2.8498,-2.8645,-2.8645,-2.8388,-2.826,-2.8407,-2.8315,-2.7967,-2.7822,-2.7673,-2.7361,-2.7013,-2.6848,-2.6811,-2.6591,-2.6425,-2.6499,-2.6572,-2.6719,-2.721,-2.8729,-2.8415,-2.8258,-2.8162,-2.8077,-2.7824,-2.7715,-2.7679,-2.7425,-2.7208,-2.7123,-2.7232,-2.7546,-2.7727,-2.7329,-2.7292,-2.7787,-2.7292,-2.7196,-2.7196,-2.7172,-2.716,-2.7292,-2.7353,-2.7498,-2.7715,-2.7486,-2.7498,-2.7473,-2.7304,-2.7063,-2.7123,-2.716,-2.7003,-2.681,-2.6749,-2.6641,-2.6484,-2.6291,-2.6254,-2.6254,-2.6061,-2.594,-2.5832,-2.5675,-2.5446,-2.5277,-2.5059,-2.4999,-2.4938,-2.4754,-2.5126,-2.5641,-2.5491,-2.5476,-2.6033,-2.681,-2.7478,-2.8496,-2.9649,-3.081,-3.1135,-3.1369,-3.1217,-3.0994,-3.0669,-3.048,-3.07,-3.0711,-3.0688,-3.0565,-3.0097,-3.0066,-2.99,-2.963,-2.9193,-2.9051,-2.9451,-2.9648,-2.9742,-3.0086,-3.0565,-3.0508,-3.0204,-2.9984,-2.9837,-2.9544,-2.9159,-2.903,-2.9012,-2.8883,-2.87,-2.8737,-2.8828,-2.8792,-2.8792,-2.8938,-2.892,-2.8663,-2.859,-2.87,-2.8608,-2.8391,-2.8244,-2.8152,-2.7801,-2.7416,-2.7381,-2.7307,-2.7123,-2.705,-2.7178,-2.727,-2.7325,-2.7289,-2.8343,-2.7884,-2.8113,-2.8053,-2.7824,-2.7558,-2.7449,-2.7461,-2.7184,-2.7063,-2.7039,-2.7075,-2.7135,-2.7148,-2.716,-2.7099,-2.716,-2.7063,-2.7075,-2.7063,-2.7039,-2.7063,-2.7172,-2.7304,-2.7425,-2.7437,-2.7413,-2.7449,-2.7413,-2.7268,-2.722,-2.7353,-2.7268,-2.7184,-2.7051,-2.693,-2.693,-2.6761,-2.6532,-2.6435,-2.6472,-2.6363,-2.6194,-2.6134,-2.5953,-2.5784,-2.5759,-2.5566,-2.5409,-2.5325,-2.5071,-2.4758,-2.4899,-2.4597,-2.4506,-2.4492,-2.519,-2.5734,-2.641,-2.8191,-2.935,-2.9783,-3.0281,-3.0884,-3.0679,-3.0566,-3.0498,-3.0617,-3.077,-3.0769,-3.0734,-3.0597,-3.0373,-3.0099,-2.9725,-2.955,-2.9509,-2.9895,-3.0095,-3.0027,-3.0347,-3.0856,-3.1002,-3.0717,-3.0442,-3.0314,-2.9709,-2.9305,-2.9122,-2.9067,-2.9012,-2.8902,-2.892,-2.8957,-2.8957,-2.8975,-2.8975,-2.8975,-2.8847,-2.8828,-2.8902,-2.8755,-2.8649,-2.8517,-2.8388,-2.8132,-2.7948,-2.7911,-2.7856,-2.7765,-2.7728,-2.7728,-2.7783,-2.7838,-2.7636,-2.8403,-2.8053,-2.7993,-2.7811,-2.7558,-2.7292,-2.7268,-2.7365,-2.7148,-2.7027,-2.7027,-2.7039,-2.7123,-2.7184,-2.7099,-2.7135,-2.722,-2.7087,-2.7051,-2.7027,-2.7027,-2.7027,-2.7123,-2.7232,-2.7341,-2.7268,-2.7329,-2.7425,-2.7413,-2.7268,-2.7317,-2.7365,-2.7268,-2.7148,-2.7039,-2.7027,-2.7027,-2.6991,-2.6846,-2.6798,-2.6773,-2.6629,-2.6472,-2.646,-2.6206,-2.6085,-2.6049,-2.5977,-2.5844,-2.5651,-2.5336,-2.5071,-2.4685,-2.4287,-2.3913,-2.3507,-2.4252,-2.4284,-2.4637,-2.6631,-2.8222,-2.8377,-2.9208,-3.0069,-3.0015,-3.0537,-3.0992,-3.1149,-3.1047,-3.0943,-3.0857,-3.0703,-3.0427,-3.0138,-3.0034,-2.9894,-2.9903,-3.0276,-3.0408,-3.0306,-3.0727,-3.1222,-3.1267,-3.1212,-3.0974,-3.0736,-3.0075,-2.9507,-2.9305,-2.9104,-2.903,-2.8975,-2.8975,-2.9048,-2.9048,-2.903,-2.8993,-2.9012,-2.9012,-2.903,-2.9048,-2.8975,-2.8888,-2.8773,-2.8773,-2.8645,-2.8553,-2.8535,-2.837,-2.8095,-2.8077,-2.815,-2.8223,-2.8315,-2.8095,-2.8463,-2.8174,-2.792,-2.7655,-2.7401,-2.7135,-2.7184,-2.7353,-2.7148,-2.7027,-2.7027,-2.7039,-2.7123,-2.7208,-2.7135,-2.7099,-2.7184,-2.7111,-2.7051,-2.7027,-2.7027,-2.7027,-2.7123,-2.7244,-2.7353,-2.722,-2.7292,-2.7425,-2.7425,-2.7341,-2.728,-2.722,-2.7135,-2.7051,-2.7039,-2.7027,-2.7027,-2.7027,-2.7027,-2.7027,-2.6991,-2.6858,-2.6749,-2.6623,-2.6484,-2.6363,-2.6303,-2.6218,-2.6025,-2.5832,-2.559,-2.5277,-2.4866,-2.4468,-2.413,-2.3808,-2.364,-2.3647,-2.4074,-2.5288,-2.7126,-2.7703,-2.819,-2.8711,-2.9095,-2.9959,-3.0435,-3.068,-3.0865,-3.1096,-3.1026,-3.1046,-3.0909,-3.0754,-3.0719,-3.0613,-3.0316,-3.0456,-3.0556,-3.0584,-3.1027,-3.1249,-3.1359,-3.1304,-3.1121,-3.0827,-3.0314,-2.9764,-2.9452,-2.9232,-2.9012,-2.8975,-2.8975,-2.9067,-2.914,-2.9104,-2.9085,-2.9195,-2.9195,-2.914,-2.914,-2.9122,-2.9269,-2.9415,-2.9379,-2.9232,-2.9067,-2.892,-2.8627,-2.8297,-2.8407,-2.8572,-2.859,-2.8627,-2.8535,-2.8463,-2.8186,-2.7932,-2.7679,-2.7449,-2.7148,-2.7184,-2.7377,-2.7148,-2.7027,-2.7027,-2.7027,-2.7027,-2.7063,-2.7039,-2.7063,-2.7075,-2.7051,-2.7027,-2.7027,-2.7027,-2.7027,-2.7123,-2.7256,-2.7341,-2.7401,-2.7377,-2.7365,-2.7425,-2.7208,-2.7111,-2.716,-2.716,-2.7063,-2.7039,-2.7027,-2.7027,-2.7027,-2.7039,-2.7075,-2.7075,-2.7075,-2.7087,-2.6966,-2.6822,-2.6701,-2.6592,-2.6472,-2.6266,-2.6025,-2.5953,-2.5602,-2.5011,-2.4854,-2.454,-2.419,-2.3904,-2.3796,-2.3927,-2.4933,-2.5968,-2.6909,-2.7115,-2.7436,-2.7644,-2.8473,-2.9314,-2.9433,-3.0146,-3.0909,-3.1296,-3.1192,-3.0862,-3.052,-3.0304,-3.012,-2.9665,-2.9497,-2.9428,-2.9607,-3.0354,-3.1009,-3.1249,-3.1322,-3.1157,-3.0864,-3.0461,-3.0075,-2.9764,-2.9525,-2.9342,-2.9324,-2.9342,-2.9415,-2.9489,-2.9232,-2.9177,-2.9384,-2.9434,-2.947,-2.9489,-2.9544,-2.9745,-3.0002,-2.9855,-2.958,-2.9397,-2.925,-2.9048,-2.8902,-2.8883,-2.8975,-2.8975,-2.8993,-2.8957,-2.8463,-2.8198,-2.8101,-2.8017,-2.7884,-2.7473,-2.7341,-2.7365,-2.716,-2.7027,-2.7027,-2.7027,-2.7027,-2.7027,-2.7027,-2.7027,-2.7027,-2.7027,-2.7027,-2.7027,-2.7039,-2.716,-2.7232,-2.7208,-2.7268,-2.7329,-2.7292,-2.728,-2.7413,-2.716,-2.7304,-2.7425,-2.7268,-2.7184,-2.7075,-2.7027,-2.7027,-2.7075,-2.7184,-2.7304,-2.7304,-2.7425,-2.7449,-2.728,-2.716,-2.7039,-2.6882,-2.6713,-2.6556,-2.6339,-2.6291,-2.5989,-2.5408,-2.5252,-2.5011,-2.4528,-2.4214,-2.4178,-2.4021,-2.4356,-2.4598,-2.5205,-2.5792,-2.615,-2.6226,-2.726,-2.7791,-2.7979,-2.8496,-2.8882,-2.8341,-2.8413,-2.8162,-2.786,-2.77,-2.7601,-2.7424,-2.7454,-2.7504,-2.804,-2.8707,-3.0049,-3.0692,-3.0473,-3.0312,-3.0737,-3.0393,-3.0482,-3.0332,-3.0094,-2.9892,-2.9892,-2.991,-2.9929,-2.9855,-2.9654,-2.9654,-2.9837,-2.9929,-2.9947,-2.9984,-2.9984,-3.0075,-3.0277,-3.0094,-2.991,-2.9709,-2.9544,-2.9654,-2.9617,-2.9525,-2.9287,-2.9104,-2.9287,-2.9525,-2.8512,-2.8343,-2.8246,-2.8258,-2.8234,-2.7691,-2.7425,-2.7389,-2.7244,-2.7172,-2.716,-2.7087,-2.7027,-2.7027,-2.7027,-2.7027,-2.7039,-2.7135,-2.7063,-2.7075,-2.7148,-2.7196,-2.7184,-2.7148,-2.7148,-2.7208,-2.7172,-2.7135,-2.7244,-2.7111,-2.7184,-2.7341,-2.7377,-2.7172,-2.7063,-2.7027,-2.7027,-2.7099,-2.7232,-2.7401,-2.7473,-2.757,-2.7655,-2.7486,-2.7365,-2.728,-2.7099,-2.6991,-2.6918,-2.6737,-2.6556,-2.6351,-2.594,-2.5578,-2.5373,-2.489,-2.454,-2.4468,-2.4275,-2.4106,-2.4214,-2.4099,-2.468,-2.4829,-2.4996,-2.5937,-2.6416,-2.6649,-2.6731,-2.691,-2.6939,-2.6837,-2.6561,-2.6344,-2.6473,-2.6469,-2.6293,-2.6402,-2.6508,-2.6976,-2.7307,-2.8674,-2.9751,-2.9595,-2.9261,-2.986,-3.037,-3.0501,-3.0656,-3.0552,-3.0314,-3.0296,-3.0296,-3.0259,-3.0222,-3.013,-3.0185,-3.0369,-3.0369,-3.0332,-3.0406,-3.0406,-3.0479,-3.0516,-3.0442,-3.0277,-2.9965,-2.9855,-2.9947,-3.0057,-3.0075,-2.9745,-2.9305,-2.9507,-2.9892,-2.862,-2.8584,-2.8331,-2.8379,-2.8463,-2.7848,-2.7522,-2.7461,-2.7437,-2.7425,-2.7413,-2.7172,-2.7099,-2.7063,-2.7039,-2.7027,-2.7051,-2.7256,-2.7184,-2.7135,-2.7196,-2.7196,-2.7148,-2.7075,-2.7111,-2.7087,-2.7099,-2.7172,-2.7099,-2.7268,-2.728,-2.7148,-2.7196,-2.7148,-2.7123,-2.7051,-2.7075,-2.7172,-2.7365,-2.7522,-2.7642,-2.7799,-2.7763,-2.7618,-2.7486,-2.7317,-2.7148,-2.7015,-2.6918,-2.6798,-2.6677,-2.6496,-2.6194,-2.5771,-2.559,-2.5325,-2.4963,-2.4709,-2.4589,-2.4456,-2.4323,-2.4073,-2.3908,-2.3666,-2.3852,-2.4752,-2.5148,-2.5536,-2.5739,-2.6364,-2.6726,-2.6453,-2.618,-2.6241,-2.6358,-2.62,-2.5884,-2.5898,-2.5855,-2.6037,-2.6117,-2.6878,-2.7681,-2.7809,-2.8244,-2.8908,-2.9467,-2.997,-3.0165,-3.0709,-3.0526,-3.0534,-3.0534,-3.0552,-3.0534,-3.0589,-3.0644,-3.0791,-3.0644,-3.0589,-3.0681,-3.0809,-3.0882,-3.0901,-3.0846,-3.0699,-3.0479,-3.0332,-3.0277,-3.0387,-3.0571,-3.0222,-2.9782,-2.9892,-3.0112,-2.862,-2.862,-2.8536,-2.8548,-2.8584,-2.8379,-2.8174,-2.7968,-2.7799,-2.7703,-2.7679,-2.7425,-2.7304,-2.7304,-2.7123,-2.7051,-2.7063,-2.7099,-2.7087,-2.7111,-2.716,-2.722,-2.7196,-2.7135,-2.716,-2.7232,-2.7292,-2.7317,-2.7558,-2.7667,-2.751,-2.7377,-2.7232,-2.7256,-2.722,-2.7123,-2.7208,-2.7341,-2.757,-2.7727,-2.7944,-2.8174,-2.8017,-2.7799,-2.7667,-2.7449,-2.7135,-2.7063,-2.7027,-2.716,-2.6991,-2.6846,-2.6798,-2.6629,-2.6484,-2.5953,-2.5409,-2.4831,-2.4914,-2.4771,-2.4638,-2.4552,-2.4323,-2.3989,-2.3964,-2.3933,-2.4218,-2.4559,-2.4611,-2.5003,-2.5113,-2.4865,-2.4679,-2.4735,-2.4804,-2.4583,-2.4289,-2.4296,-2.4335,-2.4426,-2.4507,-2.5328,-2.6042,-2.6588,-2.709,-2.7813,-2.839,-2.8977,-2.9685,-3.0212,-3.0819,-3.0782,-3.0974,-3.1029,-3.1102,-3.1157,-3.1157,-3.1157,-3.1084,-3.1047,-3.1121,-3.1231,-3.1286,-3.1212,-3.1066,-3.1084,-3.1102,-3.0919,-3.0662,-3.0919,-3.1084,-3.0681,-3.0369,-3.0406,-3.0332,-2.862,-2.862,-2.862,-2.862,-2.862,-2.862,-2.8512,-2.8331,-2.8077,-2.7968,-2.7932,-2.7691,-2.7522,-2.7401,-2.7256,-2.7148,-2.7039,-2.7172,-2.7172,-2.7063,-2.7111,-2.7184,-2.7196,-2.7135,-2.7123,-2.7232,-2.728,-2.7256,-2.7558,-2.7618,-2.7473,-2.7268,-2.7268,-2.7341,-2.7341,-2.7304,-2.7437,-2.7618,-2.7824,-2.798,-2.821,-2.8451,-2.8234,-2.7932,-2.7824,-2.751,-2.7135,-2.7099,-2.7268,-2.7437,-2.728,-2.7341,-2.7268,-2.7148,-2.6761,-2.623,-2.5868,-2.5506,-2.5397,-2.524,-2.5059,-2.4854,-2.4709,-2.4468,-2.4145,-2.4122,-2.3927,-2.3903,-2.3526,-2.3332,-2.3157,-2.3048,-2.2955,-2.2797,-2.2663,-2.253,-2.2457,-2.2408,-2.2521,-2.2558,-2.3159,-2.4008,-2.4747,-2.5314,-2.5985,-2.6571,-2.7152,-2.762,-2.869,-2.9708,-3.0555,-3.1066,-3.135,-3.1598,-3.1588,-3.1494,-3.1567,-3.1687,-3.1891,-3.1818,-3.1726,-3.1598,-3.1598,-3.1414,-3.1194,-3.1267,-3.1341,-3.1231,-3.1084,-3.1322,-3.1414,-3.1102,-3.0809,-3.0736,-3.0607,-2.862,-2.862,-2.862,-2.8644,-2.8644,-2.8644,-2.8632,-2.862,-2.8367,-2.8234,-2.8186,-2.7956,-2.7727,-2.7594,-2.7437,-2.7268,-2.7184,-2.722,-2.7172,-2.7039,-2.7184,-2.722,-2.7099,-2.7039,-2.7063,-2.7051,-2.7111,-2.7244,-2.7135,-2.7232,-2.7292,-2.7039,-2.7051,-2.716,-2.7292,-2.7365,-2.751,-2.7751,-2.7908,-2.8029,-2.827,-2.8415,-2.8379,-2.792,-2.7751,-2.7594,-2.728,-2.7256,-2.7437,-2.7546,-2.7594,-2.7703,-2.7473,-2.7196,-2.6713,-2.646,-2.6182,-2.6049,-2.582,-2.5639,-2.53,-2.5132,-2.4866,-2.4745,-2.4482,-2.4335,-2.4118,-2.3913,-2.3695,-2.355,-2.3442,-2.3249,-2.3056,-2.2911,-2.279,-2.2597,-2.244,-2.243,-2.2334,-2.2372,-2.2497,-2.325,-2.3471,-2.4125,-2.4699,-2.5328,-2.5933,-2.6379,-2.7338,-2.8682,-2.953,-3.0495,-3.0571,-3.0764,-3.1396,-3.1402,-3.1817,-3.2059,-3.2114,-3.1884,-3.1282,-3.1439,-3.1826,-3.1429,-3.097,-3.1405,-3.1488,-3.1433,-3.1451,-3.1506,-3.1543,-3.1451,-3.1286,-3.1139,-3.0956,-2.862,-2.862,-2.862,-2.8729,-2.8874,-2.8705,-2.8741,-2.8886,-2.8632,-2.8512,-2.8463,-2.8246,-2.8065,-2.7932,-2.7582,-2.7377,-2.7341,-2.7184,-2.7099,-2.7051,-2.7135,-2.7148,-2.7039,-2.7027,-2.7027,-2.7099,-2.7184,-2.7268,-2.7244,-2.7244,-2.7196,-2.7051,-2.7027,-2.7099,-2.7208,-2.7329,-2.7582,-2.7811,-2.8053,-2.8198,-2.8415,-2.8451,-2.8379,-2.7993,-2.7775,-2.7667,-2.7425,-2.7365,-2.7679,-2.792,-2.7618,-2.7437,-2.7208,-2.6918,-2.6822,-2.6749,-2.6472,-2.6363,-2.6242,-2.5989,-2.5699,-2.5566,-2.5361,-2.5071,-2.4855,-2.4685,-2.4444,-2.4238,-2.4033,-2.382,-2.3676,-2.3514,-2.3297,-2.3176,-2.3056,-2.2826,-2.2585,-2.2515,-2.2382,-2.2321,-2.2285,-2.2386,-2.2619,-2.3009,-2.352,-2.407,-2.4647,-2.5246,-2.6069,-2.711,-2.7586,-2.8386,-2.8731,-2.917,-3.0191,-3.0923,-3.1252,-3.1183,-3.1011,-3.0906,-3.0765,-3.0895,-3.1039,-3.0862,-3.0786,-3.0966,-3.1312,-3.1789,-3.1789,-3.1789,-3.1836,-3.1799,-3.1616,-3.1451,-3.1304,-2.862,-2.862,-2.862,-2.8705,-2.8801,-2.8681,-2.8717,-2.8789,-2.8681,-2.862,-2.8608,-2.8451,-2.8331,-2.8186,-2.7763,-2.7498,-2.7413,-2.7148,-2.7063,-2.7039,-2.7039,-2.7039,-2.7027,-2.7039,-2.7027,-2.7087,-2.7148,-2.722,-2.7268,-2.7232,-2.7123,-2.7051,-2.7051,-2.7099,-2.7196,-2.7449,-2.7642,-2.7811,-2.8149,-2.8355,-2.8487,-2.8475,-2.8331,-2.798,-2.786,-2.7739,-2.7582,-2.7498,-2.7739,-2.792,-2.7727,-2.751,-2.7317,-2.7135,-2.7027,-2.6942,-2.6773,-2.6592,-2.652,-2.6303,-2.5965,-2.5844,-2.5602,-2.5301,-2.518,-2.5011,-2.4794,-2.4564,-2.4157,-2.3989,-2.3904,-2.3792,-2.3459,-2.3369,-2.3273,-2.3116,-2.285,-2.2709,-2.2612,-2.2552,-2.2443,-2.2422,-2.2633,-2.2855,-2.3359,-2.3823,-2.4248,-2.4482,-2.5184,-2.5782,-2.6085,-2.6567,-2.7155,-2.8146,-2.9498,-3.0045,-3.0277,-3.0161,-2.993,-2.9814,-2.9682,-3.0036,-3.0156,-2.9784,-2.9716,-3.0154,-3.0624,-3.111,-3.1926,-3.2125,-3.2173,-3.2203,-3.1935,-3.1491,-3.1407,-2.862,-2.862,-2.862,-2.8656,-2.8669,-2.8632,-2.8656,-2.8681,-2.8644,-2.862,-2.862,-2.8608,-2.8463,-2.8246,-2.798,-2.7715,-2.7486,-2.7268,-2.7135,-2.7087,-2.7051,-2.7099,-2.7099,-2.7063,-2.7039,-2.7027,-2.7063,-2.7075,-2.7075,-2.7075,-2.7087,-2.7075,-2.7123,-2.7196,-2.7437,-2.7655,-2.7824,-2.7896,-2.8101,-2.827,-2.8367,-2.8403,-2.8186,-2.8053,-2.7956,-2.7872,-2.7655,-2.7594,-2.7739,-2.7775,-2.7739,-2.751,-2.7365,-2.7208,-2.7135,-2.7039,-2.6979,-2.6834,-2.6623,-2.6472,-2.6206,-2.5977,-2.5675,-2.5518,-2.5494,-2.5349,-2.512,-2.4783,-2.4458,-2.4229,-2.4145,-2.4013,-2.3772,-2.3519,-2.3435,-2.3381,-2.3116,-2.2862,-2.283,-2.2757,-2.2663,-2.2568,-2.2644,-2.2794,-2.3215,-2.3684,-2.3953,-2.4161,-2.4429,-2.4888,-2.5229,-2.5695,-2.6157,-2.7353,-2.8644,-2.8929,-2.9101,-2.9174,-2.8898,-2.8701,-2.8703,-2.9254,-2.9185,-2.8284,-2.843,-2.9179,-2.9626,-3.0037,-3.0939,-3.1702,-3.1261,-3.087,-3.0746,-3.0507,-3.1184,-2.862,-2.862,-2.862,-2.8741,-2.8874,-2.8717,-2.8741,-2.8886,-2.8705,-2.862,-2.862,-2.862,-2.8572,-2.8524,-2.8246,-2.7993,-2.7727,-2.7473,-2.7365,-2.7341,-2.716,-2.7208,-2.7208,-2.7075,-2.7039,-2.7027,-2.7027,-2.7027,-2.7027,-2.7039,-2.7135,-2.728,-2.7304,-2.7353,-2.7413,-2.7594,-2.7679,-2.7739,-2.7908,-2.8101,-2.7944,-2.7993,-2.8065,-2.792,-2.7739,-2.7642,-2.7522,-2.7473,-2.7618,-2.7679,-2.7606,-2.7377,-2.7244,-2.716,-2.7099,-2.7075,-2.7027,-2.6991,-2.6822,-2.6629,-2.6411,-2.6363,-2.6097,-2.5832,-2.5771,-2.5651,-2.5446,-2.518,-2.4879,-2.4733,-2.4613,-2.4492,-2.4287,-2.3973,-2.3804,-2.3599,-2.3357,-2.3116,-2.2947,-2.2903,-2.2745,-2.2639,-2.2457,-2.2756,-2.3042,-2.3438,-2.3783,-2.4066,-2.4435,-2.4496,-2.4556,-2.4896,-2.5395,-2.6279,-2.7335,-2.7526,-2.7718,-2.7851,-2.7807,-2.7526,-2.7717,-2.8711,-2.8423,-2.7281,-2.7611,-2.8404,-2.8809,-2.8949,-2.9298,-2.9854,-2.9437,-2.9093,-2.9192,-2.9556,-3.0154]},{"header":{"parameterUnit":"m.s-1","parameterCategory":1,"la1":31.0,"la2":29.5877,"lo1":-88.7671,"lo2":-86.6584,"dy":0.0162,"dx":0.0185,"nx":115,"ny":88,"refTime":"2023-08-20T00:00:00:Z","depth":0,"parameterNumber":3,"parameterNumberName":"V-component_of_WINDS"},"data":[0.0,0.0,0.0,0.0,0.0,0.0,0.0,0.0,0.0,0.0,0.0,0.0,0.0,0.0,0.0,0.0,0.0,0.0,0.0,0.0,0.0,0.0,0.0,0.0,0.0,0.0,0.0,0.0,0.0,0.0,0.0,0.0,0.0,0.0,0.0,0.0,0.0,0.0,0.0,0.0,0.0,0.0,0.0,0.0,0.0,0.0,0.0,0.0,0.0,0.0,0.0,0.0,0.0,0.0,0.0,0.0,0.0,0.0,0.0,0.0,0.0,0.0,0.0,0.0,0.0,0.0,0.0,0.0,0.0,0.0,0.0,0.0,0.0,0.0,0.0,0.0,0.0,0.0,0.0,0.0,0.0,0.0,0.0,0.0,0.0,0.0,0.0,0.0,0.0,0.0,0.0,0.0,0.0,0.0,0.0,0.0,0.0,0.0,0.0,0.0,0.0,0.0,0.0,0.0,0.0,0.0,0.0,0.0,0.0,0.0,0.0,0.0,0.0,0.0,0.0,0.0,0.0,0.0,0.0,0.0,0.0,0.0,0.0,0.0,0.0,0.0,0.0,0.0,0.0,0.0,0.0,0.0,0.0,0.0,0.0,0.0,0.0,0.0,0.0,0.0,0.0,0.0,0.0,0.0,0.0,0.0,0.0,0.0,0.0,0.0,0.0,0.0,0.0,0.0,0.0,0.0,0.0,0.0,0.0,0.0,0.0,0.0,0.0,0.0,0.0,0.0,0.0,0.0,0.0,0.0,0.0,0.0,0.0,0.0,0.0,0.0,0.0,0.0,0.0,0.0,0.0,0.0,0.0,0.0,0.0,0.0,0.0,0.0,0.0,0.0,0.0,0.0,0.0,0.0,0.0,0.0,0.0,0.0,0.0,0.0,0.0,0.0,0.0,0.0,0.0,0.0,0.0,0.0,0.0,0.0,0.0,0.0,0.0,0.0,0.0,0.0,0.0,0.0,0.0,0.0,0.0,0.0,0.0,0.0,0.0,0.0,0.0,0.0,0.0,0.0,0.0,0.0,0.0,0.0,0.0,0.0,0.0,0.0,0.0,0.0,0.0,0.0,0.0,0.0,0.0,0.0,0.0,0.0,0.0,0.0,0.0,0.0,0.0,0.0,0.0,0.0,0.0,0.0,0.0,0.0,0.0,0.0,0.0,0.0,0.0,0.0,0.0,0.0,0.0,0.0,0.0,0.0,0.0,0.0,0.0,0.0,0.0,0.0,0.0,0.0,0.0,0.0,0.0,0.0,0.0,0.0,0.0,0.0,0.0,0.0,0.0,0.0,0.0,0.0,0.0,0.0,0.0,0.0,0.0,0.0,0.0,0.0,0.0,0.0,0.0,0.0,0.0,0.0,0.0,0.0,0.0,0.0,0.0,0.0,0.0,0.0,0.0,0.0,0.0,0.0,0.0,0.0,0.0,0.0,0.0,0.0,0.0,0.0,0.0,0.0,0.0,0.0,0.0,0.0,0.0,0.0,0.0,0.0,0.0,0.0,0.0,0.0,0.0,0.0,0.0,0.0,0.0,0.0,0.0,0.0,0.0,0.0,0.0,0.0,0.0,0.0,0.0,0.0,0.0,0.0,0.0,0.0,0.0,0.0,0.0,0.0,0.0,0.0,0.0,0.0,0.0,0.0,0.0,0.0,0.0,0.0,0.0,0.0,0.0,0.0,0.0,0.0,0.0,0.0,0.0,0.0,0.0,0.0,0.0,0.0,0.0,0.0,0.0,0.0,0.0,0.0,0.0,0.0,0.0,0.0,0.0,0.0,0.0,0.0,0.0,0.0,0.0,0.0,0.0,0.0,0.0,0.0,0.0,0.0,0.0,0.0,0.0,0.0,0.0,0.0,0.0,0.0,0.0,0.0,0.0,0.0,0.0,0.0,0.0,0.0,0.0,0.0,0.0,0.0,0.0,0.0,0.0,0.0,0.0,0.0,0.0,0.0,0.0,0.0,0.0,0.0,0.0,0.0,0.0,0.0,0.0,0.0,0.0,0.0,0.0,0.0,0.0,0.0,0.0,0.0,0.0,0.0,0.0,0.0,0.0,0.0,0.0,0.0,0.0,0.0,0.0,0.0,0.0,0.0,0.0,0.0,0.0,0.0,0.0,0.0,0.0,0.0,0.0,0.0,0.0,0.0,0.0,0.0,0.0,0.0,0.0,0.0,0.0,0.0,0.0,0.0,0.0,0.0,0.0,0.0,0.0,0.0,0.0,0.0,0.0,0.0,0.0,0.0,0.0,0.0,0.0,0.0,0.0,0.0,0.0,0.0,0.0,0.0,0.0,0.0,0.0,0.0,0.0,0.0,0.0,0.0,0.0,0.0,0.0,0.0,0.0,0.0,0.0,0.0,0.0,0.0,0.0,0.0,0.0,0.0,0.0,0.0,0.0,0.0,0.0,0.0,0.0,0.0,0.0,0.0,0.0,0.0,0.0,0.0,0.0,0.0,0.0,0.0,0.0,0.0,0.0,0.0,0.0,0.0,0.0,0.0,0.0,0.0,0.0,0.0,0.0,0.0,0.0,0.0,0.0,0.0,0.0,0.0,0.0,0.0,0.0,0.0,0.0,0.0,0.0,0.0,0.0,0.0,0.0,0.0,0.0,0.0,0.0,0.0,0.0,0.0,0.0,0.0,0.0,0.0,0.0,0.0,0.0,0.0,0.0,0.0,0.0,0.0,0.0,0.0,0.0,0.0,0.0,0.0,0.0,0.0,0.0,0.0,0.0,0.0,0.0,0.0,0.0,0.0,0.0,0.0,0.0,0.0,0.0,0.0,0.0,0.0,0.0,0.0,0.0,0.0,0.0,0.0,0.0,0.0,0.0,0.0,0.0,0.0,0.0,0.0,0.0,0.0,0.0,0.0,0.0,0.0,0.0,0.0,0.0,0.0,0.0,0.0,0.0,0.0,0.0,0.0,0.0,0.0,0.0,0.0,0.0,0.0,0.0,0.0,0.0,0.0,0.0,0.0,0.0,0.0,0.0,0.0,0.0,0.0,0.0,0.0,0.0,0.0,0.0,0.0,0.0,0.0,0.0,0.0,0.0,0.0,0.0,0.0,0.0,0.0,0.0,0.0,0.0,0.0,0.0,0.0,0.0,0.0,0.0,0.0,0.0,0.0,0.0,0.0,0.0,0.0,0.0,0.0,0.0,0.0,0.0,0.0,0.0,0.0,0.0,0.0,0.0,0.0,0.0,0.0,0.0,0.0,0.0,0.0,0.0,0.0,0.0,0.0,0.0,0.0,0.0,0.0,0.0,0.0,0.0,0.0,0.0,0.0,0.0,0.0,0.0,0.0,0.0,0.0,0.0,0.0,0.0,0.0,0.0,0.0,0.0,0.0,0.0,0.0,0.0,0.0,0.0,0.0,0.0,0.0,0.0,0.0,0.0,0.0,0.0,0.0,0.0,0.0,0.0,0.0,0.0,0.0,0.0,0.0,0.0,0.0,0.0,0.0,0.0,0.0,0.0,0.0,0.0,0.0,0.0,0.0,0.0,0.0,0.0,0.0,0.0,0.0,0.0,0.0,0.0,0.0,0.0,0.0,0.0,0.0,0.0,0.0,0.0,0.0,0.0,0.0,0.0,0.0,0.0,0.0,0.0,0.0,0.0,0.0,0.0,0.0,0.0,0.0,0.0,0.0,0.0,0.0,0.0,0.0,0.0,0.0,0.0,0.0,0.0,0.0,0.0,0.0,0.0,0.0,0.0,0.0,0.0,0.0,0.0,0.0,0.0,0.0,0.0,0.0,0.0,0.0,0.0,0.0,0.0,0.0,0.0,0.0,0.0,0.0,0.0,0.0,0.0,0.0,0.0,0.0,0.0,0.0,0.0,0.0,0.0,0.0,0.0,0.0,0.0,0.0,0.0,0.0,0.0,0.0,0.0,0.0,0.0,0.0,0.0,0.0,0.0,0.0,0.0,0.0,0.0,0.0,0.0,0.0,0.0,0.0,0.0,0.0,0.0,0.0,0.0,0.0,0.0,0.0,0.0,0.0,0.0,0.0,0.0,0.0,0.0,0.0,0.0,0.0,0.0,0.0,0.0,0.0,0.0,0.0,0.0,0.0,0.0,0.0,0.0,0.0,0.0,0.0,0.0,0.0,0.0,0.0,0.0,0.0,0.0,0.0,0.0,0.0,0.0,0.0,0.0,0.0,0.0,0.0,0.0,0.0,0.0,0.0,0.0,0.0,0.0,0.0,0.0,0.0,0.0,0.0,0.0,0.0,0.0,0.0,0.0,0.0,0.0,0.0,0.0,0.0,1.9218,0.0,0.0,0.0,0.0,0.0,0.0,0.0,0.0,0.0,0.0,0.0,0.0,0.0,0.0,0.0,0.0,0.0,0.0,0.0,0.0,0.0,0.0,0.0,0.0,0.0,0.0,0.0,0.0,0.0,0.0,0.0,0.0,0.0,0.0,0.0,0.0,0.0,0.0,0.0,0.0,0.0,0.0,0.0,0.0,0.0,0.0,0.0,0.0,0.0,0.0,0.0,0.0,0.0,0.0,0.0,0.0,0.0,0.0,0.0,0.0,0.0,0.0,0.0,0.0,0.0,0.0,0.0,0.0,0.0,0.0,0.0,0.0,0.0,0.0,0.0,0.0,0.0,0.0,0.0,0.0,0.0,0.0,0.0,0.0,0.0,0.0,0.0,0.0,0.0,0.0,0.0,0.0,0.0,0.0,0.0,0.0,0.0,0.0,0.0,0.0,0.0,0.0,0.0,0.0,0.0,0.0,0.0,0.0,0.0,0.0,2.0259,1.9973,1.935,1.9022,1.9158,0.0,0.0,0.0,0.0,0.0,0.0,0.0,0.0,0.0,0.0,0.0,0.0,0.0,0.0,0.0,0.0,0.0,0.0,0.0,0.0,0.0,0.0,0.0,0.0,0.0,0.0,0.0,0.0,0.0,0.0,0.0,0.0,0.0,0.0,0.0,0.0,0.0,0.0,0.0,0.0,0.0,0.0,0.0,0.0,0.0,0.0,0.0,0.0,0.0,0.0,0.0,0.0,0.0,0.0,0.0,0.0,0.0,0.0,0.0,0.0,0.0,0.0,0.0,0.0,0.0,0.0,0.0,0.0,0.0,0.0,0.0,0.0,0.0,0.0,0.0,0.0,0.0,0.0,0.0,0.0,0.0,0.0,0.0,0.0,0.0,0.0,0.0,0.0,0.0,0.0,0.0,0.0,0.0,0.0,0.0,0.0,0.0,0.0,0.0,0.0,0.0,0.0,0.0,0.0,0.0,0.0,0.0,0.0,0.0,0.0,0.0,0.0,1.935,1.9178,1.9497,0.0,0.0,0.0,0.0,0.0,0.0,0.0,0.0,0.0,0.0,0.0,0.0,0.0,0.0,0.0,0.0,0.0,0.0,0.0,0.0,0.0,0.0,0.0,0.0,0.0,0.0,0.0,0.0,0.0,0.0,0.0,0.0,0.0,0.0,0.0,0.0,0.0,0.0,0.0,0.0,0.0,0.0,0.0,0.0,0.0,0.0,0.0,0.0,0.0,0.0,0.0,0.0,0.0,0.0,0.0,0.0,0.0,0.0,0.0,0.0,0.0,0.0,0.0,0.0,0.0,0.0,0.0,0.0,0.0,0.0,0.0,0.0,0.0,0.0,0.0,0.0,0.0,0.0,0.0,0.0,0.0,0.0,0.0,0.0,0.0,0.0,0.0,0.0,0.0,0.0,0.0,0.0,0.0,0.0,0.0,0.0,0.0,0.0,0.0,0.0,0.0,0.0,0.0,0.0,0.0,0.0,0.0,0.0,0.0,0.0,2.0799,2.0966,2.1055,0.0,2.0866,0.0,0.0,0.0,0.0,0.0,0.0,0.0,0.0,0.0,0.0,0.0,0.0,0.0,0.0,0.0,0.0,0.0,0.0,0.0,0.0,0.0,0.0,0.0,0.0,0.0,0.0,0.0,0.0,0.0,0.0,0.0,0.0,0.0,0.0,0.0,0.0,0.0,0.0,0.0,0.0,0.0,0.0,0.0,0.0,0.0,0.0,0.0,0.0,0.0,0.0,0.0,0.0,0.0,0.0,0.0,0.0,0.0,0.0,0.0,0.0,0.0,0.0,0.0,0.0,0.0,0.0,0.0,0.0,0.0,0.0,0.0,0.0,0.0,0.0,0.0,0.0,0.0,0.0,0.0,0.0,0.0,0.0,0.0,0.0,0.0,0.0,0.0,0.0,0.0,0.0,0.0,0.0,0.0,0.0,0.0,0.0,0.0,0.0,0.0,0.0,0.0,0.0,0.0,0.0,0.0,0.0,0.0,0.0,0.0,0.0,2.057,2.0426,2.0762,2.1212,0.0,0.0,0.0,0.0,0.0,0.0,0.0,0.0,0.0,0.0,0.0,0.0,0.0,0.0,0.0,0.0,0.0,0.0,0.0,0.0,0.0,0.0,0.0,0.0,0.0,0.0,0.0,0.0,0.0,0.0,0.0,0.0,0.0,0.0,0.0,0.0,0.0,0.0,0.0,0.0,0.0,0.0,0.0,0.0,0.0,0.0,0.0,0.0,0.0,0.0,0.0,0.0,0.0,0.0,0.0,0.0,0.0,0.0,0.0,0.0,0.0,0.0,0.0,0.0,0.0,0.0,0.0,0.0,0.0,0.0,0.0,0.0,0.0,0.0,0.0,0.0,0.0,0.0,0.0,0.0,0.0,0.0,0.0,0.0,0.0,0.0,0.0,0.0,0.0,0.0,0.0,0.0,0.0,0.0,0.0,0.0,0.0,0.0,0.0,0.0,0.0,0.0,0.0,0.0,0.0,0.0,0.0,0.0,0.0,0.0,2.1367,2.1497,2.1322,2.1496,2.1861,2.2287,0.0,0.0,0.0,0.0,0.0,0.0,0.0,0.0,0.0,0.0,0.0,0.0,0.0,0.0,0.0,0.0,0.0,0.0,0.0,0.0,0.0,0.0,0.0,0.0,0.0,0.0,0.0,0.0,0.0,0.0,0.0,0.0,0.0,0.0,0.0,0.0,0.0,0.0,0.0,0.0,0.0,0.0,0.0,0.0,0.0,0.0,0.0,0.0,0.0,0.0,0.0,0.0,0.0,0.0,0.0,0.0,0.0,0.0,0.0,0.0,0.0,0.0,0.0,0.0,0.0,0.0,0.0,0.0,0.0,0.0,0.0,0.0,0.0,0.0,0.0,0.0,0.0,0.0,0.0,0.0,0.0,0.0,0.0,0.0,0.0,0.0,0.0,0.0,0.0,0.0,0.0,0.0,0.0,0.0,0.0,0.0,0.0,0.0,0.0,0.0,0.0,0.0,0.0,0.0,0.0,0.0,0.0,0.0,2.381,2.3977,2.4304,2.4632,2.4184,2.3608,0.0,0.0,0.0,0.0,0.0,0.0,0.0,0.0,0.0,0.0,0.0,0.0,0.0,0.0,0.0,0.0,0.0,0.0,0.0,0.0,0.0,0.0,0.0,0.0,0.0,0.0,0.0,0.0,0.0,0.0,0.0,0.0,0.0,0.0,0.0,0.0,0.0,0.0,0.0,0.0,0.0,0.0,0.0,0.0,0.0,0.0,0.0,0.0,0.0,0.0,0.0,0.0,0.0,0.0,0.0,0.0,0.0,0.0,0.0,0.0,0.0,0.0,0.0,0.0,0.0,0.0,0.0,0.0,0.0,0.0,0.0,0.0,0.0,0.0,0.0,0.0,0.0,0.0,0.0,0.0,0.0,0.0,0.0,0.0,0.0,0.0,0.0,0.0,0.0,0.0,0.0,0.0,0.0,0.0,0.0,0.0,0.0,0.0,0.0,0.0,0.0,0.0,0.0,0.0,0.0,0.0,0.0,0.0,0.0,2.3017,2.374,2.485,2.6056,2.4603,2.4036,0.0,0.0,0.0,0.0,0.0,0.0,0.0,0.0,0.0,0.0,0.0,0.0,0.0,0.0,0.0,0.0,0.0,0.0,0.0,0.0,0.0,0.0,0.0,0.0,0.0,0.0,0.0,0.0,0.0,0.0,0.0,0.0,0.0,0.0,0.0,0.0,0.0,0.0,0.0,0.0,0.0,0.0,0.0,0.0,0.0,0.0,0.0,0.0,0.0,0.0,0.0,0.0,0.0,0.0,0.0,0.0,0.0,0.0,0.0,0.0,0.0,0.0,0.0,0.0,0.0,0.0,0.0,0.0,0.0,0.0,0.0,0.0,0.0,0.0,0.0,0.0,0.0,0.0,0.0,0.0,0.0,0.0,0.0,0.0,0.0,0.0,0.0,0.0,0.0,0.0,0.0,0.0,0.0,0.0,0.0,0.0,0.0,0.0,0.0,0.0,0.0,0.0,0.0,0.0,0.0,0.0,0.0,0.0,0.0,2.3959,0.0,2.6245,2.7132,2.5595,2.4921,0.0,0.0,0.0,0.0,0.0,0.0,0.0,0.0,0.0,0.0,0.0,0.0,0.0,0.0,0.0,0.0,0.0,0.0,0.0,0.0,0.0,0.0,0.0,0.0,0.0,0.0,0.0,0.0,0.0,0.0,0.0,0.0,0.0,0.0,0.0,0.0,0.0,0.0,0.0,0.0,0.0,0.0,0.0,0.0,0.0,0.0,0.0,0.0,0.0,0.0,0.0,0.0,0.0,0.0,0.0,0.0,0.0,0.0,0.0,0.0,0.0,0.0,0.0,0.0,0.0,0.0,0.0,0.0,0.0,0.0,0.0,0.0,0.0,0.0,0.0,0.0,0.0,0.0,0.0,0.0,0.0,0.0,0.0,0.0,0.0,0.0,0.0,0.0,0.0,0.0,0.0,0.0,0.0,0.0,0.0,0.0,0.0,0.0,0.0,0.0,0.0,0.0,0.0,0.0,0.0,0.0,0.0,0.0,2.5396,2.7179,2.8475,2.8714,2.7937,2.74,2.6347,0.0,0.0,0.0,0.0,0.0,0.0,0.0,0.0,0.0,0.0,0.0,0.0,0.0,0.0,0.0,0.0,0.0,0.0,0.0,0.0,0.0,0.0,0.0,0.0,0.0,0.0,0.0,0.0,0.0,0.0,0.0,0.0,0.0,0.0,0.0,0.0,0.0,0.0,0.0,0.0,0.0,0.0,0.0,0.0,0.0,0.0,0.0,0.0,0.0,0.0,0.0,0.0,0.0,0.0,0.0,0.0,0.0,0.0,0.0,0.0,0.0,0.0,0.0,0.0,0.0,0.0,0.0,0.0,0.0,0.0,0.0,0.0,0.0,0.0,0.0,0.0,0.0,0.0,0.0,0.0,0.0,0.0,0.0,0.0,0.0,0.0,0.0,0.0,0.0,0.0,0.0,0.0,0.0,0.0,0.0,0.0,0.0,0.0,0.0,0.0,0.0,0.0,0.0,0.0,0.0,0.0,0.0,0.0,0.0,2.6832,2.811,2.8856,2.8814,2.72,2.6226,0.0,0.0,0.0,0.0,0.0,0.0,0.0,0.0,0.0,0.0,0.0,0.0,0.0,0.0,0.0,0.0,0.0,0.0,0.0,0.0,0.0,0.0,0.0,0.0,0.0,0.0,0.0,0.0,0.0,0.0,0.0,0.0,0.0,0.0,0.0,0.0,0.0,0.0,0.0,0.0,0.0,0.0,0.0,0.0,0.0,0.0,0.0,0.0,0.0,0.0,0.0,0.0,0.0,0.0,0.0,0.0,0.0,0.0,0.0,0.0,0.0,0.0,0.0,0.0,0.0,0.0,0.0,0.0,0.0,0.0,0.0,0.0,0.0,0.0,0.0,0.0,0.0,0.0,0.0,0.0,0.0,0.0,0.0,0.0,0.0,0.0,0.0,0.0,0.0,0.0,0.0,0.0,0.0,0.0,0.0,0.0,0.0,0.0,0.0,0.0,0.0,0.0,0.0,0.0,0.0,0.0,0.0,0.0,0.0,2.7931,2.9021,2.9684,2.9808,2.8188,2.7045,2.6481,0.0,0.0,0.0,0.0,0.0,0.0,0.0,0.0,0.0,0.0,0.0,0.0,0.0,0.0,0.0,0.0,0.0,0.0,0.0,0.0,0.0,0.0,0.0,0.0,0.0,0.0,0.0,0.0,0.0,0.0,0.0,0.0,0.0,0.0,0.0,0.0,0.0,0.0,0.0,0.0,0.0,0.0,0.0,0.0,0.0,0.0,0.0,0.0,0.0,0.0,0.0,0.0,0.0,0.0,0.0,0.0,0.0,0.0,0.0,0.0,0.0,0.0,0.0,0.0,0.0,0.0,0.0,0.0,0.0,0.0,0.0,0.0,0.0,0.0,0.0,0.0,0.0,0.0,0.0,0.0,0.0,0.0,0.0,0.0,0.0,0.0,0.0,0.0,0.0,0.0,0.0,0.0,0.0,0.0,0.0,0.0,0.0,0.0,0.0,0.0,0.0,0.0,0.0,0.0,0.0,0.0,0.0,0.0,3.0118,3.1071,3.1319,3.0855,3.0109,2.874,0.0,0.0,0.0,0.0,0.0,0.0,0.0,0.0,0.0,0.0,0.0,0.0,0.0,0.0,0.0,0.0,0.0,0.0,0.0,0.0,0.0,0.0,0.0,0.0,0.0,0.0,0.0,0.0,0.0,0.0,0.0,0.0,0.0,0.0,0.0,0.0,0.0,0.0,0.0,0.0,0.0,0.0,0.0,0.0,0.0,0.0,0.0,0.0,0.0,0.0,0.0,0.0,0.0,0.0,0.0,0.0,0.0,0.0,0.0,0.0,0.0,0.0,0.0,0.0,0.0,0.0,0.0,0.0,0.0,0.0,0.0,0.0,0.0,0.0,0.0,0.0,0.0,0.0,0.0,0.0,0.0,0.0,0.0,0.0,0.0,0.0,0.0,0.0,0.0,0.0,0.0,0.0,0.0,0.0,0.0,0.0,0.0,0.0,0.0,0.0,0.0,0.0,0.0,0.0,0.0,0.0,0.0,0.0,0.0,3.1961,3.3223,3.3464,3.2546,3.1009,2.95,0.0,0.0,0.0,0.0,0.0,0.0,0.0,0.0,0.0,0.0,0.0,0.0,0.0,0.0,0.0,0.0,0.0,0.0,0.0,0.0,0.0,0.0,0.0,0.0,0.0,0.0,0.0,0.0,0.0,0.0,0.0,0.0,0.0,0.0,0.0,0.0,0.0,0.0,0.0,0.0,0.0,0.0,0.0,0.0,0.0,0.0,0.0,0.0,0.0,0.0,0.0,0.0,0.0,0.0,0.0,0.0,0.0,0.0,0.0,0.0,0.0,0.0,0.0,0.0,0.0,0.0,0.0,0.0,0.0,0.0,0.0,0.0,0.0,0.0,0.0,0.0,0.0,0.0,0.0,0.0,0.0,0.0,0.0,0.0,0.0,0.0,0.0,0.0,0.0,0.0,0.0,0.0,0.0,0.0,0.0,0.0,0.0,0.0,0.0,0.0,0.0,0.0,0.0,0.0,0.0,0.0,0.0,0.0,3.2336,3.4506,3.6329,3.7112,3.6808,3.3673,3.1073,0.0,0.0,0.0,0.0,0.0,0.0,0.0,0.0,0.0,0.0,0.0,0.0,0.0,0.0,0.0,0.0,0.0,0.0,0.0,0.0,0.0,0.0,0.0,0.0,0.0,0.0,0.0,0.0,0.0,0.0,0.0,0.0,0.0,0.0,0.0,0.0,0.0,0.0,0.0,0.0,0.0,0.0,0.0,0.0,0.0,0.0,0.0,0.0,0.0,0.0,0.0,0.0,0.0,0.0,0.0,0.0,0.0,0.0,0.0,0.0,0.0,0.0,0.0,0.0,0.0,0.0,0.0,0.0,0.0,0.0,0.0,0.0,0.0,0.0,0.0,0.0,0.0,0.0,0.0,0.0,0.0,0.0,0.0,0.0,0.0,0.0,0.0,0.0,0.0,0.0,0.0,0.0,0.0,0.0,0.0,0.0,0.0,0.0,0.0,0.0,0.0,0.0,0.0,0.0,0.0,0.0,0.0,0.0,3.5113,3.7206,3.9469,4.1121,4.1751,3.7228,3.3255,0.0,0.0,0.0,0.0,0.0,0.0,0.0,0.0,0.0,0.0,0.0,0.0,0.0,0.0,0.0,0.0,0.0,0.0,0.0,0.0,0.0,0.0,0.0,0.0,0.0,0.0,0.0,0.0,0.0,0.0,0.0,0.0,0.0,0.0,0.0,0.0,0.0,0.0,0.0,0.0,0.0,0.0,0.0,0.0,0.0,0.0,0.0,0.0,0.0,0.0,0.0,0.0,0.0,0.0,0.0,0.0,0.0,0.0,0.0,0.0,0.0,0.0,0.0,0.0,0.0,0.0,0.0,0.0,0.0,0.0,0.0,0.0,0.0,0.0,0.0,0.0,0.0,0.0,0.0,0.0,0.0,0.0,0.0,0.0,0.0,0.0,0.0,0.0,0.0,0.0,0.0,0.0,0.0,0.0,0.0,0.0,0.0,0.0,0.0,0.0,0.0,0.0,0.0,0.0,0.0,0.0,0.0,0.0,3.5964,3.8804,4.008,4.1445,4.2918,3.9523,3.6309,0.0,0.0,0.0,0.0,0.0,0.0,0.0,0.0,0.0,0.0,0.0,0.0,0.0,0.0,0.0,0.0,0.0,0.0,0.0,0.0,0.0,0.0,0.0,0.0,0.0,0.0,0.0,0.0,0.0,0.0,0.0,0.0,0.0,0.0,0.0,0.0,0.0,0.0,0.0,0.0,0.0,0.0,0.0,0.0,0.0,0.0,0.0,0.0,1.6404,0.0,0.0,0.0,0.0,0.0,0.0,0.0,0.0,0.0,0.0,0.0,0.0,0.0,0.0,0.0,0.0,0.0,0.0,0.0,0.0,0.0,0.0,0.0,0.0,0.0,0.0,0.0,0.0,0.0,0.0,0.0,0.0,0.0,0.0,0.0,0.0,0.0,0.0,0.0,0.0,0.0,0.0,0.0,0.0,0.0,0.0,0.0,0.0,0.0,0.0,0.0,0.0,0.0,0.0,0.0,0.0,0.0,0.0,0.0,3.8353,4.1028,4.2316,4.3675,4.4963,4.2765,3.9316,0.0,0.0,0.0,0.0,0.0,0.0,0.0,0.0,0.0,0.0,0.0,0.0,0.0,0.0,0.0,0.0,0.0,0.0,0.0,0.0,0.0,0.0,0.0,0.0,0.0,0.0,0.0,0.0,0.0,0.0,0.0,0.0,0.0,0.0,0.0,0.0,0.0,0.0,0.0,0.0,0.0,0.0,0.0,0.0,0.0,0.0,0.0,0.0,0.0,0.0,0.0,0.0,0.0,0.0,0.0,0.0,0.0,0.0,0.0,0.0,0.0,0.0,0.0,0.0,0.0,0.0,0.0,0.0,0.0,0.0,0.0,0.0,0.0,0.0,0.0,0.0,0.0,0.0,0.0,0.0,0.0,0.0,0.0,0.0,0.0,0.0,0.0,0.0,0.0,0.0,0.0,0.0,0.0,0.0,0.0,0.0,0.0,0.0,0.0,0.0,0.0,0.0,0.0,0.0,0.0,0.0,0.0,3.7643,4.0676,4.3162,4.4676,4.6003,4.7095,4.5591,4.1898,3.601,0.0,0.0,0.0,0.0,0.0,0.0,0.0,0.0,0.0,0.0,0.0,0.0,0.0,0.0,0.0,0.0,0.0,0.0,0.0,0.0,0.0,0.0,0.0,0.0,0.0,0.0,0.0,0.0,0.0,0.0,0.0,0.0,0.0,0.0,0.0,0.0,0.0,0.0,2.0973,2.1129,0.0,0.0,0.0,0.0,0.0,0.0,0.0,0.0,1.768,0.0,0.0,0.0,0.0,0.0,0.0,0.0,0.0,0.0,0.0,0.0,0.0,0.0,0.0,0.0,0.0,0.0,0.0,0.0,0.0,0.0,0.0,0.0,0.0,0.0,0.0,0.0,0.0,0.0,0.0,0.0,0.0,0.0,0.0,0.0,0.0,0.0,0.0,0.0,0.0,0.0,0.0,0.0,0.0,0.0,0.0,0.0,0.0,0.0,0.0,0.0,0.0,0.0,0.0,0.0,0.0,3.7192,3.7965,4.0249,4.4217,4.485,4.5832,4.7095,4.5762,4.2946,3.8591,0.0,0.0,0.0,0.0,0.0,0.0,0.0,0.0,0.0,0.0,0.0,0.0,0.0,0.0,0.0,0.0,0.0,0.0,0.0,0.0,0.0,0.0,0.0,0.0,0.0,0.0,0.0,0.0,0.0,0.0,0.0,0.0,0.0,0.0,0.0,0.0,0.0,0.0,0.0,2.2962,2.1902,0.0,0.0,0.0,0.0,0.0,0.0,0.0,0.0,1.9273,0.0,0.0,0.0,0.0,0.0,0.0,0.0,0.0,0.0,0.0,0.0,0.0,0.0,0.0,0.0,0.0,0.0,0.0,0.0,0.0,0.0,0.0,0.0,0.0,0.0,0.0,0.0,0.0,0.0,0.0,0.0,0.0,0.0,0.0,0.0,0.0,0.0,0.0,0.0,0.0,0.0,0.0,0.0,0.0,0.0,0.0,0.0,0.0,0.0,0.0,0.0,0.0,0.0,0.0,0.0,3.7228,3.8867,4.14,4.4724,4.5138,4.5834,4.6978,4.4952,4.2396,0.0,0.0,0.0,0.0,0.0,0.0,0.0,0.0,0.0,0.0,0.0,0.0,0.0,0.0,0.0,0.0,0.0,0.0,0.0,0.0,0.0,0.0,0.0,0.0,0.0,0.0,0.0,0.0,0.0,0.0,0.0,0.0,0.0,0.0,0.0,0.0,0.0,0.0,0.0,0.0,2.4788,2.4325,2.3852,0.0,0.0,0.0,0.0,0.0,0.0,2.01,1.9957,0.0,0.0,0.0,0.0,0.0,0.0,0.0,0.0,0.0,0.0,0.0,0.0,0.0,0.0,0.0,0.0,0.0,0.0,0.0,0.0,0.0,0.0,0.0,0.0,0.0,0.0,0.0,0.0,0.0,0.0,0.0,0.0,0.0,0.0,0.0,0.0,0.0,0.0,0.0,0.0,0.0,0.0,0.0,0.0,0.0,0.0,0.0,0.0,0.0,0.0,0.0,0.0,0.0,0.0,0.0,3.6807,3.9547,4.2202,4.4738,4.5252,4.5711,4.6332,4.4004,4.1593,0.0,0.0,0.0,0.0,0.0,0.0,0.0,0.0,0.0,0.0,0.0,0.0,0.0,0.0,0.0,0.0,0.0,0.0,0.0,0.0,0.0,0.0,0.0,0.0,0.0,0.0,0.0,0.0,0.0,0.0,0.0,0.0,0.0,0.0,0.0,0.0,0.0,0.0,0.0,0.0,0.0,2.6574,2.5676,2.5722,0.0,0.0,0.0,0.0,2.1599,2.1667,0.0,0.0,0.0,0.0,0.0,0.0,0.0,0.0,0.0,0.0,0.0,0.0,0.0,0.0,0.0,0.0,0.0,0.0,0.0,0.0,0.0,0.0,0.0,0.0,0.0,0.0,0.0,0.0,0.0,0.0,0.0,0.0,0.0,0.0,0.0,0.0,0.0,0.0,0.0,0.0,0.0,0.0,0.0,0.0,0.0,0.0,0.0,0.0,0.0,0.0,0.0,0.0,0.0,0.0,0.0,0.0,3.701,3.8902,4.1234,4.3789,4.4819,4.5037,4.4597,4.3516,4.143,0.0,0.0,0.0,0.0,0.0,0.0,0.0,0.0,0.0,0.0,0.0,0.0,0.0,0.0,0.0,0.0,0.0,0.0,0.0,0.0,0.0,0.0,0.0,0.0,0.0,0.0,0.0,0.0,0.0,0.0,0.0,0.0,0.0,0.0,0.0,0.0,0.0,0.0,0.0,0.0,0.0,2.7609,2.5625,2.5739,2.5419,0.0,0.0,2.4963,2.5355,2.5566,0.0,0.0,0.0,0.0,0.0,0.0,0.0,0.0,0.0,0.0,0.0,0.0,0.0,0.0,0.0,0.0,0.0,0.0,0.0,0.0,0.0,0.0,0.0,0.0,0.0,0.0,0.0,0.0,0.0,0.0,0.0,0.0,0.0,0.0,0.0,0.0,0.0,0.0,0.0,0.0,0.0,0.0,0.0,0.0,0.0,0.0,0.0,0.0,0.0,0.0,0.0,0.0,0.0,0.0,0.0,3.5694,3.7704,4.0717,4.2981,4.4361,4.5023,4.4943,4.409,4.2618,4.0463,0.0,0.0,0.0,0.0,0.0,0.0,0.0,0.0,0.0,0.0,0.0,0.0,0.0,0.0,0.0,0.0,0.0,0.0,0.0,0.0,0.0,0.0,0.0,0.0,0.0,0.0,0.0,0.0,0.0,0.0,0.0,0.0,0.0,0.0,0.0,0.0,0.0,0.0,0.0,0.0,0.0,0.0,2.7995,2.86,0.0,0.0,0.0,2.756,2.6567,0.0,0.0,0.0,0.0,0.0,0.0,0.0,0.0,0.0,0.0,0.0,0.0,0.0,0.0,0.0,0.0,0.0,0.0,0.0,0.0,0.0,0.0,0.0,0.0,0.0,0.0,0.0,0.0,0.0,0.0,0.0,0.0,0.0,0.0,0.0,0.0,0.0,0.0,0.0,0.0,0.0,0.0,0.0,0.0,0.0,0.0,0.0,0.0,0.0,0.0,0.0,0.0,0.0,0.0,0.0,0.0,0.0,3.8312,4.2248,4.4518,4.4986,4.5571,4.5343,4.4248,4.2316,0.0,0.0,0.0,0.0,0.0,0.0,0.0,0.0,0.0,0.0,0.0,0.0,0.0,0.0,0.0,0.0,0.0,0.0,0.0,0.0,0.0,0.0,0.0,0.0,0.0,0.0,0.0,2.3589,0.0,0.0,0.0,0.0,0.0,0.0,0.0,0.0,0.0,0.0,0.0,0.0,0.0,0.0,2.9352,2.9911,3.0884,3.1202,0.0,0.0,2.9536,2.7645,2.7329,2.6606,0.0,0.0,0.0,0.0,0.0,0.0,0.0,0.0,0.0,0.0,0.0,0.0,0.0,0.0,0.0,0.0,0.0,0.0,0.0,0.0,0.0,0.0,0.0,0.0,0.0,0.0,0.0,0.0,0.0,0.0,0.0,0.0,0.0,0.0,0.0,0.0,0.0,0.0,0.0,0.0,0.0,0.0,0.0,0.0,0.0,0.0,0.0,0.0,0.0,0.0,0.0,0.0,0.0,0.0,0.0,3.8807,4.2413,4.4602,4.5208,4.6329,4.6308,4.5112,4.324,4.1088,0.0,0.0,0.0,0.0,0.0,0.0,0.0,0.0,0.0,0.0,0.0,0.0,0.0,0.0,0.0,0.0,0.0,0.0,0.0,0.0,0.0,0.0,0.0,0.0,0.0,0.0,0.0,0.0,0.0,0.0,0.0,0.0,0.0,0.0,0.0,0.0,0.0,0.0,0.0,0.0,0.0,3.0461,3.0056,3.1133,3.1816,0.0,0.0,3.0325,2.9291,2.9477,2.9002,2.6742,0.0,0.0,0.0,0.0,0.0,0.0,0.0,0.0,0.0,0.0,0.0,0.0,0.0,0.0,0.0,0.0,0.0,0.0,0.0,0.0,0.0,0.0,0.0,0.0,0.0,0.0,0.0,0.0,0.0,0.0,0.0,0.0,0.0,0.0,0.0,0.0,0.0,0.0,0.0,0.0,0.0,0.0,0.0,0.0,0.0,0.0,0.0,0.0,0.0,0.0,0.0,0.0,0.0,3.8688,4.032,4.3745,4.5562,4.558,4.6422,4.6168,4.4678,4.382,4.2181,0.0,0.0,0.0,0.0,0.0,0.0,0.0,0.0,0.0,0.0,0.0,0.0,0.0,0.0,0.0,0.0,0.0,0.0,0.0,0.0,0.0,0.0,0.0,0.0,0.0,0.0,0.0,0.0,2.7876,2.8109,2.864,0.0,0.0,0.0,0.0,0.0,0.0,0.0,0.0,0.0,0.0,3.3044,3.3765,3.3888,0.0,0.0,3.1559,3.047,2.9829,2.9166,2.8421,2.7531,2.6259,0.0,0.0,0.0,0.0,0.0,0.0,0.0,0.0,0.0,0.0,0.0,0.0,0.0,0.0,0.0,0.0,0.0,0.0,0.0,0.0,0.0,0.0,0.0,0.0,0.0,0.0,0.0,0.0,0.0,0.0,0.0,0.0,0.0,0.0,0.0,0.0,0.0,0.0,0.0,0.0,0.0,0.0,0.0,0.0,0.0,0.0,0.0,0.0,0.0,0.0,0.0,0.0,3.9772,4.144,4.4564,4.6152,4.605,4.6872,4.6586,4.5039,4.45,4.3219,0.0,0.0,0.0,0.0,0.0,0.0,0.0,0.0,0.0,0.0,0.0,0.0,0.0,0.0,0.0,0.0,0.0,0.0,0.0,0.0,0.0,0.0,0.0,0.0,0.0,0.0,0.0,0.0,2.9416,2.9738,3.0157,0.0,0.0,0.0,0.0,0.0,0.0,0.0,0.0,0.0,0.0,3.5105,3.6062,3.5549,3.4746,3.3763,3.203,3.0618,3.0077,2.9113,2.825,2.7593,0.0,0.0,0.0,0.0,0.0,0.0,0.0,0.0,0.0,0.0,0.0,0.0,0.0,0.0,0.0,0.0,0.0,0.0,0.0,0.0,0.0,0.0,0.0,0.0,0.0,0.0,0.0,0.0,0.0,0.0,4.3589,0.0,0.0,0.0,0.0,0.0,0.0,0.0,0.0,0.0,0.0,0.0,0.0,0.0,0.0,0.0,0.0,0.0,0.0,0.0,0.0,0.0,0.0,4.0643,4.2008,4.4546,4.609,4.6575,4.7882,4.7826,4.6521,4.5281,4.4076,4.291,0.0,0.0,0.0,0.0,0.0,0.0,0.0,0.0,0.0,0.0,0.0,0.0,0.0,0.0,0.0,0.0,0.0,0.0,0.0,0.0,0.0,0.0,0.0,0.0,0.0,0.0,3.0637,3.0483,3.0401,0.0,0.0,0.0,0.0,0.0,0.0,0.0,0.0,0.0,0.0,3.4731,3.6232,3.6197,3.5702,3.5077,3.4183,3.2384,3.0863,3.0214,2.9817,2.8948,0.0,0.0,0.0,0.0,0.0,0.0,0.0,0.0,0.0,0.0,0.0,0.0,0.0,0.0,0.0,0.0,0.0,0.0,0.0,0.0,0.0,0.0,0.0,0.0,0.0,0.0,0.0,4.829,4.6946,0.0,0.0,0.0,0.0,0.0,0.0,0.0,0.0,0.0,0.0,0.0,4.7439,4.789,0.0,0.0,0.0,0.0,0.0,0.0,0.0,0.0,0.0,0.0,0.0,0.0,4.0969,4.2622,4.3918,4.5092,4.6131,4.7038,4.7353,4.6898,4.6153,4.4578,4.2138,0.0,0.0,0.0,0.0,0.0,0.0,0.0,0.0,0.0,0.0,0.0,0.0,0.0,0.0,0.0,0.0,0.0,0.0,0.0,0.0,0.0,0.0,0.0,0.0,0.0,3.1303,0.0,0.0,0.0,0.0,0.0,0.0,0.0,0.0,0.0,0.0,0.0,3.4628,3.5585,3.7664,3.8994,3.8944,3.8374,3.7565,0.0,0.0,0.0,0.0,0.0,0.0,0.0,0.0,0.0,0.0,0.0,0.0,0.0,0.0,2.7016,2.3842,2.3293,2.3134,2.2441,0.0,0.0,0.0,0.0,0.0,0.0,0.0,0.0,0.0,0.0,0.0,0.0,0.0,0.0,5.1696,0.0,4.9958,0.0,0.0,0.0,0.0,0.0,0.0,0.0,0.0,4.9427,5.0626,5.1697,5.139,5.1252,0.0,4.9702,4.7497,0.0,0.0,0.0,0.0,0.0,0.0,0.0,0.0,4.1484,4.3152,4.3854,4.463,4.5677,4.6376,4.662,4.6407,4.6192,4.501,4.2725,4.1524,4.0201,0.0,0.0,0.0,0.0,0.0,0.0,0.0,0.0,0.0,0.0,0.0,0.0,0.0,0.0,0.0,0.0,0.0,0.0,0.0,0.0,0.0,0.0,0.0,3.2128,0.0,0.0,0.0,0.0,0.0,0.0,0.0,0.0,0.0,3.4809,3.5926,3.7176,3.8213,3.9524,4.0409,4.0409,0.0,0.0,0.0,0.0,0.0,0.0,0.0,3.301,3.3738,3.3023,3.2497,3.2932,3.2171,3.129,3.0608,0.0,0.0,2.5872,2.5344,2.5159,2.4489,2.4467,2.4679,2.512,2.5309,2.5138,0.0,0.0,0.0,0.0,0.0,0.0,0.0,0.0,5.4764,5.5995,0.0,5.4662,0.0,0.0,0.0,0.0,0.0,5.0326,0.0,0.0,5.4125,5.5961,5.7158,5.5104,5.4785,5.6023,5.3182,5.1442,5.0563,4.6334,0.0,0.0,0.0,0.0,0.0,0.0,4.2263,4.3593,4.4202,4.4765,4.5275,4.5917,4.5948,4.5358,4.5501,4.528,4.4572,4.3901,4.2633,4.0628,3.8662,0.0,0.0,0.0,0.0,0.0,0.0,0.0,0.0,0.0,0.0,0.0,0.0,0.0,0.0,0.0,0.0,0.0,0.0,0.0,0.0,3.3693,0.0,0.0,0.0,0.0,0.0,0.0,0.0,0.0,0.0,0.0,3.6507,3.8207,3.9808,4.0331,0.0,0.0,0.0,0.0,3.7461,3.7667,3.638,3.5296,3.4999,3.5554,3.5463,3.391,0.0,0.0,3.403,3.3244,3.2558,3.2082,3.1394,3.0158,2.8397,2.7911,2.7785,2.7785,2.7737,2.8061,2.8454,2.8337,2.7954,6.4656,0.0,0.0,0.0,0.0,6.118,6.1662,6.1937,6.1731,6.0905,5.9632,5.8049,0.0,0.0,0.0,0.0,0.0,0.0,5.4872,5.603,5.6678,5.7535,5.8497,5.7878,5.7501,5.7329,5.5994,5.4872,5.3923,5.1095,4.7636,4.3701,0.0,0.0,0.0,0.0,4.2725,4.3562,4.3809,4.4202,4.4772,4.5448,4.5694,4.554,4.5549,4.528,4.4641,4.3963,4.3094,4.2048,4.0474,0.0,0.0,0.0,0.0,0.0,0.0,0.0,0.0,0.0,0.0,0.0,0.0,0.0,0.0,0.0,0.0,0.0,0.0,0.0,3.4956,3.4773,3.5043,0.0,0.0,0.0,0.0,0.0,0.0,0.0,0.0,0.0,4.0741,4.0214,4.0096,0.0,0.0,4.0906,4.0488,4.0242,4.0018,3.9636,3.8877,0.0,3.7667,3.6839,3.6447,3.7086,3.7111,3.6824,3.6206,3.5308,3.4577,3.4202,3.3656,3.2899,3.186,2.9851,2.852,2.8442,2.8669,2.8938,2.9083,2.9352,2.9353,7.0394,6.7463,6.5359,6.4738,6.5221,6.5669,6.5911,6.6014,6.5428,6.4807,6.4083,6.1875,5.9702,5.7602,5.5813,0.0,0.0,0.0,5.7569,5.9116,5.8806,5.9461,6.0737,6.022,5.9702,5.922,5.8153,5.7192,5.633,5.4703,5.1798,4.7732,0.0,0.0,4.3522,4.3835,4.4221,4.4486,4.4502,4.4562,4.461,4.4972,4.5311,4.5588,4.5588,4.5526,4.5372,4.4764,4.4079,4.3402,4.1832,4.0447,0.0,0.0,0.0,0.0,0.0,0.0,0.0,0.0,0.0,0.0,0.0,3.5278,3.5243,0.0,0.0,0.0,3.5681,3.6246,3.6871,3.6926,0.0,0.0,0.0,0.0,0.0,0.0,0.0,4.1076,4.2052,4.2826,4.3455,4.2378,4.1549,4.1629,4.1334,4.1054,4.0923,0.0,4.0592,4.0435,3.9965,3.939,3.8815,3.8088,3.7848,3.859,3.8449,3.812,3.7741,3.6985,3.638,3.5966,3.5381,3.4679,3.3813,3.198,3.0426,2.9799,2.9438,2.9352,2.9518,2.9787,2.987,7.474,7.3809,7.105,6.9773,6.9572,6.9532,6.9187,6.8463,6.7118,6.7945,7.0015,6.5945,6.4255,6.4324,6.0254,0.0,5.8392,5.9047,6.0151,6.153,6.0771,6.1496,6.3393,6.1979,6.1323,6.1253,5.9745,5.8655,5.8048,5.7223,5.5719,5.3551,4.9826,4.7507,4.6619,4.6532,4.6433,4.6187,4.6127,4.5646,4.4743,4.4743,4.4984,4.551,4.5541,4.5851,4.65,4.5882,4.5294,4.4675,4.285,4.1422,4.0715,0.0,0.0,0.0,0.0,0.0,0.0,0.0,0.0,0.0,0.0,0.0,0.0,0.0,0.0,0.0,3.7923,0.0,3.9616,3.9637,0.0,0.0,0.0,3.9282,4.0666,4.1232,4.2041,4.3324,0.0,0.0,4.5084,4.4499,4.3827,4.326,4.1887,4.109,4.1617,4.068,3.9961,4.0455,4.0013,3.9464,3.8993,3.9081,3.9086,3.8637,3.8632,3.8585,3.8533,3.8173,3.7717,3.7295,3.6586,3.5759,3.4679,3.4171,3.3492,3.1837,3.0514,2.9682,3.0109,3.013,2.987,7.712,7.6361,7.5637,7.3981,7.1919,7.1919,7.2084,7.2395,7.205,7.136,7.0256,6.8635,6.6428,6.3772,6.2737,6.2255,6.2255,6.2427,6.3013,6.3772,6.253,6.222,6.2703,6.1772,6.1323,6.1254,6.0354,5.9803,5.9599,5.829,5.7054,5.5921,5.384,5.1525,4.8988,4.8846,4.877,4.8635,4.8067,4.7149,4.5783,4.5751,4.5524,4.5135,4.5135,4.549,4.6132,4.5385,4.5193,4.5584,4.4167,4.3041,4.2395,4.0479,0.0,0.0,0.0,0.0,0.0,0.0,0.0,0.0,0.0,3.7864,3.7529,0.0,3.8882,0.0,3.9622,4.032,4.1063,4.1001,0.0,0.0,4.2525,4.2828,4.4868,4.4639,4.4896,4.6366,4.6149,4.6113,4.6588,4.5886,4.5293,4.5114,4.3225,4.1834,4.194,4.1781,4.1413,4.102,4.0372,3.9833,3.9596,3.9171,3.8736,3.8187,3.8109,3.8109,3.8083,3.8004,3.786,3.7733,3.7609,3.714,3.6427,3.5515,3.4521,3.3594,3.2371,3.1382,3.1513,3.0733,2.9953,7.9268,7.8523,7.8174,7.7104,7.5456,7.4202,7.3912,7.4257,7.3947,7.2877,7.1325,7.0256,6.8428,6.6117,6.5428,6.5117,6.5083,6.4772,6.4634,6.4634,6.3841,6.3289,6.2944,6.253,6.2151,6.1806,6.1392,6.0875,6.0185,5.9323,5.853,5.7771,5.6288,5.4626,5.2876,5.1496,5.0391,4.9626,4.8495,4.7503,4.6651,4.629,4.5865,4.5505,4.5146,4.5179,4.5538,4.4821,4.4497,4.4624,4.3557,4.2846,4.2552,4.136,4.0714,0.0,0.0,0.0,0.0,0.0,0.0,0.0,0.0,0.0,0.0,0.0,4.0197,4.1233,4.1845,4.2581,4.3603,4.3806,4.4327,4.5519,4.5061,4.5273,4.6893,4.6631,4.6752,4.7876,4.7566,4.7395,4.7789,4.7046,4.6403,4.6403,4.4886,4.3511,4.2937,4.2242,4.1559,4.1239,4.0564,3.9885,3.9435,3.8972,3.8517,3.8136,3.8011,3.8011,3.79,3.79,3.7821,3.7586,3.7508,3.7299,3.6679,3.6032,3.5384,3.4962,3.3924,3.2711,3.1654,3.0802,3.0117,8.0905,8.011,7.9412,7.9125,7.8903,7.6285,7.5172,7.5059,7.43,7.3533,7.274,7.1291,7.0256,6.9463,6.8152,6.7463,6.7256,6.6497,6.5738,6.5014,6.4772,6.4358,6.3738,6.3634,6.3255,6.2634,6.253,6.1806,6.0496,6.0289,5.984,5.9116,5.7598,5.6805,5.6669,5.3916,5.1756,5.0272,4.8628,4.7671,4.7473,4.6814,4.6353,4.6156,4.5531,4.5137,4.5039,4.4514,4.3905,4.3363,4.2783,4.246,4.2426,4.2304,4.2506,0.0,4.316,0.0,0.0,0.0,0.0,0.0,0.0,0.0,0.0,4.0689,4.1591,4.3559,4.4242,4.5085,4.6303,4.6827,4.7083,4.7083,4.7018,4.7176,4.7721,4.7783,4.7999,4.8543,4.8604,4.8604,4.8521,4.7861,4.7392,4.7276,4.6417,4.5409,4.4414,4.2861,4.1752,4.1421,4.0775,3.9961,3.8823,3.861,3.8565,3.8172,3.8002,3.799,3.7703,3.7658,3.7482,3.7011,3.6907,3.6698,3.6123,3.6018,3.5922,3.5705,3.4844,3.3546,3.1899,3.1083,3.0387,8.0868,8.011,7.9412,7.9125,7.8938,7.7181,7.6443,7.633,7.5224,7.4292,7.3533,7.2636,7.1808,7.105,7.0774,6.998,6.8808,6.8049,6.7256,6.6531,6.529,6.4634,6.4462,6.3876,6.3531,6.3358,6.2772,6.2324,6.2048,6.0806,6.0116,5.9909,5.784,5.6805,5.6702,0.0,0.0,0.0,5.1165,4.9808,4.8582,4.8377,4.7728,4.6567,4.6396,0.0,4.5377,4.567,4.558,4.5007,4.5264,0.0,0.0,0.0,0.0,0.0,0.0,0.0,0.0,0.0,0.0,0.0,4.3322,4.2655,4.2848,4.387,4.5044,4.6365,4.6646,4.6833,4.7114,4.766,4.8026,4.8026,4.8493,4.8786,4.8738,4.8697,4.8718,4.8604,4.8604,4.8604,4.8563,4.8438,4.8313,4.8198,4.7081,4.6394,4.6505,4.4778,4.3333,4.2334,4.1314,3.9972,3.8149,3.8701,3.8682,3.7581,3.7369,3.7342,3.6929,3.6647,3.6462,3.6253,3.6279,3.6096,3.5521,3.5443,3.526,3.4816,3.4526,3.4178,3.3633,3.2651,3.1806,8.2764,0.0,8.0839,8.0514,0.0,7.8788,7.8157,7.8086,7.6126,7.4841,7.4114,7.3351,7.2762,7.2347,7.1497,7.0695,6.9935,6.8675,6.7497,6.6393,6.5255,6.4324,6.36,6.2841,6.2461,6.2461,6.2082,6.191,6.1875,6.1116,6.0565,6.0185,5.8633,5.7702,5.7288,5.546,5.4149,5.3425,5.2252,5.1114,4.9947,4.9189,4.843,4.7734,4.7355,0.0,0.0,0.0,0.0,0.0,0.0,0.0,0.0,0.0,0.0,4.7723,4.7432,4.7285,4.7344,4.7005,4.6971,4.7314,4.6712,4.5798,4.4735,4.5864,4.7089,4.7987,4.8074,4.82,4.8545,4.8812,4.8951,4.8951,4.9153,4.925,4.9169,4.9078,4.8955,4.88,4.8676,4.8604,4.8604,4.8604,4.8604,4.8563,4.7924,4.7266,4.6796,4.5302,4.3738,4.2722,4.1742,4.0683,3.9464,3.9104,3.8971,3.7765,3.7624,3.7413,3.6751,3.6471,3.614,3.5614,3.5345,3.5025,3.4241,3.4241,3.4345,3.411,3.4214,3.436,3.427,3.3266,3.2211,8.4518,8.3121,8.2365,8.2007,8.1901,8.0326,7.9682,7.9537,0.0,0.0,0.0,7.3618,7.3334,7.3154,7.1671,7.0862,7.0654,6.8972,6.7545,6.637,6.5299,6.4159,6.295,6.2052,6.1533,6.1395,6.143,6.143,6.143,6.1256,6.0841,6.022,5.9288,5.8461,5.7633,5.5977,5.4667,5.3804,5.2735,5.1808,5.1114,4.9878,4.9085,4.881,4.8189,4.781,4.7672,4.7251,4.644,4.5273,4.5937,4.6345,4.63,4.7665,4.9202,5.0745,5.1045,5.1045,5.0907,5.0355,4.9987,5.0037,4.946,4.8392,4.6635,4.7489,4.8352,4.9018,4.8934,4.9173,4.9797,4.9647,4.9496,4.9622,4.9533,4.9381,4.934,4.921,4.9118,4.8996,4.88,4.8646,4.8604,4.8604,4.8604,4.8573,4.8378,4.7958,4.6557,4.5042,4.373,4.2881,4.2181,4.1479,4.076,4.0275,3.9333,3.8254,3.8098,3.7774,3.6866,3.6396,3.587,3.5103,3.4673,3.4196,3.3275,3.3537,3.3706,3.3613,3.4031,3.4397,3.4314,3.3615,3.276,8.4035,8.3121,8.2329,8.2007,8.1937,8.1048,8.0332,7.9536,7.7046,7.5375,7.4364,7.3657,7.3334,7.3223,7.2389,7.1623,7.0858,6.932,6.8486,6.8176,6.6195,6.508,6.4839,6.3448,6.2405,6.1849,6.1814,6.1814,6.171,6.0913,6.0497,6.0255,5.8839,5.7736,5.7047,5.7253,5.6736,5.5288,5.3253,5.1873,5.1149,5.0907,5.0119,4.8879,4.8706,4.8327,4.7741,4.8224,4.8092,4.7348,4.8621,4.9074,4.8483,4.9796,5.0509,5.0218,5.0735,5.0838,5.0252,5.008,5.0017,5.0079,4.9929,4.9708,4.942,4.9008,4.9038,4.9641,4.9247,4.9173,4.9734,4.9394,4.926,4.9757,4.9821,4.9773,4.9582,4.9533,4.9372,4.9078,4.8955,4.8841,4.8646,4.8604,4.8604,4.8512,4.7989,4.725,4.6023,4.485,4.3856,4.3031,4.2707,4.2174,4.1435,4.1423,4.0472,3.8371,3.8309,3.7855,3.6115,3.5665,3.5393,3.5071,3.495,3.4576,3.3806,3.4187,3.4199,3.3773,3.402,3.4371,3.4319,3.4085,3.3943,8.4815,8.4339,8.3146,8.2875,8.3244,8.2486,8.1696,8.0823,7.9296,7.7915,7.6625,7.5418,7.4932,7.4787,7.3112,7.1926,7.1124,6.9474,6.8496,6.7939,6.5746,6.4702,6.4528,6.2684,6.157,6.1222,6.0839,6.084,6.1153,6.0772,6.0807,6.1155,6.0324,5.9148,5.7697,5.8184,5.7564,5.5635,5.5012,5.3942,5.239,5.1942,5.1154,5.008,5.005,4.9878,4.9597,5.0257,5.0292,4.9568,5.0631,5.1045,5.0705,5.1735,5.239,5.2425,5.239,5.2218,5.1873,5.108,5.0445,5.0108,5.0389,5.0598,5.0598,4.9926,4.9597,4.9889,4.9635,4.9595,4.9891,4.9629,4.9573,4.9868,4.99,4.9892,4.9773,4.9693,4.9501,4.9331,4.921,4.9047,4.8841,4.8831,4.8574,4.8081,4.7219,4.6265,4.568,4.4939,4.4264,4.3838,4.3367,4.2917,4.2356,4.1708,4.081,3.9287,3.8899,3.8065,3.6567,3.6071,3.5654,3.4942,3.4714,3.4366,3.3741,3.4086,3.4018,3.3594,3.4053,3.4301,3.3785,3.3718,3.3953,8.5483,8.5186,8.3997,8.3812,8.4295,8.3552,8.2846,8.2222,8.1631,8.0723,7.947,7.7486,7.6553,7.6265,7.3774,7.2223,7.1447,6.9357,6.8124,6.7531,6.5404,6.4287,6.4148,6.2264,6.1253,6.1008,6.0346,6.0278,6.0766,6.0628,6.0873,6.157,6.1641,6.0669,5.8796,5.9182,5.832,5.642,5.6802,5.5906,5.3494,5.2804,5.2084,5.1395,5.1528,5.1563,5.1395,5.205,5.2149,5.1459,5.208,5.2463,5.2528,5.3218,5.3736,5.3942,5.346,5.3046,5.2804,5.1632,5.0769,5.0562,5.0873,5.1183,5.13,5.0843,5.0493,5.0458,5.0353,5.0303,5.0391,4.9904,4.9796,5.0094,4.9852,4.9702,4.986,4.9773,4.9622,4.9582,4.9461,4.9291,4.9128,4.8953,4.8469,4.7494,4.6405,4.5727,4.5565,4.5041,4.4641,4.4496,4.4004,4.3563,4.3395,4.2445,4.1254,4.0354,3.9828,3.9016,3.7947,3.7388,3.7041,3.6089,3.5422,3.4992,3.4251,3.4245,3.418,3.3662,3.4137,3.4425,3.3549,3.3273,3.3561,8.5186,8.4555,8.4332,8.4332,8.4295,8.3552,8.318,8.3106,8.301,8.2943,8.2258,7.895,7.733,7.6901,7.4118,7.2727,7.23,6.8822,6.7584,6.7829,6.5724,6.4672,6.4637,6.3725,6.2952,6.2182,6.1481,6.1097,6.1132,6.0406,6.0239,6.0838,6.1535,6.1431,6.056,6.0492,5.9728,5.8164,5.8102,5.6554,5.3632,5.3356,5.2908,5.2119,5.2839,5.2839,5.2252,5.2873,5.2942,5.2252,5.2873,5.3287,5.3356,5.3977,5.3839,5.2632,5.236,5.2046,5.139,5.0562,5.0666,5.1774,5.1425,5.1459,5.2015,5.2031,5.1999,5.1895,5.1462,5.1317,5.1768,5.0314,4.9681,5.0585,4.9726,4.9236,4.9671,4.9892,4.9812,4.9613,4.955,4.9533,4.9269,4.8783,4.8049,4.7198,4.6385,4.5719,4.5511,4.5041,4.4548,4.4579,4.4496,4.4181,4.3676,4.3506,4.2281,4.083,4.083,4.0313,3.939,3.9296,3.9537,3.8282,3.794,3.7046,3.5997,3.5417,3.509,3.4339,3.4432,3.4609,3.4192,3.3575,3.3366,8.6004,8.6375,8.448,8.396,8.4369,8.4518,8.4332,8.3923,8.3923,8.3626,8.2928,8.0456,7.914,7.8614,7.5921,7.421,7.3204,7.0802,6.9352,6.868,6.6884,6.5829,6.5338,6.4601,6.3863,6.3091,6.2319,6.1722,6.1371,6.134,6.1274,6.1175,6.2158,6.2124,6.0972,6.0733,5.9901,5.8474,5.834,5.7473,5.5882,5.5038,5.4563,5.4256,5.4529,5.4532,5.4287,5.4563,5.4563,5.4187,5.4115,5.4046,5.4046,5.4356,5.4218,5.3563,5.267,5.1877,5.1149,5.0424,5.0666,5.2084,5.1942,5.208,5.2839,5.3322,5.3576,5.3425,5.2488,5.1926,5.2034,5.0651,4.9856,5.02,4.9164,4.8484,4.8667,4.9078,4.926,4.9213,4.9521,4.9733,4.9439,4.8778,4.7972,4.7169,4.6447,4.5804,4.5287,4.484,4.4456,4.4117,4.4024,4.3932,4.3562,4.2848,4.2088,4.1412,4.134,4.1049,4.036,4.0461,4.0642,3.9954,3.9508,3.8917,3.8026,3.7214,3.6626,3.5593,3.4244,3.4113,3.4653,3.4056,3.3895,8.6264,8.6858,8.4332,8.3663,8.4443,8.5038,8.4778,8.4146,8.4295,8.3923,8.3069,8.1434,8.0422,7.9609,7.7044,7.5083,7.3929,7.2083,7.0601,6.9391,6.797,6.6988,6.6459,6.5688,6.4952,6.4214,6.3442,6.2529,6.1827,6.2599,6.2564,6.1934,6.2816,6.2608,6.1243,6.0936,6.0346,5.9299,5.8953,5.8711,5.8502,5.7374,5.6383,5.5865,5.6144,5.6146,5.5731,5.6046,5.6046,5.5632,5.5081,5.4701,5.4494,5.4494,5.4425,5.4115,5.2946,5.205,5.1735,5.1045,5.1149,5.2356,5.2528,5.277,5.3391,5.408,5.4494,5.4359,5.3322,5.2595,5.2694,5.1497,5.072,5.0788,4.9673,4.8834,4.8897,4.9235,4.9476,4.9282,4.9608,4.9757,4.9418,4.8851,4.8271,4.7684,4.6725,4.5981,4.547,4.507,4.45,4.3932,4.3624,4.3217,4.3069,4.2355,4.1617,4.1463,4.1454,4.1643,4.1025,4.1465,4.1572,4.0965,4.0719,4.0197,3.9349,3.8698,3.7884,3.6529,3.5322,3.4636,3.5332,3.4781,3.454,8.5632,8.5483,8.3923,8.3812,8.4443,8.4555,8.4072,8.3552,8.4109,8.3923,8.2957,8.1434,8.0691,8.0279,7.6729,7.4882,7.4389,7.1878,7.0485,7.0097,6.8773,6.8052,6.795,6.7235,6.6461,6.5478,6.4952,6.3863,6.2564,6.3793,6.3828,6.2459,6.3126,6.281,6.1443,6.1165,6.1198,6.0919,6.0194,6.0408,6.1457,6.0173,5.8333,5.6631,5.7374,5.7311,5.6307,5.7146,5.7116,5.5667,5.5598,5.5253,5.4598,5.4494,5.425,5.3525,5.2701,5.2563,5.3042,5.2425,5.2425,5.3184,5.3287,5.3356,5.3529,5.4115,5.4494,5.4494,5.3804,5.357,5.3888,5.2561,5.2099,5.2573,5.1691,5.0821,5.0714,5.0499,5.0583,4.9977,4.9805,4.9671,4.9071,4.892,4.8765,4.8333,4.7345,4.6573,4.6516,4.5718,4.4922,4.4377,4.3599,4.2479,4.1899,4.1555,4.1217,4.1124,4.1524,4.2196,4.2325,4.2319,4.2149,4.1943,4.1579,4.1055,4.0435,3.9668,3.8763,3.7748,3.7023,3.6618,3.642,3.5781,3.5507,8.6041,8.5669,8.6115,8.6189,8.5929,8.5929,8.5483,8.474,8.448,8.3626,8.2363,8.1211,8.0431,7.9799,7.7376,7.6263,7.6059,7.4074,7.2606,7.153,7.0087,6.8686,6.7407,6.7502,6.6703,6.5408,6.5829,6.5373,6.4004,6.4004,6.3442,6.2599,6.267,6.2283,6.1371,6.0774,6.0774,6.123,6.0919,6.1062,6.1553,6.0996,5.9806,5.8129,5.8191,5.834,5.827,5.7823,5.7235,5.668,5.668,5.6122,5.4981,5.4807,5.446,5.3797,5.345,5.3415,5.3558,5.2879,5.2957,5.4098,5.3729,5.3632,5.4046,5.4356,5.4494,5.446,5.4287,5.4115,5.3404,5.2072,5.1011,5.1117,5.0459,4.979,4.9378,4.9772,5.008,4.9518,4.9617,4.9805,4.9631,4.9521,4.9323,4.8835,4.8222,4.769,4.7223,4.6389,4.5559,4.4986,4.4204,4.3211,4.2066,4.1295,4.0847,4.094,4.1181,4.1648,4.1894,4.2294,4.2252,4.2063,4.1858,4.1876,4.1267,4.0604,3.9654,3.8639,3.7936,3.7812,3.7491,3.7025,3.6585,8.6338,8.5818,8.6821,8.6784,8.6115,8.6301,8.5781,8.4852,8.4518,8.3626,8.24,8.1508,8.0654,7.9762,7.8462,7.7682,7.732,7.5846,7.4384,7.3074,7.1589,7.0132,6.8795,6.8213,6.7394,6.6422,6.6954,6.6602,6.5233,6.4846,6.4039,6.288,6.2529,6.2003,6.13,6.0493,6.0493,6.116,6.13,6.1406,6.1581,6.1652,6.116,6.0215,5.9601,5.9264,5.9304,5.8505,5.7915,5.7706,5.7637,5.7077,5.5928,5.5545,5.5166,5.4709,5.4365,5.4256,5.4191,5.3589,5.3706,5.4641,5.4174,5.4011,5.446,5.4494,5.4494,5.4494,5.4253,5.3908,5.3229,5.185,5.0816,5.0754,5.0576,5.0122,4.9458,5.0416,5.0689,5.0334,5.0256,5.0229,4.9949,4.9687,4.9254,4.8649,4.8268,4.7781,4.7258,4.6736,4.6028,4.5335,4.483,4.3889,4.2829,4.1876,4.1082,4.1017,4.1098,4.137,4.1494,4.1955,4.2171,4.2078,4.2171,4.2355,4.2082,4.1425,4.0467,3.9313,3.906,3.9026,3.8708,3.8347,3.789,8.6375,8.5781,8.5669,8.5521,8.5075,8.5483,8.474,8.3812,8.4035,8.3626,8.2623,8.214,8.1211,8.0505,7.9539,7.8945,7.8128,7.6698,7.5521,7.4539,7.3111,7.2283,7.178,6.9548,6.8791,6.9051,6.8541,6.7516,6.6321,6.6532,6.5759,6.3828,6.2915,6.2319,6.1406,6.0739,6.0598,6.13,6.1441,6.1652,6.2317,6.2319,6.2246,6.2108,6.1513,6.0501,5.9045,5.9336,5.9201,5.8574,5.8505,5.8122,5.7318,5.6551,5.6137,5.5959,5.5405,5.5022,5.4987,5.4795,5.4634,5.4884,5.4623,5.446,5.4632,5.4563,5.4494,5.4425,5.3977,5.3494,5.3356,5.264,5.2024,5.2222,5.2348,5.2509,5.2126,5.2706,5.301,5.2082,5.1463,5.0826,5.0123,4.971,4.9167,4.8461,4.7925,4.7463,4.7219,4.6949,4.6284,4.5559,4.519,4.4606,4.3559,4.2583,4.1794,4.1193,4.1233,4.1344,4.1063,4.1278,4.1304,4.1274,4.1709,4.1925,4.1894,4.1301,4.1311,4.0496,4.0431,4.0046,3.9847,3.948,3.8966,8.7527,8.7304,8.7304,8.7192,8.6821,8.6004,8.5261,8.4666,8.344,8.2251,8.1508,8.1211,8.0654,7.9985,7.9576,7.9354,7.9019,7.7979,7.705,7.6132,7.4633,7.3361,7.2414,7.1457,7.1215,7.1283,7.0263,6.9492,6.8926,6.8223,6.6672,6.4706,6.4144,6.3618,6.2845,6.1652,6.1546,6.2599,6.1827,6.1652,6.2319,6.2422,6.2422,6.2387,6.2178,6.1724,6.127,6.0959,6.0401,5.9631,6.0086,5.9806,5.851,5.718,5.6514,5.6409,5.5779,5.5359,5.5329,5.5209,5.5266,5.5456,5.5088,5.4966,5.5115,5.4805,5.4529,5.4494,5.4253,5.4011,5.3494,5.3218,5.2632,5.1597,5.2597,5.2915,5.2021,5.2221,5.2371,5.2285,5.1976,5.1536,5.0933,5.0399,4.9864,4.9322,4.9287,4.9177,4.8349,4.8011,4.7663,4.6613,4.6066,4.5466,4.4425,4.3661,4.305,4.1994,4.1596,4.133,4.0951,4.0728,4.0693,4.0782,4.1217,4.1494,4.1427,4.1304,4.1278,4.1124,4.0581,4.0506,4.0746,4.0466,3.989,8.8381,8.8121,8.8084,8.7898,8.749,8.6152,8.5595,8.5298,8.3366,8.214,8.1657,8.1323,8.0542,7.9651,7.9502,7.9316,7.9019,7.8499,7.8016,7.7347,7.5824,7.4522,7.3646,7.3382,7.2971,7.2604,7.1975,7.1524,7.1204,6.9989,6.8434,6.6702,6.5863,6.5198,6.4425,6.3267,6.3021,6.3372,6.2354,6.1932,6.2317,6.2422,6.2529,6.281,6.3091,6.3231,6.3231,6.2775,6.1932,6.0844,6.0774,6.0317,5.9369,5.8246,5.7509,5.7368,5.6806,5.628,5.5969,5.5814,5.5798,5.599,5.532,5.5095,5.5383,5.4975,5.4529,5.4494,5.4494,5.4322,5.3908,5.3804,5.3253,5.2149,5.2804,5.308,5.2471,5.274,5.3037,5.3045,5.2573,5.1934,5.1329,5.046,5.0059,4.9492,4.959,4.9754,4.8909,4.9001,4.8356,4.7913,4.7726,4.6778,4.54,4.4747,4.4319,4.3151,4.2022,4.151,4.1034,4.0804,4.0708,4.0632,4.0909,4.1555,4.155,4.1151,4.0966,4.0751,4.0812,4.062,4.0703,4.1014,4.0675,8.8753,8.8121,8.8084,8.7601,8.6821,8.5966,8.5521,8.5223,8.37,8.2846,8.266,8.1954,8.0988,7.9799,7.9688,7.9428,7.8685,7.8685,7.8536,7.8053,7.7013,7.6142,7.5615,7.5252,7.4529,7.353,7.3752,7.3579,7.2967,7.2171,7.1008,6.9437,6.8183,6.6989,6.6319,6.5336,6.4457,6.3897,6.288,6.2387,6.2422,6.2422,6.267,6.3372,6.4004,6.4355,6.4285,6.4179,6.3372,6.1581,6.0633,6.0142,5.9931,5.9405,5.8843,5.8737,5.8211,5.7333,5.6741,5.637,5.6383,5.6462,5.5657,5.5161,5.5787,5.528,5.4632,5.4529,5.4494,5.4494,5.4425,5.4425,5.4046,5.3598,5.3391,5.3598,5.4322,5.4359,5.4235,5.406,5.3191,5.2008,5.1412,5.0198,4.9205,4.8652,4.8625,4.8925,4.8597,4.9028,4.9194,4.896,4.8524,4.7895,4.6444,4.5773,4.5312,4.4365,4.3192,4.2407,4.1669,4.1376,4.121,4.1075,4.094,4.1524,4.1771,4.1524,4.1401,4.1524,4.1309,4.0751,4.0874,4.1401,4.152,8.8307,8.8084,8.8084,8.7601,8.6747,8.5929,8.5261,8.4555,8.3032,8.2103,8.1471,8.1137,8.084,8.0394,8.0357,8.058,8.0617,8.0245,7.9688,7.9279,7.9465,7.8276,7.7199,7.7172,7.6855,7.6064,7.6026,7.5916,7.519,7.4413,7.329,7.1878,7.1294,7.0427,6.9201,6.739,6.6061,6.509,6.3335,6.2492,6.2457,6.2422,6.2459,6.2705,6.3477,6.3863,6.3898,6.3898,6.3407,6.2178,6.0774,6.0107,6.0036,5.944,5.9089,5.8948,5.8316,5.7509,5.6842,5.6601,5.6755,5.7087,5.6272,5.605,5.6581,5.5833,5.5115,5.4701,5.4494,5.4494,5.4494,5.4494,5.4356,5.4218,5.377,5.3736,5.4322,5.4494,5.4494,5.4391,5.3632,5.275,5.1905,5.1024,5.0142,4.9718,4.9937,5.0286,4.9569,5.0116,5.0723,4.9061,4.8365,4.82,4.7671,4.6971,4.6241,4.5488,4.4562,4.3784,4.3067,4.2474,4.2399,4.2355,4.1974,4.2278,4.2361,4.2263,4.2325,4.2268,4.2048,4.1709,4.1925,4.2294,4.2263,8.8381,8.8084,8.8084,8.7787,8.7192,8.6078,8.5521,8.5038,8.3329,8.2251,8.1657,8.0951,8.0691,8.0654,8.0357,8.0654,8.1285,8.0914,8.0431,8.0245,8.0802,8.0171,7.9019,7.8871,7.8685,7.8546,7.7937,7.7643,7.7304,7.6465,7.527,7.4264,7.382,7.2854,7.13,7.012,6.8428,6.6871,6.5074,6.395,6.2984,6.2529,6.2635,6.274,6.3126,6.3196,6.3477,6.3302,6.2599,6.1581,6.0844,6.0458,6.0107,5.9721,5.9475,5.944,5.9018,5.8457,5.7719,5.7333,5.7412,5.7705,5.7025,5.6833,5.7126,5.6482,5.5453,5.5081,5.4736,5.4529,5.4494,5.4494,5.4494,5.4425,5.4115,5.4046,5.4494,5.4494,5.4494,5.4322,5.3839,5.3115,5.2321,5.1567,5.0838,5.0395,5.0754,5.0639,5.0325,5.1458,5.1843,5.021,4.928,4.9278,4.885,4.8099,4.7307,4.655,4.6053,4.5245,4.4275,4.3545,4.3203,4.3101,4.2957,4.2911,4.3061,4.3086,4.287,4.2808,4.2736,4.2633,4.2663,4.2848,4.2848,8.8753,8.8084,8.8084,8.8047,8.7675,8.6375,8.5929,8.5966,8.4183,8.3143,8.2623,8.1434,8.0988,8.0802,8.0245,8.0134,8.0914,8.0988,8.1063,8.1211,8.1694,8.1508,8.0617,8.0097,8.0059,8.0134,7.9094,7.9065,7.9006,7.8115,7.7236,7.652,7.5839,7.447,7.3098,7.2522,7.1087,6.8669,6.7393,6.5785,6.4301,6.3569,6.3502,6.3302,6.3231,6.3196,6.3372,6.3056,6.2143,6.0458,6.0984,6.0844,6.0317,6.0212,6.0072,6.0001,5.9861,5.9545,5.9018,5.8246,5.8176,5.8499,5.7495,5.7095,5.7776,5.6958,5.5931,5.5495,5.4908,5.4563,5.4494,5.4494,5.4494,5.4494,5.446,5.4494,5.4494,5.4494,5.4494,5.446,5.3873,5.3115,5.2425,5.1701,5.1045,5.1045,5.1459,5.1542,5.1554,5.2248,5.2317,5.1466,5.0895,5.072,5.0036,4.9255,4.8453,4.7703,4.7441,4.6714,4.5351,4.4585,4.4008,4.3693,4.3821,4.3967,4.4096,4.393,4.3682,4.3479,4.3468,4.3142,4.2884,4.3193,4.3316,8.827,8.8084,8.8084,8.7675,8.7081,8.6672,8.5929,8.4963,8.4406,8.344,8.24,8.1843,8.1694,8.1694,8.0914,8.0914,8.1694,8.1768,8.2028,8.266,8.2771,8.2474,8.1806,8.1434,8.1174,8.0802,8.0394,8.0282,8.0225,7.9916,7.9488,7.8726,7.8034,7.712,7.4652,7.3823,7.231,7.0051,6.9023,6.7523,6.5807,6.5542,6.4961,6.3859,6.3898,6.3934,6.3758,6.4004,6.3442,6.2248,6.1546,6.1371,6.102,6.0493,6.0247,6.0177,6.0142,5.9791,5.9159,5.8878,5.8808,5.8987,5.8615,5.825,5.8229,5.7511,5.6482,5.5734,5.4977,5.4701,5.4598,5.4529,5.4494,5.4494,5.4494,5.4494,5.4494,5.4494,5.4494,5.4356,5.3908,5.3322,5.3149,5.2425,5.1977,5.1873,5.208,5.2459,5.277,5.3049,5.2839,5.2321,5.1572,5.1172,5.0708,4.9892,4.9083,4.8606,4.8448,4.8095,4.6716,4.5986,4.5582,4.5179,4.4903,4.5039,4.5353,4.5091,4.4908,4.4591,4.4246,4.3925,4.3727,4.3803,4.3445,8.8084,8.8084,8.8084,8.7824,8.7378,8.6969,8.6301,8.5446,8.4666,8.3923,8.3069,8.24,8.24,8.2994,8.1954,8.1954,8.2771,8.2697,8.2771,8.3106,8.3143,8.2957,8.266,8.2474,8.2103,8.136,8.084,8.0877,8.1063,8.0617,7.9957,7.9948,7.9391,7.8071,7.6585,7.5604,7.3852,7.1735,7.085,6.9418,6.7286,6.6746,6.5865,6.4208,6.425,6.4355,6.3723,6.3934,6.3898,6.3407,6.2775,6.2178,6.1827,6.1406,6.1055,6.0704,6.0668,6.0282,5.9721,5.9264,5.9299,6.0036,5.966,5.9531,5.9334,5.8753,5.7825,5.6934,5.6146,5.5495,5.5081,5.4632,5.4563,5.4494,5.4529,5.4529,5.4529,5.4529,5.4494,5.446,5.4184,5.377,5.3356,5.2977,5.2563,5.2287,5.2701,5.3046,5.3046,5.3322,5.3494,5.3011,5.205,5.1434,5.1094,5.0429,4.9603,4.932,4.926,4.8855,4.8085,4.7669,4.7374,4.6831,4.617,4.6518,4.6666,4.6378,4.5957,4.5691,4.5322,4.4903,4.4455,4.4065,4.3547,8.827,8.8233,8.8158,8.8084,8.7935,8.7155,8.6672,8.6301,8.5038,8.4332,8.4183,8.2883,8.3292,8.3997,8.3069,8.318,8.3366,8.3069,8.2586,8.3143,8.344,8.344,8.3366,8.3292,8.2957,8.214,8.162,8.1657,8.1657,8.0914,8.0802,8.0654,7.9716,7.8806,7.8248,7.7506,7.5801,7.3349,7.2924,7.1786,6.9616,6.8744,6.7633,6.6015,6.5741,6.5741,6.5136,6.4858,6.4621,6.4948,6.4314,6.3543,6.2949,6.2389,6.2178,6.1476,6.1441,6.116,6.0668,6.0142,6.0247,6.1406,6.0739,6.0501,6.0583,5.9788,5.8822,5.7933,5.7007,5.615,5.577,5.5219,5.4874,5.4874,5.4839,5.4736,5.4805,5.4701,5.4529,5.4494,5.4391,5.4149,5.3908,5.3563,5.3115,5.2839,5.3287,5.3563,5.3529,5.3494,5.3667,5.3494,5.2528,5.1636,5.1227,5.102,5.0189,4.9987,5.0012,4.9671,4.927,4.8951,4.8545,4.7901,4.7572,4.7671,4.7441,4.6879,4.6543,4.6567,4.6067,4.5346,4.4767,4.427,4.3725,8.9087,8.905,8.8381,8.8084,8.7973,8.7192,8.6486,8.5706,8.4889,8.4406,8.4332,8.4109,8.4369,8.4889,8.448,8.3552,8.2809,8.214,8.2177,8.318,8.3737,8.3997,8.4035,8.3886,8.3626,8.318,8.2697,8.2697,8.2846,8.2697,8.1917,8.1731,8.1285,8.032,7.8833,7.8016,7.7171,7.53,7.4977,7.3997,7.2826,7.243,7.1677,6.9633,6.9078,6.853,6.7976,6.7364,6.6957,6.6521,6.5782,6.5065,6.4311,6.3262,6.2631,6.2283,6.2213,6.2073,6.1757,6.1792,6.1862,6.2003,6.1581,6.1095,6.0788,5.9851,5.9164,5.8137,5.7075,5.6081,5.6564,5.5839,5.5839,5.5977,5.5803,5.563,5.5872,5.5389,5.4629,5.456,5.4526,5.4494,5.4253,5.408,5.3873,5.3667,5.3873,5.408,5.408,5.3908,5.3804,5.346,5.2908,5.2114,5.136,5.1222,5.0853,5.0686,5.0646,5.0509,5.0193,5.0007,4.9573,4.8967,4.8322,4.7929,4.7632,4.7367,4.7173,4.7177,4.6487,4.5702,4.5468,4.516,4.4385,8.9273,8.9198,8.8418,8.8084,8.801,8.7675,8.7007,8.6152,8.5372,8.4778,8.448,8.4443,8.4592,8.4926,8.5112,8.4295,8.3217,8.24,8.2734,8.3737,8.3812,8.4035,8.4257,8.4035,8.3886,8.3626,8.344,8.318,8.3143,8.2697,8.2623,8.2437,8.1843,8.0654,7.9725,7.9131,7.8053,7.6865,7.6456,7.5976,7.4857,7.4961,7.3769,7.2502,7.1661,7.0905,6.9848,6.9413,6.8753,6.8115,6.7693,6.6889,6.5969,6.5138,6.4193,6.3363,6.3054,6.281,6.2494,6.2457,6.2529,6.2915,6.2635,6.225,6.173,6.1,5.9892,5.876,5.7867,5.7042,5.7322,5.6422,5.6245,5.6591,5.6344,5.6235,5.6235,5.575,5.5306,5.4862,5.4664,5.4632,5.4494,5.4425,5.4494,5.4494,5.4529,5.4494,5.4494,5.4322,5.4046,5.3804,5.3322,5.2494,5.1873,5.177,5.1666,5.1528,5.1222,5.1149,5.1011,5.0774,5.0484,5.0059,4.9348,4.8664,4.8744,4.8795,4.8321,4.7809,4.7517,4.7128,4.6612,4.6059,4.5339,8.9421,8.9236,8.8418,8.8084,8.8047,8.7675,8.7155,8.6449,8.5446,8.4778,8.4443,8.4406,8.4518,8.4666,8.4815,8.4629,8.4072,8.3217,8.3254,8.3737,8.3552,8.3663,8.422,8.3812,8.3552,8.4109,8.3552,8.3292,8.3366,8.2809,8.2734,8.2697,8.1694,8.1063,8.084,8.0357,7.9047,7.8128,7.7756,7.7347,7.6569,7.5678,7.4801,7.3654,7.341,7.2741,7.1881,7.1472,7.096,7.0301,6.9642,6.8893,6.7792,6.7271,6.6268,6.4751,6.4101,6.3476,6.3126,6.2951,6.3337,6.3758,6.3653,6.3126,6.2356,6.1557,6.0833,5.9625,5.8591,5.8177,5.8076,5.7175,5.6963,5.727,5.7158,5.6697,5.6703,5.6498,5.6091,5.5614,5.5107,5.4975,5.5012,5.4563,5.4598,5.477,5.4805,5.4529,5.4494,5.4494,5.4322,5.4184,5.3736,5.2908,5.2459,5.2394,5.2425,5.2425,5.2011,5.1671,5.1597,5.1494,5.1137,5.0811,5.0463,4.9907,5.0095,4.9775,4.8949,4.8447,4.8621,4.8399,4.7717,4.7234,4.6742,8.9942,8.9236,8.8418,8.8084,8.7861,8.6561,8.5892,8.5632,8.4295,8.3886,8.4295,8.4443,8.4778,8.5075,8.3997,8.3552,8.3292,8.2809,8.2846,8.3514,8.3366,8.3923,8.4963,8.3849,8.3886,8.4295,8.37,8.37,8.3849,8.3403,8.3032,8.3032,8.2883,8.2511,8.1657,8.1434,8.084,7.9614,7.9837,7.9725,7.8833,7.7562,7.6783,7.6356,7.5782,7.5199,7.4626,7.4118,7.3591,7.2936,7.1668,7.0683,6.9806,6.8428,6.7782,6.6813,6.5788,6.453,6.4422,6.4213,6.4179,6.4285,6.4039,6.3267,6.2496,6.1345,6.0478,5.9851,5.8927,5.876,5.9072,5.8415,5.8482,5.8511,5.8365,5.8052,5.7947,5.7355,5.6947,5.651,5.607,5.587,5.577,5.515,5.4701,5.4908,5.5012,5.4701,5.4494,5.4494,5.4287,5.408,5.4115,5.3391,5.3046,5.3011,5.3149,5.3253,5.277,5.2326,5.2425,5.2321,5.177,5.1434,5.1149,5.0735,5.0321,4.9844,4.9195,4.9011,4.911,4.8958,4.8633,4.8323,4.8137,8.9347,8.853,8.7712,8.7378,8.7192,8.6078,8.5595,8.5372,8.4406,8.3775,8.3849,8.4257,8.5075,8.5521,8.4183,8.4035,8.4555,8.3403,8.3106,8.3514,8.3514,8.3812,8.448,8.4295,8.4332,8.4555,8.4406,8.4406,8.448,8.3849,8.318,8.3217,8.318,8.2697,8.214,8.2028,8.1248,8.0542,8.0431,8.0468,7.9948,7.9094,7.8453,7.8453,7.7608,7.705,7.653,7.627,7.5632,7.4866,7.3656,7.2567,7.1552,7.0325,6.9296,6.7734,6.7554,6.6621,6.5483,6.5014,6.481,6.4671,6.4355,6.3934,6.3056,6.1972,6.1171,6.1177,6.0346,6.0035,5.9898,5.9131,5.9164,5.9229,5.9329,5.8977,5.8701,5.8325,5.7843,5.7439,5.7069,5.6869,5.6598,5.5943,5.546,5.546,5.5219,5.4701,5.4563,5.4494,5.4184,5.3804,5.3908,5.3908,5.3701,5.3598,5.3873,5.3873,5.3391,5.3149,5.3425,5.3253,5.2597,5.2188,5.2046,5.1459,5.0671,5.0361,5.0159,4.9878,4.9568,4.9706,4.9844,4.9987,4.9855,8.8418,8.7452,8.6969,8.6672,8.6412,8.5632,8.5298,8.5186,8.4406,8.3737,8.3477,8.3812,8.4778,8.5335,8.4109,8.3997,8.5521,8.3997,8.37,8.37,8.3626,8.3589,8.3997,8.4183,8.4629,8.5298,8.4592,8.4629,8.4555,8.4035,8.3292,8.3477,8.3589,8.3106,8.2511,8.2326,8.1991,8.1508,8.0914,8.0802,8.0802,8.0208,7.9837,7.9502,7.9019,7.8313,7.7793,7.7412,7.6939,7.6466,7.5622,7.4552,7.3425,7.2235,7.0956,6.9628,6.9165,6.844,6.7132,6.6203,6.5326,6.4911,6.4494,6.4004,6.3547,6.288,6.232,6.2082,6.1597,6.1215,6.0971,6.02,6.0303,6.0299,6.0083,5.9689,5.9236,5.8908,5.8502,5.8059,5.7794,5.794,5.7528,5.6805,5.6391,5.6115,5.5563,5.4839,5.4598,5.4563,5.4322,5.3977,5.4046,5.4218,5.4149,5.4149,5.4425,5.4391,5.3908,5.377,5.3977,5.3804,5.3256,5.298,5.2808,5.2287,5.1563,5.136,5.1222,5.1011,5.0873,5.1114,5.1287,5.139,5.1188,8.723,8.5818,8.6524,8.6338,8.5632,8.4815,8.448,8.4518,8.3663,8.3292,8.3217,8.3329,8.3514,8.3552,8.3589,8.3403,8.3589,8.3292,8.3329,8.3292,8.3217,8.3292,8.3626,8.4035,8.4406,8.4443,8.4369,8.448,8.4369,8.3923,8.3775,8.4183,8.3923,8.3663,8.3254,8.2883,8.2883,8.2363,8.1657,8.136,8.1471,8.1137,8.0617,8.0431,7.9874,7.9354,7.9279,7.8685,7.8202,7.7942,7.7162,7.6196,7.4957,7.3781,7.2452,7.1384,7.0643,6.9989,6.9026,6.7642,6.6507,6.5542,6.4754,6.4208,6.396,6.3017,6.2529,6.2601,6.2396,6.2222,6.2152,6.2045,6.159,6.1202,6.0777,6.0253,5.9838,5.9471,5.9064,5.8616,5.8451,5.8493,5.846,5.7771,5.7253,5.7012,5.5874,5.5115,5.477,5.4667,5.4563,5.4356,5.4391,5.446,5.446,5.4494,5.4494,5.4494,5.4253,5.4218,5.4356,5.408,5.3739,5.3632,5.3391,5.2908,5.2563,5.2494,5.239,5.2218,5.2149,5.2149,5.2252,5.2356,5.1977,8.7415,8.6338,8.6152,8.5595,8.4815,8.3997,8.3923,8.422,8.3552,8.318,8.318,8.3217,8.3477,8.3663,8.3403,8.3514,8.3775,8.3366,8.3254,8.318,8.318,8.318,8.3477,8.3812,8.4146,8.3923,8.4109,8.4406,8.4369,8.3923,8.4072,8.422,8.3923,8.3552,8.3217,8.318,8.318,8.3069,8.2623,8.2474,8.24,8.1954,8.1471,8.1434,8.0654,8.0282,8.0171,7.9948,7.9539,7.8945,7.8267,7.7162,7.5973,7.4747,7.3595,7.2618,7.196,7.1537,7.0548,6.9151,6.7925,6.7055,6.6185,6.5412,6.4921,6.4201,6.3896,6.3689,6.3304,6.3094,6.3092,6.2603,6.2042,6.1792,6.1408,6.0954,6.0471,6.0067,5.9518,5.9,5.8869,5.8874,5.8806,5.8702,5.8254,5.7805,5.6564,5.5495,5.5115,5.4736,5.4598,5.4494,5.4494,5.4632,5.4632,5.4598,5.4529,5.4563,5.4563,5.4598,5.4632,5.4494,5.4187,5.4115,5.4115,5.3873,5.3701,5.3667,5.3356,5.2839,5.2804,5.2942,5.308,5.3253,5.2839,8.7601,8.6709,8.5929,8.5112,8.4332,8.3514,8.3663,8.4183,8.3552,8.318,8.318,8.3217,8.3477,8.3737,8.3514,8.3403,8.3663,8.344,8.3254,8.318,8.318,8.318,8.3477,8.3849,8.4183,8.3775,8.3997,8.4406,8.4406,8.4146,8.396,8.3775,8.3514,8.3254,8.3217,8.318,8.318,8.318,8.318,8.318,8.3069,8.266,8.2326,8.2243,8.1508,8.1137,8.0951,8.0691,8.0097,7.9502,7.8759,7.7793,7.653,7.5304,7.4264,7.3547,7.3027,7.2778,7.1691,7.0193,6.9084,6.8138,6.7431,6.6828,6.632,6.5548,6.4897,6.4868,6.4348,6.3932,6.3966,6.3478,6.3198,6.3056,6.2464,6.1907,6.1138,6.0588,5.9969,5.9383,5.9286,5.9081,5.8978,5.8875,5.853,5.7978,5.7012,5.5977,5.5391,5.4977,5.4563,5.4494,5.4494,5.4667,5.4805,5.4736,5.4701,5.4908,5.4908,5.4805,5.4805,5.477,5.5046,5.5322,5.5253,5.4977,5.4667,5.4391,5.3839,5.3218,5.3425,5.3736,5.377,5.3839,5.3667,8.7601,8.6747,8.5966,8.5186,8.448,8.3552,8.3663,8.4257,8.3552,8.318,8.318,8.318,8.318,8.3292,8.3217,8.3292,8.3329,8.3254,8.318,8.318,8.318,8.318,8.3477,8.3886,8.4146,8.4332,8.4257,8.422,8.4406,8.3737,8.344,8.3589,8.3589,8.3292,8.3217,8.318,8.318,8.318,8.3217,8.3329,8.3329,8.3329,8.3366,8.2994,8.2549,8.2177,8.1843,8.1471,8.084,8.0097,7.9874,7.8796,7.7263,7.6493,7.5527,7.445,7.3844,7.351,7.3097,7.1148,7.0153,6.942,6.8836,6.812,6.7572,6.6674,6.5839,6.5914,6.5204,6.4803,6.4703,6.4667,6.4522,6.4166,6.3533,6.2972,6.2194,6.1668,6.1181,6.0704,5.9896,5.9251,5.9081,5.8909,5.8599,5.8047,5.7288,5.6564,5.5977,5.5529,5.5184,5.515,5.5184,5.5322,5.546,5.4977,5.4874,5.5118,5.5357,5.5426,5.546,5.5563,5.5943,5.6426,5.615,5.5632,5.5288,5.5012,5.4632,5.4356,5.4322,5.4494,5.4494,5.4529,5.446,8.7601,8.6784,8.6486,8.6226,8.5818,8.4555,8.4146,8.422,8.3589,8.318,8.318,8.318,8.318,8.318,8.318,8.318,8.318,8.318,8.318,8.318,8.3217,8.3589,8.3812,8.3737,8.3923,8.4109,8.3997,8.396,8.4369,8.3589,8.4035,8.4406,8.3923,8.3663,8.3329,8.318,8.318,8.3329,8.3663,8.4035,8.4035,8.4406,8.448,8.396,8.3589,8.3217,8.2734,8.2214,8.1731,8.1063,8.0914,7.9985,7.849,7.7719,7.6976,7.549,7.4524,7.4413,7.393,7.2791,7.2462,7.1425,7.0384,6.971,6.9222,6.7896,6.73,6.6926,6.6325,6.603,6.5966,6.5935,6.5746,6.5238,6.4669,6.4243,6.3639,6.3328,6.288,6.2429,6.1738,6.0268,5.9592,5.9485,5.9172,5.8732,5.8074,5.7631,5.7047,5.6598,5.6219,5.6219,5.6253,5.6288,5.615,5.577,5.577,5.6115,5.6288,5.6322,5.6391,5.6391,5.6564,5.6943,5.6598,5.6253,5.5874,5.5563,5.577,5.5701,5.5529,5.5081,5.4736,5.5081,5.5529,8.775,8.723,8.6932,8.6969,8.6895,8.5223,8.4406,8.4295,8.3849,8.3626,8.3589,8.3366,8.318,8.318,8.318,8.318,8.3217,8.3514,8.3292,8.3329,8.3552,8.37,8.3663,8.3552,8.3552,8.3737,8.3626,8.3514,8.3849,8.344,8.3663,8.4146,8.4257,8.3626,8.3292,8.318,8.318,8.3403,8.3812,8.4332,8.4555,8.4852,8.5112,8.4592,8.422,8.396,8.3403,8.3069,8.2846,8.2288,8.1731,8.11,7.9837,7.8722,7.809,7.6604,7.5527,7.5304,7.471,7.419,7.3702,7.3082,7.2187,7.135,7.0587,6.9372,6.8815,6.8306,6.7644,6.7237,6.7099,6.7055,6.6577,6.6032,6.5728,6.5308,6.4874,6.4535,6.4195,6.3746,6.3179,6.1667,6.0329,6.0013,5.9829,5.9402,5.8967,5.8591,5.8113,5.746,5.7012,5.6978,5.6978,5.6909,5.684,5.6667,5.6771,5.7116,5.7116,5.7047,5.7185,5.7185,5.7322,5.7391,5.7253,5.6943,5.6357,5.615,5.6322,5.6529,5.6564,5.5943,5.5115,5.5495,5.6219,8.8084,8.7973,8.7192,8.7341,8.7601,8.5706,8.4703,8.4518,8.4443,8.4406,8.4369,8.3626,8.3403,8.3292,8.3217,8.318,8.3254,8.3886,8.3663,8.3514,8.37,8.37,8.3552,8.3329,8.344,8.3366,8.3403,8.3626,8.3403,8.3923,8.396,8.3552,8.37,8.3552,8.3477,8.3254,8.3329,8.3626,8.422,8.4703,8.5075,8.5558,8.5446,8.5,8.4592,8.4072,8.3552,8.3143,8.2846,8.2474,8.2103,8.1545,8.0617,7.9316,7.8759,7.7942,7.6827,7.6047,7.5676,7.5267,7.4858,7.4365,7.3309,7.2566,7.1806,7.088,7.0285,6.9687,6.9071,6.8458,6.8066,6.7586,6.7105,6.683,6.67,6.63,6.5921,6.5537,6.5218,6.4851,6.444,6.3321,6.1991,6.1376,6.1091,6.0607,6.025,5.9783,5.9203,5.7908,5.7563,5.7426,5.7426,5.746,5.7426,5.7529,5.7633,5.7909,5.7633,5.7529,5.7702,5.7943,5.8081,5.8116,5.8012,5.7736,5.7322,5.7047,5.6943,5.715,5.7495,5.684,5.6012,5.6219,5.6633,8.8084,8.8084,8.7824,8.7861,8.7973,8.7341,8.6709,8.6078,8.5558,8.5261,8.5186,8.4406,8.4035,8.4035,8.3477,8.3254,8.3292,8.3403,8.3366,8.344,8.3589,8.3775,8.37,8.3514,8.3589,8.3812,8.3997,8.4072,8.4815,8.5149,8.4666,8.4257,8.3812,8.3886,8.3775,8.3477,8.3737,8.4146,8.4852,8.5335,8.6004,8.6709,8.6226,8.5558,8.5149,8.448,8.3514,8.3292,8.318,8.3589,8.3069,8.2623,8.2474,8.1954,8.1508,7.9874,7.8202,7.6706,7.6679,7.652,7.6111,7.5564,7.4858,7.4104,7.3209,7.2314,7.1601,7.1072,7.0475,6.988,6.9467,6.9017,6.8502,6.8191,6.7917,6.754,6.719,6.6979,6.6633,6.6433,6.5986,6.4712,6.3458,6.3019,6.2677,6.2103,6.1583,6.1094,6.0361,5.9135,5.8115,5.8046,5.8254,5.8357,5.8495,5.8599,5.8599,5.8599,5.8461,5.8392,5.853,5.8737,5.884,5.8702,5.8426,5.8461,5.8495,5.815,5.7667,5.815,5.8461,5.7702,5.7116,5.7185,5.7047,8.8084,8.8084,8.8084,8.8084,8.8084,8.8084,8.775,8.7192,8.6412,8.6078,8.5966,8.5223,8.4703,8.4332,8.3886,8.3552,8.3217,8.3626,8.3626,8.3292,8.344,8.3663,8.37,8.3514,8.3477,8.3812,8.396,8.3886,8.4815,8.5,8.4555,8.3923,8.3923,8.4146,8.4146,8.4035,8.4443,8.5,8.5632,8.6115,8.6821,8.7564,8.6895,8.5966,8.5632,8.4666,8.3514,8.3403,8.3923,8.4443,8.396,8.4146,8.3923,8.3552,8.2363,8.0728,7.9614,7.8499,7.8165,7.7682,7.7125,7.6493,7.6047,7.5304,7.4588,7.3691,7.3097,7.2489,7.1872,7.1278,7.1007,7.0672,7.0127,6.9645,6.9237,6.8828,6.8605,6.8457,6.8297,6.8161,6.7257,6.5962,6.5104,6.4676,6.4114,6.3365,6.2821,6.2403,6.1703,6.0741,5.9486,5.8736,5.9116,5.9426,5.9564,5.9702,5.984,5.991,5.9978,5.984,5.9668,5.9426,5.9426,5.9081,5.8668,5.8806,5.8944,5.8737,5.8461,5.8909,5.9081,5.8495,5.7943,5.7805,5.7564,8.8084,8.8084,8.8084,8.8158,8.8158,8.8158,8.8121,8.8084,8.7304,8.6895,8.6747,8.6041,8.5335,8.4926,8.4443,8.3923,8.3663,8.3775,8.3626,8.3217,8.3663,8.3775,8.3403,8.3217,8.3292,8.3254,8.344,8.3849,8.3514,8.3812,8.3997,8.3217,8.3254,8.3589,8.3997,8.422,8.4666,8.5409,8.5892,8.6264,8.7007,8.7452,8.7341,8.5929,8.5409,8.4926,8.396,8.3886,8.4443,8.4778,8.4926,8.5261,8.4555,8.37,8.2214,8.1434,8.058,8.0171,7.9465,7.8908,7.8155,7.7347,7.653,7.6159,7.5628,7.4896,7.4227,7.3595,7.2927,7.2481,7.2146,7.1552,7.0958,7.0512,7.014,6.9546,6.9063,6.8778,6.8481,6.8346,6.7975,6.6812,6.6279,6.5836,6.5623,6.4712,6.4388,6.408,6.3251,6.2395,6.1392,6.0175,6.0487,6.087,6.0635,6.0808,6.112,6.1259,6.1362,6.1086,6.0738,6.0393,6.0013,5.9737,5.9492,5.9219,5.9219,5.9116,5.915,5.9254,5.9323,5.915,5.884,5.8564,5.8219,8.8084,8.8084,8.8084,8.8418,8.8864,8.8344,8.8455,8.8901,8.8121,8.775,8.7601,8.6932,8.6375,8.5966,8.4889,8.4257,8.4146,8.3663,8.3403,8.3254,8.3514,8.3552,8.3217,8.318,8.318,8.3403,8.3663,8.3923,8.3849,8.3849,8.37,8.3254,8.318,8.3403,8.3737,8.4109,8.4889,8.5595,8.6338,8.6784,8.7452,8.7564,8.7341,8.6152,8.5483,8.5149,8.4406,8.422,8.5186,8.5929,8.5,8.4443,8.3737,8.2846,8.2549,8.2326,8.1471,8.1137,8.0765,7.9985,7.9094,7.8685,7.8053,7.7449,7.678,7.5973,7.523,7.4598,7.3967,7.3584,7.3138,7.2369,7.1701,7.1329,7.0958,7.0252,6.9509,6.9038,6.863,6.8444,6.8333,6.7888,6.7358,6.7061,6.6883,6.6812,6.6809,6.6418,6.5343,6.4452,6.3825,6.2831,6.2502,6.2556,6.2244,6.2363,6.2854,6.2714,6.2712,6.2328,6.1875,6.1461,6.1082,6.0733,6.0421,6.0285,6.015,5.9944,5.9944,5.9944,5.9875,5.9806,5.9461,5.915,5.8875,8.8084,8.8084,8.8084,8.8344,8.8641,8.827,8.8381,8.8604,8.827,8.8084,8.8047,8.7564,8.7192,8.6747,8.5446,8.4629,8.4369,8.3552,8.3292,8.3217,8.3217,8.3217,8.318,8.3217,8.318,8.3366,8.3552,8.3775,8.3923,8.3812,8.3477,8.3254,8.3254,8.3403,8.37,8.448,8.5075,8.5595,8.6635,8.7267,8.7675,8.7638,8.7192,8.6115,8.5743,8.5372,8.4889,8.4629,8.5372,8.5929,8.5335,8.4666,8.4072,8.3514,8.318,8.292,8.24,8.1843,8.162,8.0951,7.9911,7.9539,7.8796,7.7868,7.7784,7.6976,7.6307,7.5601,7.4625,7.4104,7.3844,7.3224,7.2469,7.1923,7.1626,7.1143,7.0326,6.9633,6.9335,6.915,6.8816,6.8247,6.7889,6.7815,6.7601,6.7274,6.7537,6.7494,6.6692,6.6086,6.5589,6.5142,6.456,6.4348,6.417,6.4433,6.4928,6.468,6.4185,6.3937,6.3654,6.2796,6.2174,6.2094,6.1953,6.1654,6.1422,6.1221,6.0843,6.0738,6.0669,6.0565,6.022,6.0013,6.0013,8.8084,8.8084,8.8084,8.8195,8.8233,8.8121,8.8195,8.827,8.8158,8.8084,8.8084,8.8047,8.7601,8.6932,8.6115,8.5298,8.4592,8.3923,8.3514,8.3366,8.3254,8.3403,8.3403,8.3292,8.3217,8.318,8.3292,8.3329,8.3329,8.3329,8.3366,8.3329,8.3477,8.37,8.4443,8.5112,8.5632,8.5855,8.6486,8.7007,8.7304,8.7415,8.6747,8.6338,8.6041,8.5781,8.5112,8.4926,8.5372,8.5483,8.5372,8.4666,8.422,8.3737,8.3514,8.3217,8.3032,8.2586,8.2243,8.1471,8.0654,7.9948,7.9019,7.8536,7.8462,7.8016,7.731,7.6557,7.5554,7.4848,7.4588,7.4179,7.3435,7.2655,7.2395,7.1961,7.1143,7.0363,7.0004,6.9781,6.9237,6.8692,6.842,6.8371,6.8146,6.7819,6.7642,6.7526,6.7347,6.7012,6.6592,6.6288,6.5981,6.5833,6.5878,6.6137,6.6531,6.6499,6.6066,6.5811,6.5426,6.4753,6.4227,6.3903,6.3667,6.3112,6.2817,6.2622,6.2225,6.1884,6.202,6.2085,6.1666,6.1523,6.1534,8.8084,8.8084,8.8084,8.8455,8.8864,8.8381,8.8455,8.8901,8.8344,8.8084,8.8084,8.8084,8.7935,8.7787,8.6932,8.6152,8.5335,8.4555,8.422,8.4146,8.3589,8.3737,8.3737,8.3329,8.3217,8.318,8.318,8.318,8.318,8.3217,8.3514,8.396,8.4035,8.4183,8.4369,8.4926,8.5186,8.5372,8.5892,8.6486,8.6004,8.6152,8.6375,8.5929,8.5372,8.5075,8.4703,8.4555,8.5,8.5186,8.4963,8.4257,8.3849,8.3589,8.3403,8.3329,8.318,8.3069,8.2549,8.1954,8.1285,8.1137,8.032,7.9502,7.9316,7.8945,7.8313,7.7784,7.6855,7.6121,7.575,7.5378,7.4747,7.3781,7.3261,7.2629,7.1886,7.1143,7.0623,7.0227,6.9744,6.9162,6.8605,6.8507,6.837,6.807,6.7867,6.7726,6.7594,6.753,6.7467,6.7259,6.703,6.736,6.7444,6.7493,6.7752,6.7867,6.7969,6.7704,6.733,6.6828,6.6356,6.5862,6.5046,6.4363,6.414,6.4077,6.3918,6.366,6.3854,6.3839,6.3322,6.3023,6.3042]}]]